[[{"header":{"parameterUnit":"m.s-1","parameterCategory":1,"la1":30.6,"la2":28.766,"lo1":-90.7593,"lo2":-88.6598,"dx":0.0162,"dy":0.0183,"nx":116,"ny":114,"refTime":"2022-11-29T18:00:00:Z","depth":0,"parameterNumber":2,"parameterNumberName":"U-component_of_WINDS"},"data":[0.0,0.0,0.0,0.0,0.0,0.0,0.0,0.0,0.0,0.0,0.0,0.0,0.0,0.0,0.0,0.0,0.0,0.0,0.0,0.0,0.0,0.0,0.0,0.0,0.0,0.0,0.0,0.0,0.0,0.0,0.0,0.0,0.0,0.0,0.0,0.0,0.0,0.0,0.0,0.0,0.0,0.0,0.0,0.0,0.0,0.0,0.0,0.0,0.0,0.0,0.0,0.0,0.0,0.0,0.0,0.0,0.0,0.0,0.0,0.0,0.0,0.0,0.0,0.0,0.0,0.0,0.0,0.0,0.0,0.0,0.0,0.0,0.0,0.0,0.0,0.0,0.0,0.0,0.0,0.0,0.0,0.0,0.0,0.0,0.0,0.0,0.0,0.0,0.0,0.0,0.0,0.0,0.0,0.0,0.0,0.0,0.0,0.0,0.0,0.0,0.0,0.0,0.0,0.0,0.0,0.0,0.0,0.0,0.0,0.0,0.0,0.0,0.0,0.0,0.0,0.0,0.0,0.0,0.0,0.0,0.0,0.0,0.0,0.0,0.0,0.0,0.0,0.0,0.0,0.0,0.0,0.0,0.0,0.0,0.0,0.0,0.0,0.0,0.0,0.0,0.0,0.0,0.0,0.0,0.0,0.0,0.0,0.0,0.0,0.0,0.0,0.0,0.0,0.0,0.0,0.0,0.0,0.0,0.0,0.0,0.0,0.0,0.0,0.0,0.0,0.0,0.0,0.0,0.0,0.0,0.0,0.0,0.0,0.0,0.0,0.0,0.0,0.0,0.0,0.0,0.0,0.0,0.0,0.0,0.0,0.0,0.0,0.0,0.0,0.0,0.0,0.0,0.0,0.0,0.0,0.0,0.0,0.0,0.0,0.0,0.0,0.0,0.0,0.0,0.0,0.0,0.0,0.0,0.0,0.0,0.0,0.0,0.0,0.0,0.0,0.0,0.0,0.0,0.0,0.0,0.0,0.0,0.0,0.0,0.0,0.0,0.0,0.0,0.0,0.0,0.0,0.0,0.0,0.0,0.0,0.0,0.0,0.0,0.0,0.0,0.0,0.0,0.0,0.0,0.0,0.0,0.0,0.0,0.0,0.0,0.0,0.0,0.0,0.0,0.0,0.0,0.0,0.0,0.0,0.0,0.0,0.0,0.0,0.0,0.0,0.0,0.0,0.0,0.0,0.0,0.0,0.0,0.0,0.0,0.0,0.0,0.0,0.0,0.0,0.0,0.0,0.0,0.0,0.0,0.0,0.0,0.0,0.0,0.0,0.0,0.0,0.0,0.0,0.0,0.0,0.0,0.0,0.0,0.0,0.0,0.0,0.0,0.0,0.0,0.0,0.0,0.0,0.0,0.0,0.0,0.0,0.0,0.0,0.0,0.0,0.0,0.0,0.0,0.0,0.0,0.0,0.0,0.0,0.0,0.0,0.0,0.0,0.0,0.0,0.0,0.0,0.0,0.0,0.0,0.0,0.0,0.0,0.0,0.0,0.0,0.0,0.0,0.0,0.0,0.0,0.0,0.0,0.0,0.0,0.0,0.0,0.0,0.0,0.0,0.0,0.0,0.0,0.0,0.0,0.0,0.0,0.0,0.0,0.0,0.0,0.0,0.0,0.0,0.0,0.0,0.0,0.0,0.0,0.0,0.0,0.0,0.0,0.0,0.0,0.0,0.0,0.0,0.0,0.0,0.0,0.0,0.0,0.0,0.0,0.0,0.0,0.0,0.0,0.0,0.0,0.0,0.0,0.0,0.0,0.0,0.0,0.0,0.0,0.0,0.0,0.0,0.0,0.0,0.0,0.0,0.0,0.0,0.0,0.0,0.0,0.0,0.0,0.0,0.0,0.0,0.0,0.0,0.0,0.0,0.0,0.0,0.0,0.0,0.0,0.0,0.0,0.0,0.0,0.0,0.0,0.0,0.0,0.0,0.0,0.0,0.0,0.0,0.0,0.0,0.0,0.0,0.0,0.0,0.0,0.0,0.0,0.0,0.0,0.0,0.0,0.0,0.0,0.0,0.0,0.0,0.0,0.0,0.0,0.0,0.0,0.0,0.0,0.0,0.0,0.0,0.0,0.0,0.0,0.0,0.0,0.0,0.0,0.0,0.0,0.0,0.0,0.0,0.0,0.0,0.0,0.0,0.0,0.0,0.0,0.0,0.0,0.0,0.0,0.0,0.0,0.0,0.0,0.0,0.0,0.0,0.0,0.0,0.0,0.0,0.0,0.0,0.0,0.0,0.0,0.0,0.0,0.0,0.0,0.0,0.0,0.0,0.0,0.0,0.0,0.0,0.0,0.0,0.0,0.0,0.0,0.0,0.0,0.0,0.0,0.0,0.0,0.0,0.0,0.0,0.0,0.0,0.0,0.0,0.0,0.0,0.0,0.0,0.0,0.0,0.0,0.0,0.0,0.0,0.0,0.0,0.0,0.0,0.0,0.0,0.0,0.0,0.0,0.0,0.0,0.0,0.0,0.0,0.0,0.0,0.0,0.0,0.0,0.0,0.0,0.0,0.0,0.0,0.0,0.0,0.0,0.0,0.0,0.0,0.0,0.0,0.0,0.0,0.0,0.0,0.0,0.0,0.0,0.0,0.0,0.0,0.0,0.0,0.0,0.0,0.0,0.0,0.0,0.0,0.0,0.0,0.0,0.0,0.0,0.0,0.0,0.0,0.0,0.0,0.0,0.0,0.0,0.0,0.0,0.0,0.0,0.0,0.0,0.0,0.0,0.0,0.0,0.0,0.0,0.0,0.0,0.0,0.0,0.0,0.0,0.0,0.0,0.0,0.0,0.0,0.0,0.0,0.0,0.0,0.0,0.0,0.0,0.0,0.0,0.0,0.0,0.0,0.0,0.0,0.0,0.0,0.0,0.0,0.0,0.0,0.0,0.0,0.0,0.0,0.0,0.0,0.0,0.0,0.0,0.0,0.0,0.0,0.0,0.0,0.0,0.0,0.0,0.0,0.0,0.0,0.0,0.0,0.0,0.0,0.0,0.0,0.0,0.0,0.0,0.0,0.0,0.0,0.0,0.0,0.0,0.0,0.0,0.0,0.0,0.0,0.0,0.0,0.0,0.0,0.0,0.0,0.0,0.0,0.0,0.0,0.0,0.0,0.0,0.0,0.0,0.0,0.0,0.0,0.0,0.0,0.0,0.0,0.0,0.0,0.0,0.0,0.0,0.0,0.0,0.0,0.0,0.0,0.0,0.0,0.0,0.0,0.0,0.0,0.0,0.0,0.0,0.0,0.0,0.0,0.0,0.0,0.0,0.0,0.0,0.0,0.0,0.0,0.0,0.0,0.0,0.0,0.0,0.0,0.0,0.0,0.0,0.0,0.0,0.0,0.0,0.0,0.0,0.0,0.0,0.0,0.0,0.0,0.0,0.0,0.0,0.0,0.0,0.0,0.0,0.0,0.0,0.0,0.0,0.0,0.0,0.0,0.0,0.0,0.0,0.0,0.0,0.0,0.0,0.0,0.0,0.0,0.0,0.0,0.0,0.0,0.0,0.0,0.0,0.0,0.0,0.0,0.0,0.0,0.0,0.0,0.0,0.0,0.0,0.0,0.0,0.0,0.0,0.0,0.0,0.0,0.0,0.0,0.0,0.0,0.0,0.0,0.0,0.0,0.0,0.0,0.0,0.0,0.0,0.0,0.0,0.0,0.0,0.0,0.0,0.0,0.0,0.0,0.0,0.0,0.0,0.0,0.0,0.0,0.0,0.0,0.0,0.0,0.0,0.0,0.0,0.0,0.0,0.0,0.0,0.0,0.0,0.0,0.0,0.0,0.0,0.0,0.0,0.0,0.0,0.0,0.0,0.0,0.0,0.0,0.0,0.0,0.0,0.0,0.0,0.0,0.0,0.0,0.0,0.0,0.0,0.0,0.0,0.0,0.0,0.0,0.0,0.0,0.0,0.0,0.0,0.0,0.0,0.0,0.0,0.0,0.0,0.0,0.0,0.0,0.0,0.0,0.0,0.0,0.0,0.0,0.0,0.0,0.0,0.0,0.0,0.0,0.0,0.0,0.0,0.0,0.0,0.0,0.0,0.0,0.0,0.0,0.0,0.0,0.0,0.0,0.0,0.0,0.0,0.0,0.0,0.0,0.0,0.0,0.0,0.0,0.0,0.0,0.0,0.0,0.0,0.0,0.0,0.0,0.0,0.0,0.0,0.0,0.0,0.0,0.0,0.0,0.0,0.0,0.0,0.0,0.0,0.0,0.0,0.0,0.0,0.0,0.0,0.0,0.0,0.0,0.0,0.0,0.0,0.0,0.0,0.0,0.0,0.0,0.0,0.0,0.0,0.0,0.0,0.0,0.0,0.0,0.0,0.0,0.0,0.0,0.0,0.0,0.0,0.0,0.0,0.0,0.0,0.0,0.0,0.0,0.0,0.0,0.0,0.0,0.0,0.0,0.0,0.0,0.0,0.0,0.0,0.0,0.0,0.0,0.0,0.0,0.0,0.0,0.0,0.0,0.0,0.0,0.0,0.0,0.0,0.0,0.0,0.0,0.0,0.0,0.0,0.0,0.0,0.0,0.0,0.0,0.0,0.0,0.0,0.0,0.0,0.0,0.0,0.0,0.0,0.0,0.0,0.0,0.0,0.0,0.0,0.0,0.0,0.0,0.0,0.0,0.0,0.0,0.0,0.0,0.0,0.0,0.0,0.0,0.0,0.0,0.0,0.0,0.0,0.0,0.0,0.0,0.0,0.0,0.0,0.0,0.0,0.0,0.0,0.0,0.0,0.0,0.0,0.0,0.0,0.0,0.0,0.0,0.0,0.0,0.0,0.0,0.0,0.0,0.0,0.0,0.0,0.0,0.0,0.0,0.0,0.0,0.0,0.0,0.0,0.0,0.0,0.0,0.0,0.0,0.0,0.0,0.0,0.0,0.0,0.0,0.0,0.0,0.0,0.0,0.0,0.0,0.0,0.0,0.0,0.0,0.0,0.0,0.0,0.0,0.0,0.0,0.0,0.0,0.0,0.0,0.0,0.0,0.0,0.0,0.0,0.0,0.0,0.0,0.0,0.0,0.0,0.0,0.0,0.0,0.0,0.0,0.0,0.0,0.0,0.0,0.0,0.0,0.0,0.0,0.0,0.0,0.0,0.0,0.0,0.0,0.0,0.0,0.0,0.0,0.0,0.0,0.0,0.0,0.0,0.0,0.0,0.0,0.0,0.0,0.0,0.0,0.0,0.0,0.0,0.0,0.0,0.0,0.0,0.0,0.0,0.0,0.0,0.0,0.0,0.0,0.0,0.0,0.0,0.0,0.0,0.0,0.0,0.0,0.0,0.0,0.0,0.0,0.0,0.0,0.0,0.0,0.0,0.0,0.0,0.0,0.0,0.0,0.0,0.0,0.0,0.0,0.0,0.0,0.0,0.0,0.0,0.0,0.0,0.0,0.0,0.0,0.0,0.0,0.0,0.0,0.0,0.0,0.0,0.0,0.0,0.0,0.0,0.0,0.0,0.0,0.0,0.0,0.0,0.0,0.0,0.0,0.0,0.0,0.0,0.0,0.0,0.0,0.0,0.0,0.0,0.0,0.0,0.0,0.0,0.0,0.0,0.0,0.0,0.0,0.0,0.0,0.0,0.0,0.0,0.0,0.0,0.0,0.0,0.0,0.0,0.0,0.0,0.0,0.0,0.0,0.0,0.0,0.0,0.0,0.0,0.0,0.0,0.0,0.0,0.0,0.0,0.0,0.0,0.0,0.0,0.0,0.0,0.0,0.0,0.0,0.0,0.0,0.0,0.0,0.0,0.0,0.0,0.0,0.0,0.0,0.0,0.0,0.0,0.0,0.0,0.0,0.0,0.0,0.0,0.0,0.0,0.0,0.0,0.0,0.0,0.0,0.0,0.0,0.0,0.0,0.0,0.0,0.0,0.0,0.0,0.0,0.0,0.0,0.0,0.0,0.0,0.0,0.0,0.0,0.0,0.0,0.0,0.0,0.0,0.0,0.0,0.0,0.0,0.0,0.0,0.0,0.0,0.0,0.0,0.0,0.0,0.0,0.0,0.0,0.0,0.0,0.0,0.0,0.0,0.0,0.0,0.0,0.0,0.0,0.0,0.0,0.0,0.0,0.0,0.0,-2.7598,-2.6083,0.0,0.0,0.0,0.0,0.0,0.0,0.0,0.0,0.0,0.0,0.0,0.0,0.0,0.0,0.0,0.0,0.0,0.0,0.0,0.0,0.0,0.0,0.0,-1.3048,-1.304,-1.3532,-1.3005,0.0,0.0,0.0,0.0,0.0,0.0,0.0,0.0,0.0,-1.3934,-1.5432,-1.5673,-1.7147,-1.972,-1.8351,-1.7147,-1.6135,0.0,0.0,0.0,0.0,0.0,0.0,0.0,0.0,0.0,0.0,0.0,0.0,0.0,0.0,0.0,0.0,0.0,0.0,0.0,0.0,0.0,0.0,0.0,0.0,0.0,0.0,0.0,0.0,0.0,0.0,0.0,0.0,0.0,0.0,0.0,0.0,0.0,0.0,0.0,0.0,0.0,0.0,0.0,0.0,0.0,0.0,0.0,0.0,0.0,0.0,0.0,0.0,0.0,0.0,0.0,0.0,0.0,0.0,0.0,0.0,0.0,0.0,0.0,0.0,0.0,0.0,0.0,0.0,0.0,0.0,-2.9803,-2.8593,0.0,0.0,0.0,0.0,0.0,0.0,0.0,0.0,0.0,0.0,0.0,0.0,0.0,0.0,0.0,0.0,0.0,0.0,0.0,0.0,0.0,-1.2862,-1.3757,-1.3698,-1.3875,-1.4574,-1.3786,-1.3269,-1.3306,-1.2567,0.0,0.0,0.0,0.0,-1.3186,-1.4235,-1.5722,-1.77,-1.8782,-2.0201,-2.1957,-2.2486,-2.15,-1.9239,-1.7531,0.0,0.0,0.0,0.0,0.0,0.0,0.0,0.0,0.0,0.0,0.0,0.0,0.0,0.0,0.0,0.0,0.0,0.0,0.0,0.0,0.0,0.0,0.0,0.0,0.0,0.0,0.0,0.0,0.0,0.0,0.0,0.0,0.0,0.0,0.0,0.0,0.0,0.0,0.0,0.0,0.0,0.0,0.0,0.0,0.0,0.0,0.0,0.0,0.0,0.0,0.0,0.0,0.0,0.0,0.0,0.0,0.0,0.0,0.0,0.0,0.0,0.0,0.0,-3.0885,-3.1121,-3.1992,-3.1946,-3.2371,-3.3148,-3.1475,-3.0889,-3.1129,-3.0127,0.0,0.0,0.0,0.0,0.0,0.0,0.0,0.0,0.0,0.0,0.0,0.0,0.0,0.0,0.0,0.0,0.0,0.0,0.0,-1.3973,-1.5407,-1.5308,-1.5343,-1.5899,-1.541,-1.5112,-1.5295,-1.4687,0.0,0.0,0.0,0.0,-1.48,-1.6017,-1.7337,-1.8782,-2.2077,-2.3799,-2.4088,-2.465,-2.4458,-2.3559,-2.1572,-2.0586,-2.0346,0.0,0.0,0.0,0.0,0.0,0.0,0.0,0.0,0.0,0.0,0.0,0.0,0.0,0.0,0.0,0.0,0.0,0.0,0.0,0.0,0.0,0.0,0.0,0.0,0.0,0.0,0.0,0.0,0.0,0.0,0.0,0.0,0.0,0.0,0.0,0.0,0.0,0.0,0.0,0.0,0.0,-2.518,-2.441,0.0,0.0,0.0,0.0,0.0,0.0,0.0,0.0,0.0,0.0,0.0,0.0,0.0,-3.1268,-3.1456,-3.1776,-3.2328,-3.2975,-3.2903,-3.2951,-3.3095,-3.2839,-3.2841,-3.2983,-3.3172,0.0,-3.2229,-3.1639,0.0,0.0,0.0,0.0,0.0,0.0,0.0,0.0,0.0,0.0,0.0,0.0,0.0,0.0,0.0,0.0,0.0,0.0,0.0,0.0,0.0,-1.7359,-1.7708,-1.8804,-1.8092,-1.7535,-1.7391,-1.6488,0.0,0.0,0.0,-1.6412,-1.6834,-1.7993,-1.9879,-2.2534,-2.5083,-2.6441,-2.6767,-2.7007,-2.6983,-2.6719,-2.5492,-2.364,-2.1356,-2.073,0.0,0.0,0.0,0.0,0.0,0.0,0.0,0.0,0.0,0.0,0.0,0.0,0.0,0.0,0.0,0.0,0.0,0.0,0.0,0.0,0.0,0.0,0.0,0.0,0.0,0.0,0.0,0.0,0.0,0.0,0.0,0.0,0.0,0.0,0.0,0.0,0.0,0.0,0.0,-2.4771,-2.5276,-2.6598,-2.6695,-2.6671,0.0,0.0,0.0,0.0,0.0,0.0,0.0,0.0,0.0,-3.1865,-3.2051,-3.2363,-3.2811,-3.2624,-3.2912,-3.3743,-3.3743,-3.4052,-3.4598,-3.445,-3.4499,-3.4647,-3.4885,-3.4887,-3.4577,-3.3339,-3.27,-3.2511,0.0,0.0,0.0,0.0,-3.0835,-3.0707,0.0,0.0,0.0,0.0,0.0,0.0,0.0,0.0,0.0,0.0,0.0,0.0,-1.8341,-1.8873,-1.9656,-2.0955,-2.0152,-1.9594,-1.9628,-1.8733,-1.8216,-1.8216,-1.8289,-1.8454,-1.8806,-1.9985,-2.227,-2.5733,-2.7162,-2.8258,-2.8907,-2.9051,-2.9051,-2.8907,-2.8643,-2.655,-2.3207,-2.3063,-2.1837,-1.9985,0.0,0.0,0.0,0.0,0.0,0.0,0.0,0.0,0.0,0.0,0.0,0.0,0.0,0.0,0.0,0.0,0.0,0.0,0.0,0.0,0.0,0.0,0.0,0.0,0.0,0.0,0.0,0.0,0.0,0.0,0.0,0.0,0.0,0.0,0.0,0.0,0.0,-2.5781,-2.631,-2.8811,-2.8763,-2.857,0.0,0.0,0.0,0.0,0.0,0.0,-3.1524,-3.2091,-3.2739,-3.3477,-3.3339,-3.3481,-3.3887,-3.3624,-3.3882,-3.4613,-3.4662,-3.5115,-3.5797,-3.6006,-3.6157,-3.6216,-3.6621,-3.6844,-3.6685,-3.4982,-3.4384,-3.4379,-3.3502,-3.3125,-3.3078,-3.2795,-3.2512,-3.237,0.0,0.0,0.0,0.0,0.0,0.0,0.0,0.0,0.0,0.0,0.0,-1.8056,-1.7939,-1.9355,-2.0598,-2.125,-2.0722,-2.0849,-2.2042,-2.1923,-2.1753,-2.1579,-2.21,-2.1804,-2.0514,-2.2029,-2.4145,-2.6801,-2.7945,-2.9003,-3.0013,-3.0518,-3.0494,-3.0037,-3.0494,-2.9773,-2.8017,-2.5997,-2.5083,-2.4747,-2.227,0.0,0.0,0.0,0.0,0.0,0.0,0.0,0.0,0.0,0.0,0.0,0.0,0.0,0.0,0.0,0.0,0.0,0.0,0.0,0.0,0.0,0.0,0.0,0.0,0.0,0.0,0.0,0.0,0.0,0.0,0.0,0.0,0.0,0.0,0.0,0.0,0.0,0.0,-3.073,-3.0778,0.0,0.0,0.0,0.0,-3.085,-3.1356,-3.2126,-3.3116,-3.3212,-3.3477,-3.3934,-3.4919,-3.5108,-3.436,-3.5611,-3.6114,-3.5907,-3.6162,-3.6312,-3.6384,-3.713,-3.7244,-3.6811,-3.8387,-3.8603,-3.7816,-3.6422,-3.575,-3.5469,-3.5173,-3.4889,-3.4751,-3.5231,-3.5051,-3.4772,0.0,0.0,0.0,-1.0769,-1.083,-1.1249,-1.2454,-1.3283,-1.4417,-1.6149,-1.797,-1.9308,-1.9915,-2.167,-2.2973,-2.3226,-2.3224,-2.3322,-2.3529,-2.3308,-2.306,-2.2725,-2.2802,-2.3119,-2.3616,-2.4867,-2.6815,-2.946,-3.0543,-3.1456,-3.2154,-3.2659,-3.2635,-3.213,-3.1985,-3.1408,-3.0422,-2.8643,-2.7079,-2.5709,-2.4434,-2.2678,0.0,0.0,0.0,0.0,0.0,0.0,0.0,0.0,0.0,0.0,0.0,0.0,0.0,0.0,0.0,0.0,0.0,0.0,0.0,0.0,0.0,0.0,0.0,0.0,0.0,0.0,0.0,0.0,0.0,0.0,0.0,0.0,0.0,0.0,0.0,0.0,0.0,-3.1284,-3.1697,0.0,-3.2659,-3.2827,-3.2899,-3.2899,-3.3404,-3.403,-3.4751,-3.4775,-3.504,-3.5545,-3.593,-3.5875,-3.5432,-3.5914,-3.6439,-3.7025,-3.7275,-3.7935,-3.9008,-3.9396,-3.961,-3.9635,-4.004,-4.0126,-4.0001,-3.9316,-3.8468,-3.7607,-3.7169,-3.6932,-3.6848,-3.6682,-3.6507,-3.6425,0.0,0.0,0.0,-1.1003,-1.1055,-1.156,-1.3257,-1.4004,-1.5107,-1.7174,-1.8857,-2.0229,-2.1226,-2.3077,-2.4304,-2.4558,-2.4948,-2.5061,-2.4795,-2.4594,-2.4381,-2.4025,-2.386,-2.4675,-2.6622,-2.7176,-2.8763,-3.1432,-3.2322,-3.3116,-3.3813,-3.4342,-3.415,-3.3525,-3.3356,-3.2875,-3.2175,-3.0711,-2.8859,-2.6863,-2.6334,-2.4867,-2.2895,0.0,0.0,0.0,0.0,0.0,0.0,0.0,0.0,0.0,0.0,0.0,0.0,0.0,0.0,0.0,0.0,0.0,0.0,0.0,0.0,0.0,0.0,0.0,0.0,0.0,0.0,0.0,0.0,0.0,0.0,0.0,0.0,0.0,0.0,-2.9989,-3.0687,-3.2274,-3.2635,-3.2971,-3.3501,-3.379,-3.4054,-3.4246,-3.4751,-3.5328,-3.5857,-3.5881,-3.605,-3.6386,-3.6747,-3.6836,-3.6526,-3.6987,-3.7459,-3.7956,-3.8501,-3.926,-4.0233,-4.1028,-4.1455,-4.1485,-4.1779,-4.1922,-4.199,-4.1946,-4.1435,-4.0582,-3.9457,-3.8959,-3.8745,-3.8445,-3.8129,-3.7902,0.0,0.0,-1.0507,-1.1029,-1.1412,-1.2209,-1.3864,-1.4576,-1.5627,-1.7645,-1.9379,-2.0764,-2.1702,-2.3298,-2.4534,-2.5074,-2.5615,-2.5935,-2.591,-2.5924,-2.5879,-2.5703,-2.5491,-2.6647,-2.9292,-2.8859,-2.9917,-3.2563,-3.3116,-3.3885,-3.4847,-3.5425,-3.5112,-3.4078,-3.4607,-3.4294,-3.326,-3.2247,-3.0543,-2.8595,-2.8017,-2.7128,-2.5973,0.0,0.0,0.0,0.0,0.0,0.0,0.0,0.0,0.0,0.0,0.0,0.0,0.0,0.0,0.0,0.0,0.0,0.0,0.0,0.0,0.0,0.0,0.0,0.0,0.0,0.0,0.0,0.0,0.0,0.0,0.0,0.0,0.0,-3.2418,-3.2102,-3.2298,-3.3814,-3.3621,-3.3525,-3.3982,-3.403,-3.427,-3.4799,-3.5352,-3.5881,-3.6411,-3.6435,-3.6459,-3.6483,-3.7493,-3.794,-3.7643,-3.894,-3.9332,-3.8751,-3.9857,-4.0233,-3.9997,-4.1945,-4.2495,-4.211,-4.3612,-4.3973,-4.3577,-4.4069,-4.4285,-4.4069,-4.2062,-4.0932,-4.0499,-4.0475,-3.997,-3.9332,-1.0884,-1.1019,-1.1415,-1.1698,-1.2184,-1.3042,-1.4462,-1.4802,-1.5777,-1.8214,-1.9496,-2.0769,-2.2297,-2.3765,-2.5007,-2.5822,-2.6121,-2.6162,-2.5935,-2.6724,-2.7338,-2.7686,-2.7671,-2.8522,-3.0398,-3.073,-3.1913,-3.4198,-3.4727,-3.5328,-3.5978,-3.6507,-3.6411,-3.5761,-3.5905,-3.54,-3.439,-3.4078,-3.2971,-3.1264,-2.9556,-2.8234,-2.7176,0.0,0.0,0.0,0.0,0.0,0.0,0.0,0.0,0.0,0.0,0.0,0.0,0.0,0.0,0.0,0.0,0.0,0.0,0.0,0.0,0.0,0.0,0.0,0.0,0.0,0.0,0.0,0.0,0.0,0.0,0.0,-3.1384,-3.2322,-3.2491,-3.2707,-3.314,-3.3886,-3.3862,-3.415,-3.5039,-3.5184,-3.54,-3.593,-3.6098,-3.6411,-3.694,-3.7348,-3.7733,-3.8142,-3.8815,-3.9043,-3.8792,-3.9133,-3.9411,-3.9656,-4.0063,-4.0687,-4.1441,-4.246,-4.2999,-4.3144,-4.3716,-4.4003,-4.4069,-4.3941,-4.4075,-4.4189,-4.3265,-4.2784,-4.2615,-4.2254,-4.2014,-4.1801,-1.2004,-1.2049,-1.232,-1.2521,-1.2727,-1.3424,-1.5017,-1.5035,-1.6057,-1.9302,-1.9932,-2.1031,-2.3452,-2.4434,-2.5326,-2.6297,-2.6685,-2.67,-2.6347,-2.7193,-2.7969,-2.8498,-2.9148,-3.0254,-3.1841,-3.2611,-3.3813,-3.5497,-3.6026,-3.6555,-3.7084,-3.7372,-3.7252,-3.6747,-3.6747,-3.6266,-3.5449,-3.4967,-3.4246,-3.3332,-3.1649,-3.0206,-2.8931,-2.7969,-2.697,-2.6093,-2.542,-2.5155,-2.5035,-2.4578,0.0,0.0,0.0,0.0,0.0,0.0,0.0,0.0,0.0,0.0,0.0,0.0,0.0,0.0,0.0,0.0,0.0,0.0,0.0,0.0,0.0,0.0,0.0,0.0,-3.2971,-3.3885,-3.4102,-3.403,-3.4198,-3.4944,-3.4799,-3.4967,-3.5857,-3.5954,-3.617,-3.6699,-3.694,-3.73,-3.7853,-3.8383,-3.8815,-3.9152,-3.9657,-3.989,-3.9698,-3.9938,-4.0239,-4.065,-4.1057,-4.1697,-4.2484,-4.3177,-4.3682,-4.3805,-4.3931,-4.4137,-4.4285,-4.4075,-4.4137,-4.4261,0.0,0.0,0.0,0.0,-4.2482,-4.2482,-1.3472,-1.3252,-1.3193,-1.3284,-1.3172,-1.3639,-1.5371,-1.5211,-1.6339,-2.0379,-2.0416,-2.1345,-2.4623,-2.5041,-2.5483,-2.6525,-2.7127,-2.7358,-2.7103,-2.745,-2.7978,-2.8667,-3.0158,-3.1741,-3.326,-3.4294,-3.5352,-3.6411,-3.694,-3.7469,-3.7974,-3.7974,-3.7733,-3.7276,-3.7276,-3.6988,-3.6435,-3.5497,-3.4967,-3.4823,-3.3861,-3.2491,-3.0903,-2.9484,-2.8907,-2.8667,-2.7176,-2.6959,-2.7186,-2.619,0.0,0.0,0.0,0.0,0.0,0.0,0.0,0.0,0.0,0.0,0.0,0.0,0.0,0.0,0.0,0.0,0.0,0.0,0.0,0.0,0.0,0.0,0.0,0.0,-3.4727,-3.5881,-3.6338,-3.5593,-3.5352,-3.629,-3.5978,-3.5905,-3.6435,-3.6483,-3.6747,-3.7324,-3.7805,-3.831,-3.8864,-3.9417,0.0,0.0,0.0,-4.0523,-4.0571,-4.1028,-4.1417,-4.165,-4.2424,-4.288,-4.3116,-4.3887,-4.4189,-4.4189,-4.4261,-4.4285,-4.4285,-4.4285,-4.4285,-4.4285,-4.4285,-4.3973,-4.3505,-4.2567,-4.2206,-4.2158,-1.3586,-1.3762,-1.3899,-1.3396,-1.3707,-1.4265,-1.4955,-1.4979,-1.6189,-1.9807,-2.0168,-2.1169,-2.3888,-2.4594,-2.5174,-2.5974,-2.6797,-2.75,-2.8162,-2.7858,-2.833,-2.9725,-3.0946,-3.2126,-3.326,-3.4294,-3.5352,-3.6411,-3.694,-3.7469,-3.7974,-3.7974,-3.7926,-3.7829,-3.7829,-3.7541,-3.7036,-3.6819,-3.6242,-3.54,-3.4775,-3.3597,-3.2154,-3.1841,-3.1456,-3.0995,-3.0272,-3.0013,-3.0013,-2.9388,-2.8595,-2.7897,-2.7897,-2.732,0.0,0.0,0.0,0.0,0.0,0.0,0.0,0.0,0.0,0.0,0.0,0.0,0.0,0.0,0.0,0.0,0.0,0.0,0.0,-3.4583,-3.5497,-3.629,-3.6386,-3.6218,-3.617,-3.6386,-3.6314,-3.6459,-3.6988,-3.7036,-3.7445,-3.8431,-3.8599,-3.8888,-3.9417,-3.9946,-4.0234,-4.0234,-4.0763,-4.1244,-4.1677,-4.1774,-4.2086,-4.2556,-4.2711,0.0,-4.2868,-4.3433,-4.3673,-4.3697,-4.4093,-4.4285,-4.4285,-4.4285,-4.4285,-4.4285,-4.4285,-4.4213,-4.4093,-4.3901,-4.3601,-4.3216,-1.4184,-1.4457,-1.4555,-1.3917,-1.421,-1.463,-1.4841,-1.5203,-1.6581,-1.9687,-2.0343,-2.1439,-2.3741,-2.4335,-2.4924,-2.5836,-2.6956,-2.7895,-2.8625,-2.8833,-2.965,-3.127,-3.1815,-3.2911,-3.4713,-3.5066,-3.5881,-3.7204,-3.7469,-3.7733,-3.7974,-3.7974,-3.7974,-3.7974,-3.7974,-3.7829,-3.7565,-3.73,-3.6892,-3.6362,-3.5833,-3.516,-3.4342,-3.3284,-3.2731,-3.2464,-3.1865,-3.1865,-3.1913,-3.0831,-3.0302,-3.0037,-2.9773,-2.8955,-2.7849,0.0,0.0,0.0,0.0,0.0,0.0,0.0,0.0,0.0,0.0,0.0,0.0,0.0,0.0,-3.3212,-3.427,0.0,-3.6002,-3.6002,-3.6459,-3.6892,-3.7156,-3.6964,-3.6795,-3.6795,-3.6795,-3.7108,-3.7926,-3.7998,-3.8334,-3.9152,-3.9465,-3.9729,-3.9994,-4.0499,-4.0667,-4.0403,-4.1172,-4.1581,-4.1581,-4.211,-4.2615,-4.3144,-4.3144,-4.3289,-4.3553,-4.3818,-4.3938,-4.3938,-4.4165,-4.4285,-4.4309,-4.4573,-4.4837,-4.5077,-4.5077,-4.4573,-4.389,-4.3649,-4.3385,-4.3096,-1.4839,-1.5056,-1.5025,-1.4493,-1.462,-1.4861,-1.5086,-1.5634,-1.7036,-1.9909,-2.0574,-2.1595,-2.3634,-2.4196,-2.4888,-2.6109,-2.7359,-2.8238,-2.8549,-2.9658,-3.076,-3.1923,-3.2518,-3.3633,-3.5456,-3.577,-3.6444,-3.7517,-3.7829,-3.7974,-3.7974,-3.7974,-3.7974,-3.7974,-3.7974,-3.7974,-3.795,-3.7517,-3.73,-3.7156,-3.6723,-3.6507,-3.6218,-3.4414,-3.3741,-3.3669,-3.314,-3.3164,-3.3212,-3.1817,-3.1669,-3.1958,-3.1524,-3.047,-2.9292,-2.8546,-2.8498,0.0,0.0,0.0,0.0,0.0,0.0,0.0,0.0,-3.1456,-3.1601,-3.427,-3.439,-3.4463,-3.5833,-3.6411,-3.6819,-3.7132,-3.7276,-3.7469,-3.7781,-3.7541,-3.7397,-3.7493,-3.7517,-3.7853,-3.8743,-3.8912,-3.92,-3.9729,-4.0162,-4.0403,-4.0403,-4.0908,-4.098,-4.0571,-4.1485,-4.187,-4.1629,-4.2471,-4.3168,-4.3673,-4.3673,-4.3914,-4.4285,-4.4285,-4.4285,-4.4285,-4.4285,-4.4285,-4.4309,-4.4741,-4.5173,-4.5621,-4.5621,-4.4828,-4.3625,-4.3337,-4.3096,-4.2856,-1.5162,-1.5208,-1.5101,-1.4808,-1.4777,-1.5041,-1.5775,-1.5937,-1.7182,-2.0475,-2.045,-2.093,-2.3158,-2.4254,-2.5542,-2.7272,-2.8031,-2.8169,-2.7526,-2.9622,-3.0508,-2.9707,-3.2465,-3.3662,-3.2913,-3.547,-3.6505,-3.5881,-3.73,-3.7974,-3.7974,-3.7974,-3.7974,-3.7974,-3.7974,-3.7974,-3.7974,-3.7926,-3.7613,-3.718,-3.7132,-3.6819,-3.6314,-3.5617,-3.5352,-3.528,-3.4751,-3.4246,-3.3814,-3.3236,-3.3068,-3.3092,-3.3044,-3.2899,-3.2466,-3.0975,-2.9893,-2.8931,-2.7666,-2.8306,-2.9749,-3.1601,-3.1673,-3.2271,0.0,-3.4992,-3.4294,-3.6988,-3.7132,-3.6964,-3.7589,-3.7757,-3.7661,-3.7252,-3.7589,-3.7757,-3.7348,-3.7637,-3.807,-3.8575,-3.8647,-3.8695,-3.8815,-3.9248,-3.9729,-4.0258,-4.0355,-4.0403,-4.0403,-4.0908,-4.1148,-4.11,-4.1677,-4.2375,-4.3241,-4.3361,-4.3697,-4.4189,-4.4189,-4.4213,-4.4285,-4.4285,-4.4285,-4.4285,-4.4285,-4.4285,-4.4285,-4.4357,-4.4405,-4.4453,-4.4453,-4.4357,-4.4237,-4.4708,-4.4251,-4.3409,-1.4902,-1.4839,-1.4761,-1.504,-1.5086,-1.5297,-1.5918,-1.6217,-1.7222,-1.9627,-1.981,-2.0534,-2.267,-2.4294,-2.5188,-2.5024,-2.6935,-2.7914,-2.7499,-2.9274,-3.0697,-3.16,-3.2143,-3.3164,-3.4667,-3.4803,-3.5206,-3.5964,-3.6374,-3.6603,-3.6603,-3.6916,-3.706,-3.706,-3.706,-3.706,-3.706,-3.706,-3.694,-3.6771,-3.706,-3.6867,-3.6411,-3.6507,-3.5954,-3.5039,-3.451,-3.3982,0.0,-3.2996,-3.2611,-3.2391,-3.2391,-3.2391,-3.2126,-3.085,-3.0585,-3.0754,-3.0903,-3.1072,-3.1601,-3.3404,-3.3669,-3.4078,-3.6242,-3.5809,-3.5521,-3.7565,-3.7565,-3.7348,-3.7878,-3.7974,-3.7902,-3.7685,-3.7829,-3.8022,-3.8118,-3.8334,-3.8671,-3.9224,-3.9561,-3.9729,-3.9729,-3.9946,-4.0282,-4.0812,-4.0571,-4.0523,-4.0836,-4.1076,-4.1172,-4.1172,-4.2279,-4.2928,-4.3072,-4.3697,-4.4045,-4.4285,-4.4285,-4.4285,-4.4285,-4.4285,-4.4285,-4.4285,-4.4285,-4.4453,-4.4741,-4.4741,-4.4933,-4.5197,-4.5197,-4.5005,-4.4693,-4.4347,-4.4106,-4.3901,-1.4808,-1.4746,-1.473,-1.5208,-1.5283,-1.5461,-1.5996,-1.6302,-1.716,-1.8925,-1.9159,-2.0084,-2.2562,-2.4096,-2.4663,-2.3883,-2.634,-2.766,-2.7035,-2.8919,-3.0761,-3.2321,-3.1997,-3.2788,-3.4865,-3.4393,-3.4442,-3.5189,-3.5575,-3.5647,-3.54,-3.5785,-3.5978,-3.5978,-3.5978,-3.5978,-3.5978,-3.5978,-3.5978,-3.6002,-3.6386,-3.6314,-3.6002,-3.6242,-3.5425,-3.4126,-3.403,-3.3621,-3.302,-3.2635,-3.2034,-3.1573,-3.2006,-3.1862,-3.1404,-3.0879,-3.1235,-3.1958,-3.2996,-3.3116,-3.3308,-3.4871,-3.5256,-3.5545,-3.6603,-3.6435,-3.6411,-3.7709,-3.7685,-3.7517,-3.7902,-3.7974,-3.7974,-3.7974,-3.7974,-3.819,-3.8743,-3.8815,-3.908,-3.9753,-4.0162,-4.0451,-4.0595,-4.0619,-4.0763,-4.1148,-4.0836,-4.0787,-4.1172,-4.1317,-4.1461,-4.1629,-4.2856,-4.3409,-4.3192,-4.3962,-4.4285,-4.4285,-4.4285,-4.4285,-4.4285,-4.4285,-4.4285,-4.4285,-4.4285,-4.4501,-4.4861,-4.4861,-4.5077,-4.5501,-4.5501,-4.5197,-4.4765,-4.4034,-4.401,-4.4213,-1.5147,-1.5268,-1.5268,-1.5283,-1.5283,-1.5515,-1.6108,-1.6195,-1.692,-1.8842,-1.8582,-1.9546,-2.2995,-2.3519,-2.4137,-2.5327,-2.7137,-2.7422,-2.5587,-2.8796,-3.0549,-3.0141,-3.2107,-3.2688,-3.1468,-3.4579,-3.5046,-3.2608,-3.5021,-3.5692,-3.4799,-3.4823,-3.4823,-3.4823,-3.4823,-3.4823,-3.4823,-3.4823,-3.4823,-3.4823,-3.4895,-3.4847,-3.4775,-3.427,-3.343,-3.2707,-3.3646,-3.3334,-3.2515,-3.2515,-3.1793,-3.1211,-3.2755,-3.2154,-3.1096,-3.213,-3.2058,-3.1958,-3.2996,-3.3645,-3.4318,-3.5954,-3.6362,-3.6627,-3.7685,-3.7517,-3.73,-3.7853,-3.7974,-3.7974,-3.7974,-3.7974,-3.7974,-3.7974,-3.7974,-3.819,-3.8743,-3.8815,-3.92,-4.0234,-4.0379,-4.0595,-4.1124,-4.1172,-4.1172,-4.1172,-4.1172,-4.1172,-4.1172,-4.1677,-4.2182,-4.2747,-4.3241,-4.377,-4.4237,-4.4261,-4.4285,-4.4285,-4.4285,-4.4285,-4.4285,-4.4285,-4.4285,-4.4285,-4.4285,-4.4285,-4.4309,-4.4309,-4.4309,-4.4333,-4.4333,-4.4333,-4.4309,-4.4261,-4.4261,-4.4285,-1.5162,-1.4948,-1.4777,-1.5208,-1.5283,-1.537,-1.5573,-1.5729,-1.6275,-1.7673,-1.8404,0.0,0.0,0.0,0.0,0.0,-2.51,-2.5923,-2.461,-2.737,-2.9087,-2.9141,-3.0574,-3.1787,-3.2624,-3.2983,-3.3263,-3.3346,-3.3972,-3.4091,-3.3813,-3.3618,-3.372,-3.4065,-3.3492,-3.3284,-3.3284,-3.3284,-3.3284,-3.3308,-3.3669,-3.3813,-3.3861,-3.4366,-3.3477,-3.1985,0.0,-3.1793,-3.0903,-3.0903,-3.0663,-3.0567,-3.1817,-3.1886,-3.1524,-3.1886,-3.2563,-3.3236,-3.3284,-3.3909,-3.4895,-3.6531,-3.6916,-3.7108,-3.7829,-3.7853,-3.7757,-3.795,-3.7709,-3.7469,-3.7469,-3.7469,-3.7469,-3.7469,-3.7757,-3.8286,-3.9224,-3.9345,-3.9729,-4.0787,-4.0908,-4.098,-4.1172,-4.1172,-4.1172,-4.1172,-4.086,-4.0956,-4.1677,-4.187,-4.2375,-4.3241,-4.3794,-4.4093,-4.4285,-4.4285,-4.4285,-4.4285,-4.4285,-4.4285,-4.4285,-4.4285,-4.4285,-4.4285,-4.4285,-4.4285,-4.4285,-4.4285,-4.4285,-4.4285,-4.4285,-4.4285,-4.4285,-4.4285,-4.4285,-4.4285,-1.5178,-1.4948,-1.4793,-1.5208,-1.5283,0.0,0.0,0.0,0.0,0.0,0.0,0.0,0.0,0.0,0.0,0.0,0.0,-2.4629,-2.3951,-2.6181,-2.7797,-2.8354,-2.9073,-3.0162,-3.1542,-3.1316,-3.1616,-3.239,-3.2419,-3.2673,-3.3019,-3.2603,-3.2567,-3.2839,-3.2302,-3.1933,-3.1625,-3.1625,-3.1745,-3.1889,-3.1673,-3.1697,-3.1865,-3.1961,-3.1048,0.0,-2.9893,-2.9532,-2.9051,-2.9605,-2.9556,-2.9484,-3.097,-3.1548,-3.1813,-3.2346,-3.3236,-3.4078,-3.4559,-3.5184,-3.5954,-3.718,-3.7469,-3.7565,-3.7902,-3.7974,-3.7974,-3.7974,-3.7565,-3.7204,-3.7204,-3.7204,-3.7252,-3.7445,-3.7757,-3.8431,-3.9705,-3.9729,-3.9994,-4.1052,-4.1172,-4.1172,-4.1172,-4.1172,-4.1172,-4.1172,-4.086,-4.1124,-4.2265,-4.2313,-4.2735,-4.377,-4.4093,-4.4285,-4.4285,-4.4285,-4.4285,-4.4285,-4.4285,-4.4285,-4.4285,-4.4285,-4.4285,-4.4285,-4.4285,-4.4285,-4.4285,-4.4285,-4.4285,-4.4285,-4.4285,-4.4405,-4.4573,-4.4573,-4.4573,-4.4549,-1.5223,-1.5253,-1.5238,0.0,0.0,0.0,0.0,0.0,0.0,0.0,0.0,0.0,0.0,0.0,0.0,0.0,0.0,0.0,-2.3499,-2.5224,-2.6661,-2.7566,-2.7738,-2.7975,-2.8319,-2.9628,-3.0123,-2.9751,-3.0495,-3.1402,-3.2346,-3.172,-3.1344,-3.1175,-3.1135,-3.0712,-2.9994,-2.9994,-3.0266,-3.0579,-2.9068,-2.8755,-2.9027,-2.7522,-2.6585,-2.6166,-2.6705,-2.6873,-2.709,-2.8667,-2.8595,-2.8234,-3.0302,-3.1428,-3.2199,-3.3621,-3.4054,-3.4534,-3.6579,-3.7156,-3.7324,-3.7853,-3.7974,-3.7974,-3.7974,-3.7974,-3.7974,-3.795,-3.7517,-3.7156,-3.7156,-3.7156,-3.7324,-3.7853,-3.7974,-3.8527,-4.0138,-3.9922,-3.9994,-4.1052,-4.1172,-4.1172,-4.1172,-4.1172,-4.1172,-4.1172,-4.122,-4.1677,-4.2771,-4.2843,-4.3265,-4.4261,-4.4285,-4.4285,-4.4285,-4.4285,-4.4285,-4.4285,-4.4285,-4.4285,-4.4285,-4.4285,-4.4285,-4.4285,-4.4285,-4.4285,-4.4285,-4.4285,-4.4285,-4.4285,-4.4285,-4.4621,-4.5077,-4.5077,-4.5101,-4.5053,0.0,0.0,0.0,0.0,0.0,0.0,0.0,0.0,0.0,0.0,0.0,0.0,0.0,0.0,0.0,0.0,0.0,0.0,-2.2107,-2.3969,-2.5109,-2.5109,-2.6042,-2.675,-2.719,-2.7561,-2.8142,-2.899,-2.9208,-2.9647,-3.0333,-2.9599,-2.9403,-2.9715,-2.9109,-2.8711,-2.8554,-2.8554,-2.8336,-2.8076,-2.8052,-2.7849,-2.7546,-2.7969,-2.7272,-2.6166,-2.6705,-2.6633,-2.643,-2.7234,-2.8667,-3.0302,-3.1673,-3.3236,-3.4535,-3.4102,-3.4823,-3.5833,-3.5978,-3.6603,-3.7324,-3.7853,-3.7974,-3.7974,-3.7974,-3.7974,-3.7878,-3.7469,-3.6964,-3.6603,-3.6603,-3.6603,-3.6771,-3.73,-3.7733,-3.8407,-3.9633,-3.9705,-3.9994,-4.1052,-4.1172,-4.1172,-4.1172,-4.1172,-4.1172,-4.1172,-4.1557,-4.2121,-4.2795,-4.312,-4.3625,-4.4261,-4.4285,-4.4285,-4.4285,-4.4285,-4.4285,-4.4285,-4.4285,-4.4285,-4.4285,-4.4285,-4.4285,-4.4285,-4.4285,-4.4285,-4.4285,-4.4285,-4.4285,-4.4285,-4.4285,-4.4621,-4.5077,-4.5077,-4.5317,-4.5694,0.0,0.0,0.0,0.0,0.0,0.0,0.0,0.0,0.0,0.0,0.0,0.0,0.0,0.0,0.0,0.0,0.0,0.0,0.0,-2.2764,-2.3526,-2.3773,-2.4481,-2.5224,-2.5992,-2.602,-2.661,-2.7874,-2.7874,-2.8324,-2.9195,-2.8761,-2.8652,-2.8837,-2.8372,-2.7968,-2.7627,-2.7627,-2.761,0.0,0.0,-2.6258,-2.5906,-2.5526,-2.4819,-2.4121,-2.465,-2.5228,-2.5901,-2.6898,-2.9027,-3.138,-3.1937,-3.326,-3.4559,-3.439,-3.5184,-3.6098,-3.6266,-3.6916,-3.7613,-3.7902,-3.7974,-3.7926,-3.7685,-3.7445,-3.7204,-3.6916,-3.605,-3.5569,-3.6266,-3.6218,-3.6386,-3.7372,-3.7998,-3.8719,-3.9801,-3.9946,-4.0258,-4.1076,-4.1172,-4.1172,-4.1172,-4.1172,-4.1172,-4.1172,-4.1677,-4.2265,-4.2795,-4.3241,-4.377,-4.4261,-4.4285,-4.4285,-4.4285,-4.4285,-4.4285,-4.4285,-4.4285,-4.4285,-4.4285,-4.4285,-4.4285,-4.4285,-4.4285,-4.4285,-4.4285,-4.4285,-4.4285,-4.4309,-4.4549,-4.5101,-4.5862,-4.6102,-4.6511,-4.692,0.0,0.0,0.0,0.0,0.0,0.0,0.0,0.0,0.0,-1.8559,-1.7802,-1.7566,-1.8579,-1.8358,0.0,0.0,0.0,0.0,0.0,0.0,-2.2042,-2.2918,-2.2923,-2.3417,-2.45,-2.45,-2.5119,-2.6329,-2.6329,-2.6919,-2.8071,-2.8155,-2.8047,-2.7841,-2.8003,-2.7648,-2.6922,-2.6922,-2.7144,-2.7289,-2.5288,-2.4343,-2.3954,0.0,-2.1305,-2.126,-2.1861,-2.3424,-2.5444,-2.7042,-2.934,-3.1548,-3.1837,-3.2563,-3.3597,-3.4631,-3.5304,-3.593,-3.6916,-3.7589,-3.7974,-3.7974,-3.7926,-3.7733,-3.7204,-3.6675,-3.6266,-3.6218,-3.4991,-3.4438,-3.593,-3.5761,-3.5954,-3.7613,-3.8214,-3.8936,-4.021,-4.0331,-4.0523,-4.1124,-4.1172,-4.1172,-4.1172,-4.1172,-4.1172,-4.1172,-4.1725,-4.2338,-4.2795,-4.3313,-4.3842,-4.4261,-4.4285,-4.4285,-4.4285,-4.4285,-4.4285,-4.4285,-4.4285,-4.4285,-4.4285,-4.4285,-4.4285,-4.4285,-4.4285,-4.4285,-4.4285,-4.4285,-4.4285,-4.4333,-4.4861,-4.5742,-4.668,-4.7209,-4.7738,-4.8122,0.0,0.0,0.0,0.0,0.0,0.0,0.0,0.0,0.0,0.0,-1.9591,-1.7726,0.0,0.0,0.0,0.0,0.0,0.0,0.0,0.0,0.0,-2.1148,-2.0981,-2.1231,-2.1912,-2.194,-2.2531,-2.3744,-2.3744,-2.4137,-2.4894,-2.54,-2.5348,-2.4905,-2.5883,-2.5995,-2.5384,-2.5384,-2.5134,-2.4625,-2.3656,-2.2498,-2.1317,-2.1207,0.0,0.0,-2.1187,-2.2895,-2.4856,-2.6489,-2.8546,-3.0663,-3.2442,-3.3428,-3.4078,-3.516,-3.5857,-3.6411,-3.7036,-3.7589,-3.7974,-3.7974,-3.7661,-3.7204,-3.6675,-3.6122,-3.5641,-3.5184,-3.4486,-3.4222,-3.4919,-3.4631,-3.4919,-3.7012,-3.7036,-3.7661,-4.0066,-4.0018,-4.009,-4.1076,-4.1172,-4.1172,-4.1172,-4.1172,-4.1172,-4.1172,-4.2145,-4.2723,-4.2819,-4.3673,-4.4189,-4.4285,-4.4285,-4.4285,-4.4285,-4.4285,-4.4285,-4.4285,-4.4285,-4.4285,-4.4285,-4.4285,-4.4285,-4.4285,-4.4285,-4.4285,-4.4285,-4.4285,-4.4285,-4.4333,-4.4861,-4.5438,-4.6126,-4.6655,-4.7185,-4.7617,0.0,0.0,0.0,0.0,0.0,0.0,0.0,-2.0425,-2.1277,-2.3654,-2.2446,-2.1153,-2.0655,-1.9838,-1.9304,0.0,0.0,0.0,0.0,0.0,0.0,-2.0144,-2.0288,-2.0681,-2.1288,-2.1316,-2.1575,-2.2165,0.0,-2.2644,-2.2667,-2.3262,-2.3403,-2.315,-2.3741,-2.38,-2.3544,-2.3544,-2.337,-2.3013,-2.2386,-2.1474,-2.0496,-2.0118,0.0,0.0,-2.0587,-2.2153,-2.3953,-2.5564,-2.7512,-2.9749,-3.2442,-3.3645,-3.4246,-3.5641,-3.6218,-3.6579,-3.7372,-3.7781,-3.7974,-3.7974,-3.7781,-3.7324,-3.6242,-3.5593,-3.4895,-3.3837,-3.2971,-3.2731,-3.3837,-3.3597,-3.3933,-3.6026,-3.6843,-3.7781,-3.9345,-4.0306,-4.0932,-4.1148,-4.1437,-4.1485,-4.122,-4.1172,-4.1293,-4.1581,-4.2386,-4.2819,-4.2819,-4.377,-4.4285,-4.4285,-4.4285,-4.4285,-4.4285,-4.4285,-4.4285,-4.4285,-4.4285,-4.4285,-4.4285,-4.4285,-4.4429,-4.4669,-4.4405,-4.4453,-4.4693,-4.4693,-4.4693,-4.4765,-4.5645,-4.6271,-4.68,-4.7329,-4.7858,-4.8291,0.0,0.0,0.0,0.0,0.0,0.0,0.0,-2.1484,-2.264,-2.5076,-2.5608,-2.5326,-2.4226,-2.1935,-2.0329,0.0,0.0,0.0,0.0,0.0,0.0,0.0,0.0,0.0,-2.0872,0.0,0.0,-2.1097,-2.1575,0.0,0.0,0.0,0.0,0.0,-2.1988,-2.2016,-2.1997,-2.1904,-2.1857,0.0,0.0,-2.0522,-1.9886,0.0,0.0,0.0,0.0,-2.1289,-2.2892,-2.4468,-2.6251,-2.833,-3.1487,-3.3088,-3.415,-3.5785,-3.6242,-3.6483,-3.7661,-3.7805,-3.7661,-3.7781,-3.7637,-3.7084,-3.5617,-3.4775,-3.3933,-3.2587,-3.1456,-3.112,-3.2515,-3.2442,-3.2827,-3.4944,-3.6314,-3.7565,-3.8815,-4.0427,-4.1437,-4.1365,-4.1629,-4.1677,-4.1389,-4.1148,-4.122,-4.1774,-4.2458,-4.2916,-4.3096,-4.389,-4.4285,-4.4285,-4.4285,-4.4285,-4.4285,-4.4285,-4.4333,-4.4453,-4.4453,-4.4525,-4.4621,-4.4621,-4.4861,-4.5285,-4.4813,-4.4861,-4.5245,-4.5245,-4.5317,-4.5573,-4.6511,-4.7136,-4.7569,-4.8098,-4.8483,-4.8676,0.0,0.0,0.0,0.0,0.0,0.0,0.0,-2.2778,-2.4909,-2.7683,-2.8691,-2.8682,-2.7481,-2.4617,-2.2119,0.0,0.0,0.0,0.0,0.0,0.0,0.0,0.0,0.0,0.0,0.0,0.0,-2.0484,-2.054,0.0,0.0,0.0,0.0,0.0,0.0,-2.1485,-2.1355,-2.0914,0.0,0.0,0.0,0.0,0.0,0.0,0.0,0.0,0.0,-2.0177,-2.1802,-2.3454,-2.4721,-2.6082,-2.8889,-3.14,-3.3669,-3.5232,-3.5689,-3.6026,-3.7565,-3.7276,-3.6675,-3.7156,-3.6555,-3.5545,-3.439,-3.3428,-3.2539,-3.191,-3.0946,-3.035,-3.0975,-3.1091,-3.1721,-3.379,-3.427,-3.5593,-3.9056,-3.9705,-4.0331,-4.1725,-4.1533,-4.1437,-4.1846,-4.1028,-4.0691,-4.122,-4.2182,-4.3192,-4.4093,-4.4237,-4.4285,-4.4285,-4.4285,-4.4285,-4.4285,-4.4285,-4.4525,-4.5005,-4.5005,-4.5245,-4.579,-4.579,-4.5814,-4.5838,-4.579,-4.5814,-4.5862,-4.5862,-4.6126,-4.6631,-4.7209,-4.7473,-4.7569,-4.8098,-4.8002,-4.7642,0.0,0.0,0.0,0.0,0.0,0.0,-2.1437,-2.2508,-2.4554,-2.8852,-2.9405,-2.9444,-2.9414,-2.7299,-2.4553,-2.1243,0.0,0.0,0.0,0.0,0.0,0.0,0.0,0.0,0.0,0.0,-1.9197,-1.9789,-1.9875,0.0,0.0,0.0,0.0,0.0,0.0,-1.9806,-1.9647,-1.8876,0.0,0.0,0.0,0.0,0.0,0.0,0.0,0.0,0.0,0.0,-2.0744,-2.273,-2.405,-2.5261,-2.7718,-2.9576,-3.1336,-3.3573,-3.475,-3.5599,-3.6756,-3.6723,-3.6459,-3.6675,-3.593,-3.4871,-3.3813,-3.2755,-3.1577,-3.0086,-2.9436,-2.91,-2.9003,-2.9484,-3.0422,-3.1889,-3.3741,-3.5737,-3.7853,-3.9537,-4.0908,-4.187,-4.1774,-4.1749,-4.2,-4.1293,-4.122,-4.2121,-4.312,-4.3914,-4.4261,-4.4285,-4.4285,-4.4285,-4.4285,-4.4285,-4.4285,-4.4285,-4.4549,-4.5077,-4.5077,-4.5342,-4.5934,-4.5934,-4.6102,-4.6391,-4.6054,-4.6102,-4.6415,-4.6752,-4.6992,-4.7281,-4.8122,-4.8267,-4.8002,-4.8219,-4.7954,-4.7497,0.0,0.0,0.0,0.0,0.0,-1.8384,-2.1362,-2.2524,-2.4594,-2.8792,-2.9502,-2.9816,-3.0199,-2.8263,-2.5592,-2.2209,-1.9939,0.0,0.0,0.0,0.0,0.0,0.0,0.0,0.0,0.0,-1.8895,-1.9447,-1.9565,-1.9778,0.0,0.0,-1.996,-1.9579,0.0,0.0,0.0,0.0,0.0,0.0,0.0,0.0,0.0,0.0,0.0,0.0,0.0,0.0,0.0,0.0,0.0,-2.3957,-2.6045,-2.7422,-2.884,-3.193,-3.3555,-3.4662,-3.5838,-3.605,-3.6002,-3.6314,-3.5256,-3.3982,-3.3428,-3.1961,-3.0254,-2.8619,-2.8162,-2.7834,-2.7344,-2.8234,-2.9412,-3.047,-3.2923,-3.516,-3.6531,-3.8888,-4.086,-4.1846,-4.1966,-4.2086,-4.2399,-4.1677,-4.1629,-4.2747,-4.3457,-4.401,-4.4261,-4.4285,-4.4285,-4.4285,-4.4285,-4.4357,-4.4525,-4.4525,-4.4861,-4.5597,-4.5597,-4.5886,-4.6391,-4.6223,-4.6439,-4.692,-4.6391,-4.6463,-4.6992,-4.7521,-4.7834,-4.805,-4.8964,-4.8988,-4.8531,-4.8531,-4.8098,-4.7497,0.0,0.0,0.0,0.0,0.0,0.0,-2.0282,-2.3223,-2.5731,-2.7328,-2.9251,-3.0259,-2.9673,-2.6942,-2.4667,-2.3466,-2.1494,0.0,0.0,0.0,0.0,0.0,0.0,0.0,0.0,0.0,-1.8936,-1.9601,-1.9601,-1.9601,-1.9601,-1.9601,-1.9601,-1.9557,0.0,0.0,0.0,0.0,0.0,0.0,0.0,0.0,0.0,0.0,0.0,0.0,0.0,0.0,0.0,0.0,0.0,0.0,0.0,-2.4764,-2.6531,-3.0531,-3.2082,-3.2971,-3.5064,-3.5256,-3.5039,-3.6146,-3.4463,-3.2659,-3.3164,-3.0831,-2.8402,-2.781,-2.7282,-2.6753,-2.6214,-2.744,-2.8859,-2.9917,-3.1456,-3.326,-3.5352,-3.7493,-3.9609,-4.1725,-4.1966,-4.2375,-4.3385,-4.2086,-4.1629,-4.2747,-4.2819,-4.3241,-4.4237,-4.4285,-4.4285,-4.4285,-4.4285,-4.4525,-4.5053,-4.5053,-4.5645,-4.6704,-4.6704,-4.6968,-4.7473,-4.6944,-4.6992,-4.7473,-4.6944,-4.7016,-4.7521,-4.805,-4.8579,-4.9109,-4.9662,-4.9541,-4.906,-4.906,-4.8411,-4.7497,0.0,0.0,0.0,0.0,0.0,0.0,0.0,-2.0681,-2.2565,-2.548,-2.6354,-2.714,-2.8195,-2.5703,-2.3733,-2.3256,-2.1076,0.0,0.0,0.0,0.0,0.0,0.0,0.0,0.0,-1.8816,-1.9285,-2.0219,-2.1136,-2.1321,-2.085,-2.1722,-2.1282,-1.9705,-1.9004,-1.878,0.0,0.0,0.0,0.0,0.0,0.0,0.0,0.0,0.0,0.0,0.0,0.0,0.0,0.0,0.0,0.0,0.0,0.0,0.0,-2.6624,-2.9277,-3.1609,-3.2637,-3.3617,-3.4148,-3.339,-3.2138,-3.0942,-3.0187,-2.8667,-2.7138,-2.6262,-2.6238,-2.619,-2.5661,-2.7464,-2.9388,-3.0446,-3.2875,-3.4992,-3.6002,-3.7998,-3.9729,-4.0763,-4.1533,-4.2254,-4.2928,-4.2543,-4.2543,-4.3216,-4.3625,-4.3925,-4.4261,-4.4285,-4.4285,-4.4285,-4.4285,-4.4357,-4.4525,-4.4525,-4.5053,-4.6175,-4.6175,-4.6631,-4.7497,-4.7329,-4.7353,-4.7497,-4.7329,-4.7545,-4.8074,-4.8603,-4.9133,-4.9662,-5.0215,-4.9878,-4.9084,-4.9084,-4.8411,-4.7497,0.0,0.0,0.0,0.0,0.0,0.0,0.0,-1.9068,-2.0412,-2.2828,-2.3303,-2.4038,-2.5637,-2.3568,-2.2114,-2.2267,-2.0258,0.0,0.0,0.0,0.0,0.0,0.0,0.0,-1.8968,-1.8937,-1.9636,-2.1142,-2.2174,-2.256,-2.2319,-2.3339,-2.2702,-2.0688,-1.9926,-1.9474,0.0,0.0,0.0,0.0,0.0,0.0,-1.898,0.0,0.0,0.0,0.0,0.0,0.0,0.0,0.0,0.0,0.0,0.0,0.0,0.0,-2.6452,-2.8948,-3.0146,-3.1501,-3.2398,-3.1617,-3.0431,-2.9278,-2.8642,-2.7368,-2.6033,-2.5204,-2.5588,-2.5949,-2.5396,-2.7488,-2.9653,-3.0754,-3.3044,-3.5064,-3.5978,-3.7781,-3.9561,-4.11,-4.2038,-4.2615,-4.2795,-4.2651,-4.2663,-4.3192,-4.3721,-4.4069,-4.4285,-4.4285,-4.4285,-4.4285,-4.4285,-4.4477,-4.4885,-4.4885,-4.5414,-4.6511,-4.6319,-4.668,-4.7497,-4.7088,-4.7112,-4.7497,-4.7281,-4.7617,0.0,-4.8868,-4.9397,-4.9902,-5.0263,-4.9854,-4.906,-4.8844,-4.8243,-4.7497,0.0,0.0,0.0,0.0,0.0,0.0,0.0,-1.8275,-1.9174,-1.9701,-2.0345,-2.1186,-2.23,-2.0811,-1.999,-2.0639,0.0,0.0,0.0,0.0,0.0,0.0,0.0,0.0,-1.9521,-1.9171,-2.0006,-2.2106,-2.28,-2.3399,-2.381,-2.4489,-2.3898,-2.2276,-2.1156,-2.0322,0.0,0.0,0.0,0.0,-1.8253,-1.8542,0.0,0.0,0.0,0.0,0.0,0.0,0.0,0.0,0.0,0.0,0.0,0.0,0.0,0.0,0.0,0.0,0.0,-2.9108,-3.0205,-3.0609,-2.9237,-2.7888,-2.8282,-2.6863,0.0,-2.4712,-2.5444,-2.5997,-2.5516,-2.7633,-2.9821,-3.0927,-3.2491,-3.4102,-3.5617,-3.718,-3.932,-4.2506,-4.3168,-4.3241,-4.2916,-4.2386,-4.2313,-4.2843,-4.3289,-4.3794,-4.4261,-4.4285,-4.4285,-4.4285,-4.4333,-4.4813,-4.5862,-4.591,-4.6439,-4.7449,-4.692,-4.6944,-4.7473,-4.6439,-4.6535,-4.7473,-4.7016,-4.7401,-4.8387,-4.8916,-4.9445,-4.9926,-4.9878,-4.9541,-4.9012,-4.8483,-4.7954,-4.7497,0.0,0.0,0.0,0.0,0.0,0.0,0.0,0.0,0.0,0.0,-1.9095,-1.9527,-1.9837,-1.8724,-1.8196,0.0,0.0,0.0,0.0,0.0,0.0,0.0,0.0,0.0,-1.9049,-1.9425,-2.0034,-2.0986,-2.3654,-2.4591,-2.3846,-2.5707,-2.545,-2.3361,-2.1873,-2.0466,0.0,0.0,0.0,0.0,-1.8806,-1.8879,0.0,0.0,0.0,0.0,-1.8999,-1.8999,0.0,0.0,0.0,0.0,0.0,0.0,0.0,0.0,-2.2594,-2.366,-2.4647,0.0,-2.9923,-2.9229,-2.8827,-2.8373,0.0,-2.6873,-2.6345,-2.5829,-2.6262,-2.6657,-2.6537,-2.9051,-3.1577,-3.3068,-3.4968,-3.6699,-3.7902,-3.908,-4.0691,-4.3048,-4.2735,-4.2591,-4.3265,-4.288,-4.2784,-4.3289,-4.3842,-4.4141,-4.4285,-4.4285,-4.4285,-4.4285,-4.4669,-4.5005,-4.5309,-4.5718,-4.6247,-4.6896,-4.6367,-4.6583,-4.7473,-4.6824,-4.6896,-4.7521,-4.781,-4.8291,-4.894,-4.9469,-4.9998,-5.0455,-5.0022,-4.9541,-4.9012,-4.8483,-4.7954,-4.7497,0.0,0.0,0.0,0.0,0.0,0.0,0.0,0.0,0.0,0.0,0.0,-1.7247,-1.7498,-1.7008,0.0,0.0,0.0,0.0,0.0,0.0,0.0,0.0,0.0,-1.8604,-1.9607,-2.0211,-2.1139,-2.239,-2.445,-2.5369,-2.5252,-2.6468,-2.6028,-2.4025,-2.1957,-2.0273,0.0,0.0,0.0,0.0,-1.8734,0.0,0.0,0.0,0.0,0.0,-1.8999,-1.8999,0.0,-1.9579,-1.9579,-1.9456,0.0,0.0,0.0,0.0,-2.162,-2.2486,-2.3529,-2.5827,-2.7835,-2.7475,-2.7516,-2.7422,-2.6697,-2.6898,-2.7162,-2.6911,-2.7657,-2.845,-2.8691,-3.1144,-3.3308,-3.3886,-3.5809,-3.7661,-3.8984,-4.0306,-4.1701,-4.3313,-4.2808,-4.2639,-4.3433,-4.3048,-4.2976,-4.3481,-4.4034,-4.4285,-4.4285,-4.4285,-4.4285,-4.4285,-4.5029,-4.5501,-4.5501,-4.603,-4.6439,-4.6704,-4.6175,-4.6343,-4.7112,-4.6583,-4.6776,-4.7521,-4.805,-4.8579,-4.9109,-4.9638,-5.0191,-5.0624,-4.983,-4.9325,-4.8988,-4.8219,-4.7738,-4.7497,0.0,0.0,0.0,0.0,0.0,0.0,0.0,0.0,0.0,0.0,0.0,0.0,0.0,0.0,0.0,0.0,0.0,0.0,0.0,0.0,0.0,0.0,-1.8409,-1.9478,-2.0494,-2.1321,-2.263,-2.441,-2.5492,-2.6502,-2.7378,-2.745,-2.6417,-2.4376,-2.1957,-2.0201,-1.9071,0.0,0.0,0.0,-1.8494,0.0,0.0,0.0,0.0,0.0,0.0,0.0,0.0,-2.0061,-2.0061,-1.9772,-2.0225,0.0,0.0,0.0,0.0,0.0,-2.3457,-2.4699,-2.5661,-2.6117,-2.6286,-2.6382,-2.655,-2.7368,-2.8114,-2.8186,-2.9268,-3.0422,-3.1163,-3.3068,-3.4534,-3.4486,-3.629,-3.8214,-3.9753,-4.1196,-4.2471,-4.3505,-4.312,-4.2988,-4.3361,-4.3,-4.2904,-4.3241,-4.3877,-4.4237,-4.4165,-4.4237,-4.4285,-4.4285,-4.5317,-4.5934,-4.5934,-4.6535,-4.68,-4.6704,-4.6175,-4.6199,-4.6704,-4.6175,-4.6511,-4.7521,-4.8147,-4.8628,-4.9012,-4.971,-5.0167,-5.0359,-4.9445,-4.9036,-4.8844,-4.7858,-4.7497,-4.7497,0.0,0.0,0.0,0.0,0.0,0.0,0.0,0.0,0.0,0.0,0.0,0.0,0.0,0.0,0.0,0.0,0.0,0.0,0.0,0.0,0.0,-1.7388,-1.8399,-1.9483,-2.0552,-2.2445,-2.3601,-2.3914,-2.756,-2.9436,-2.9605,-3.0062,-2.821,-2.4434,-2.2727,-2.1091,-1.9652,-1.9095,0.0,-1.8975,-1.8903,0.0,0.0,0.0,0.0,0.0,0.0,0.0,0.0,-1.9167,-1.9167,-1.9146,-1.9215,0.0,0.0,0.0,0.0,0.0,-2.3857,-2.5481,-2.6657,-2.6753,-2.7114,-2.7705,-2.8595,-2.9292,-2.9845,-3.0302,-3.0633,-3.1192,-3.2659,-3.326,-3.4222,-3.6362,-3.8503,-4.0306,-4.1437,-4.2265,-4.3024,-4.4045,-4.3361,-4.2843,-4.2916,-4.2867,-4.2675,-4.223,-4.3529,-4.4069,-4.3673,-4.4021,-4.4285,-4.4285,-4.5317,-4.5934,-4.5934,-4.6896,-4.7161,-4.6704,-4.6175,-4.6199,-4.6704,-4.6175,-4.6511,-4.7569,-4.8531,-4.8748,-4.8531,-4.9974,-5.0095,-4.9301,-4.9133,-4.8796,-4.8339,-4.7738,-4.7497,-4.7497,0.0,0.0,0.0,0.0,0.0,0.0,0.0,0.0,0.0,0.0,0.0,0.0,0.0,0.0,0.0,0.0,0.0,0.0,0.0,0.0,-1.7796,-1.8662,-1.9456,-2.037,-2.1452,-2.352,-2.5035,-2.5901,-2.9003,-3.0518,-3.0494,-2.9893,-2.7777,-2.4424,-2.2895,-2.1476,-2.0177,-1.9336,-1.8999,-1.8999,0.0,0.0,0.0,0.0,0.0,0.0,0.0,0.0,0.0,0.0,-1.9435,-1.9435,-1.9435,0.0,0.0,0.0,0.0,0.0,-2.328,-2.4843,-2.6225,-2.7114,-2.8402,-2.9701,-3.0783,-3.1432,-3.1961,-3.2491,-3.3044,-3.3669,-3.4414,-3.5256,-3.6411,-3.8214,-3.932,-4.0331,-4.1389,-4.2014,-4.2711,-4.377,-4.3216,-4.2976,-4.3553,-4.3337,-4.3192,-4.3241,-4.3877,-4.4165,-4.3986,-4.4141,-4.4285,-4.4285,-4.5317,-4.5934,-4.5934,-4.6968,-4.7088,-4.6295,-4.6054,-4.6054,-4.6271,-4.603,-4.6511,-4.7545,-4.8315,-4.8507,-4.8363,-4.9397,-4.9517,-4.9036,-4.8772,-4.8507,-4.8219,-4.769,-4.7497,-4.7545,0.0,0.0,0.0,0.0,0.0,0.0,0.0,0.0,0.0,0.0,0.0,0.0,0.0,0.0,0.0,0.0,0.0,0.0,0.0,-1.6811,-1.7965,-1.9167,-2.0346,-2.1596,-2.2895,-2.4867,-2.6719,-2.8474,-3.0591,-3.136,-3.0855,-2.9629,-2.7512,-2.465,-2.3328,-2.2005,-2.073,-1.9624,-1.9095,-1.8999,0.0,0.0,0.0,0.0,0.0,0.0,0.0,0.0,0.0,0.0,0.0,0.0,0.0,0.0,0.0,-2.0254,-2.0875,-2.1692,-2.2991,-2.4675,-2.6502,-2.8378,-2.9773,-3.1023,-3.2226,-3.3188,-3.3909,-3.4126,-3.5015,-3.5881,-3.6122,-3.7372,-3.8623,-3.9465,-3.9705,-4.0162,-4.122,-4.1725,-4.2351,-4.3385,-4.3072,-4.312,-4.3997,-4.377,-4.3649,-4.3962,-4.4141,-4.4237,-4.4093,-4.4213,-4.4285,-4.4285,-4.5317,-4.5934,-4.5934,-4.6968,-4.704,-4.6102,-4.5982,-4.5934,-4.5934,-4.5934,-4.6511,-4.7521,-4.805,-4.8363,-4.8507,-4.8916,-4.9012,-4.8844,-4.8459,-4.8219,-4.805,-4.7642,-4.7497,-4.7569,0.0,0.0,0.0,0.0,0.0,0.0,0.0,0.0,0.0,0.0,0.0,0.0,0.0,0.0,0.0,0.0,0.0,0.0,0.0,-1.6811,-1.746,-1.758,-2.0466,-2.3015,-2.5035,-2.6695,-2.857,-3.0681,-3.2779,-3.2803,-3.0922,-3.0802,-2.8763,-2.5228,-2.4626,-2.3232,-2.1284,-2.0177,-1.9459,-1.8999,-1.8999,0.0,0.0,0.0,0.0,0.0,0.0,0.0,0.0,0.0,0.0,0.0,0.0,0.0,-1.9143,-1.97,-2.0586,-2.1837,-2.3857,-2.631,-2.8907,-3.1504,-3.1144,-3.0567,-3.213,-3.403,-3.5328,-3.4823,-3.5617,-3.6651,-3.7637,-3.8743,-3.9513,-3.9585,-4.0018,-4.0715,-4.1774,-4.2,-4.2351,-4.3385,-4.3072,-4.2976,-4.3529,-4.3529,-4.3337,-4.2964,-4.3794,-4.4069,-4.3601,-4.3997,-4.4285,-4.4285,-4.5317,-4.5934,-4.5934,-4.6968,-4.7209,-4.6655,-4.615,-4.5934,-4.5934,-4.5934,-4.6511,-4.7521,-4.805,-4.8555,-4.9036,-4.906,-4.8796,-4.8339,-4.8315,-4.8002,-4.7545,-4.7521,-4.7497,-4.7569,0.0,0.0,0.0,0.0,0.0,0.0,0.0,0.0,0.0,0.0,0.0,0.0,0.0,0.0,0.0,0.0,0.0,0.0,0.0,-1.6979,-1.7845,-1.8831,-2.0706,-2.2991,-2.5733,-2.8041,-3.023,-3.237,-3.3454,-3.3308,-3.1865,-3.0855,-2.8739,-2.5757,-2.4915,-2.3544,-2.1813,-2.0398,-1.9507,-1.8999,-1.8999,-1.8999,0.0,0.0,0.0,0.0,0.0,0.0,0.0,0.0,-1.9411,-1.9483,-1.9336,-1.9411,-1.9576,-2.0129,-2.1524,-2.3183,-2.4626,-2.744,-3.0302,-3.1693,-3.2515,-3.338,-3.4631,-3.528,-3.5665,-3.5785,-3.6386,-3.7228,-3.831,-3.9104,-3.9705,-4.0042,-4.0547,-4.0908,-4.098,-4.1557,-4.211,-4.2519,-4.2952,-4.3433,-4.3986,-4.4034,-4.3901,-4.377,-4.4069,-4.4189,-4.3973,-4.4165,-4.4285,-4.4285,-4.5317,-4.5934,-4.5934,-4.6968,-4.7401,-4.7185,-4.6655,-4.6415,-4.6415,-4.6415,-4.6992,-4.7978,-4.7858,-4.8098,-4.8555,-4.8243,-4.7978,-4.781,-4.781,-4.7666,-4.7497,-4.7497,-4.7714,-4.8074,0.0,0.0,0.0,0.0,0.0,0.0,0.0,0.0,0.0,0.0,0.0,0.0,0.0,0.0,0.0,0.0,0.0,0.0,-1.6571,-1.7099,-1.8037,-1.948,-2.0899,-2.2895,-2.554,-2.8546,-3.1144,-3.3284,-3.3645,-3.2996,-3.1456,-3.0182,-2.8426,-2.631,-2.5024,-2.3737,-2.2342,-2.0735,-1.9652,-1.8999,-1.8999,-1.8999,0.0,0.0,0.0,0.0,0.0,0.0,0.0,0.0,-1.936,-1.9531,-1.9287,-1.9411,-1.9724,-2.061,-2.2366,-2.4314,-2.5685,-2.8667,-3.1601,-3.2442,-3.3765,-3.5112,-3.617,-3.6266,-3.6218,-3.6579,-3.7204,-3.7974,-3.8912,-3.9489,-4.0042,-4.0571,-4.0956,-4.1052,-4.0691,-4.1268,-4.1846,-4.2182,-4.2856,-4.3553,-4.4213,-4.4285,-4.4285,-4.4285,-4.4285,-4.4285,-4.4285,-4.4285,-4.4285,-4.4285,-4.5317,-4.5934,-4.5934,-4.6968,-4.7497,-4.7497,-4.7136,-4.6776,-4.6463,-4.6463,-4.6944,-4.7762,-4.7401,-4.7738,-4.8483,-4.7786,-4.7497,-4.7497,-4.7497,-4.7497,-4.7521,-4.769,-4.7978,-4.8387,0.0,0.0,0.0,0.0,0.0,0.0,0.0,0.0,0.0,0.0,0.0,0.0,0.0,0.0,0.0,0.0,0.0,0.0,-1.6571,-1.7099,-1.7893,-1.8927,-2.1043,-2.2895,-2.4424,-2.8162,-3.112,-3.3284,-3.3284,-3.1913,-2.9292,-2.8763,-2.7945,-2.6801,-2.5216,-2.3953,-2.2903,-2.1289,-1.9989,-1.8999,-1.8999,-1.8999,-1.8999,0.0,0.0,0.0,0.0,0.0,0.0,0.0,-1.9459,-1.9095,-1.9627,-1.9459,-1.9336,-2.0947,-2.2895,-2.4976,-2.7114,-3.0062,-3.2899,-3.4438,-3.4775,-3.5112,-3.617,-3.6819,-3.718,-3.7204,-3.807,-3.8984,-3.9513,-4.0042,-4.0571,-4.11,-4.1172,-4.1172,-4.1172,-4.1172,-4.1581,-4.2699,-4.2819,-4.3192,-4.4189,-4.4285,-4.4285,-4.4285,-4.4285,-4.4285,-4.4285,-4.4285,-4.4285,-4.4285,-4.5317,-4.5934,-4.5934,-4.6968,-4.7497,-4.7497,-4.7497,-4.6944,-4.5934,-4.5958,-4.6223,-4.6728,-4.6728,-4.7617,-4.8988,-4.793,-4.7497,-4.7497,-4.7497,-4.7497,-4.7569,-4.8098,-4.8291,-4.8459,0.0,0.0,0.0,0.0,0.0,0.0,0.0,0.0,0.0,0.0,0.0,0.0,0.0,0.0,0.0,0.0,0.0,0.0,-1.6571,-1.7099,-1.7724,-1.8398,-2.0129,-2.1476,-2.2318,-2.5973,-2.9653,-3.3284,-3.2923,-3.136,-2.8739,-2.857,-2.7344,-2.5192,-2.5131,-2.3881,-2.1813,-2.0971,-1.9985,-1.9023,-1.9411,-1.9338,-1.9023,0.0,0.0,0.0,0.0,0.0,0.0,0.0,0.0,0.0,-1.9314,-1.9889,-2.0851,-2.1716,-2.3713,-2.6093,-2.8258,-3.1144,-3.3742,-3.4558,-3.5112,-3.5569,-3.6242,-3.6242,-3.629,-3.7036,-3.807,-3.8864,-3.9032,-3.9777,-4.0451,-4.0595,-4.0932,-4.1052,-4.0691,-4.1268,-4.1846,-4.2217,-4.2856,-4.3577,-4.4213,-4.4285,-4.4285,-4.4285,-4.4285,-4.4285,-4.4285,-4.4285,-4.4285,-4.4285,-4.5317,-4.5934,-4.5934,-4.6968,-4.7497,-4.7497,-4.7497,-4.7329,-4.704,-4.7425,-4.7666,-4.7834,-4.7834,-4.8098,-4.8459,-4.7786,-4.7497,-4.7497,-4.7497,-4.7497,-4.7569,-4.8098,-4.8531,-4.894,0.0,0.0,0.0,0.0,0.0,0.0,0.0,0.0,0.0,0.0,-1.5804,-1.5804,0.0,0.0,0.0,0.0,0.0,0.0,-1.6571,-1.7099,-1.7724,-1.8494,-1.9648,-2.0827,-2.2005,-2.4819,-2.7657,-3.0446,-3.0975,-3.0086,-2.7897,-2.8089,-2.7224,-2.5457,-2.5588,-2.4506,-2.2582,-2.1644,-2.073,-1.9961,-2.0057,-1.9913,-1.9676,0.0,0.0,0.0,0.0,0.0,0.0,0.0,0.0,0.0,-1.8951,-1.9672,-2.0875,-2.3087,-2.5155,-2.7392,-3.0374,-3.2829,-3.4799,-3.5593,-3.5689,-3.5761,-3.629,-3.6314,-3.6411,-3.706,-3.807,-3.8888,-3.9104,-3.9826,-4.0475,-4.0667,-4.098,-4.1076,-4.0739,-4.1244,-4.1822,-4.2289,-4.2832,-4.3505,-4.4213,-4.4285,-4.4285,-4.4285,-4.4285,-4.4285,-4.4285,-4.4285,-4.4285,-4.4285,-4.5317,-4.5934,-4.5934,-4.6968,-4.7497,-4.7497,-4.7497,-4.7497,-4.7521,-4.7834,-4.7858,-4.7666,-4.7882,-4.7978,-4.7954,-4.7642,-4.7497,-4.7497,-4.7497,-4.7617,-4.7882,-4.8411,-4.894,-4.9469,0.0,0.0,0.0,0.0,0.0,0.0,0.0,0.0,0.0,-1.5708,-1.5804,-1.5804,0.0,0.0,0.0,-1.5804,-1.5804,-1.6018,-1.6499,-1.7027,-1.7796,-1.8806,-1.9456,-2.0783,-2.2903,-2.429,-2.5324,-2.5949,-2.8114,-2.8354,-2.6753,-2.7402,-2.733,-2.6657,-2.6238,-2.542,-2.429,-2.2775,-2.1813,-2.1284,-2.0851,-2.061,-2.0543,-2.0591,0.0,0.0,0.0,0.0,0.0,0.0,0.0,0.0,-1.8686,-1.9095,-2.0081,-2.4578,-2.6767,-2.8555,-3.2613,-3.4558,-3.5737,-3.6795,-3.6362,-3.5809,-3.629,-3.6819,-3.7204,-3.7252,-3.8094,-3.896,-3.9441,-4.0018,-4.0547,-4.1028,-4.1148,-4.1172,-4.1172,-4.1172,-4.1557,-4.2627,-4.2795,-4.3168,-4.4117,-4.4261,-4.4285,-4.4285,-4.4285,-4.4285,-4.4285,-4.4285,-4.4285,-4.4285,-4.5317,-4.5934,-4.5934,-4.6968,-4.7497,-4.7497,-4.7497,-4.7497,-4.7497,-4.7593,-4.7377,-4.6944,-4.7329,-4.7497,-4.7497,-4.7497,-4.7497,-4.7497,-4.7497,-4.7834,-4.8363,-4.8892,-4.9421,-4.995,0.0,0.0,0.0,0.0,0.0,0.0,0.0,0.0,-1.4787,-1.566,-1.5804,-1.5804,-1.5804,-1.5804,0.0,-1.5804,-1.5804,-1.5852,-1.5948,-1.6475,-1.7051,-1.7724,-1.9047,-2.0615,-2.2318,-2.2702,-2.352,-2.4832,-2.7007,-2.7224,-2.5685,-2.7042,-2.6729,-2.5024,-2.5348,-2.4675,-2.3232,-2.2077,-2.126,-2.0803,-2.1115,-2.0706,-2.0037,-2.0442,-1.96,0.0,0.0,0.0,0.0,0.0,0.0,0.0,-1.8782,-1.9865,-2.1332,-2.3616,-2.5901,-2.8282,-3.0855,-3.2947,-3.4583,-3.5689,-3.6098,-3.6266,-3.6386,-3.6819,-3.73,-3.7733,-3.8359,-3.8864,-3.896,-3.9753,-4.0427,-4.0547,-4.0908,-4.1172,-4.1172,-4.1172,-4.1413,-4.2062,-4.2554,-4.3,-4.3625,-4.4021,-4.4285,-4.4285,-4.4285,-4.4285,-4.4285,-4.4285,-4.4285,-4.4285,-4.5317,-4.5934,-4.5934,-4.6968,-4.7497,-4.7497,-4.7497,-4.7497,-4.7521,-4.8363,-4.8676,-4.8531,-4.781,-4.7497,-4.7497,-4.7497,-4.7497,-4.7497,-4.7497,-4.7834,-4.8363,-4.8892,-4.9421,-4.995,0.0,0.0,0.0,0.0,0.0,0.0,0.0,0.0,-1.4838,-1.5348,-1.542,-1.5325,-1.5103,-1.5079,0.0,0.0,-1.542,-1.5516,-1.578,-1.6307,-1.6955,-1.7748,-1.859,-1.9528,-2.0634,-2.1163,-2.1837,-2.263,-2.453,-2.5155,-2.4602,-2.6478,-2.6297,-2.4578,-2.5877,-2.5588,-2.4001,-2.2702,-2.2005,-2.1716,-2.1211,-2.0827,-2.0586,-2.0875,-2.0153,-1.8879,-1.835,0.0,0.0,0.0,0.0,0.0,0.0,0.0,-2.0803,-2.3664,-2.5661,-2.7633,-3.0783,-3.2466,-3.3622,-3.5232,-3.6386,-3.7084,-3.6843,-3.7204,-3.7637,-3.7926,-3.8214,-3.8575,-3.9104,-3.9657,-4.0186,-4.0691,-4.1004,-4.1172,-4.1172,-4.1172,-4.1389,-4.1976,-4.2506,-4.2952,-4.3457,-4.3949,-4.4285,-4.4285,-4.4285,-4.4285,-4.4285,-4.4285,-4.4285,-4.4285,-4.5317,-4.5934,-4.5934,-4.6968,-4.7497,-4.7497,-4.7497,-4.7762,-4.8267,-4.8315,-4.8603,-4.9012,-4.7954,-4.7497,-4.7497,-4.7497,-4.7497,-4.7521,-4.7786,-4.8195,-4.8724,-4.9253,-4.9806,-5.0311,0.0,0.0,0.0,0.0,0.0,0.0,0.0,0.0,0.0,-1.4866,-1.4869,-1.4722,-1.4349,-1.4321,-1.445,0.0,0.0,0.0,-1.5612,-1.6259,-1.7027,-1.8013,-1.8157,-1.8494,-1.9119,-2.0009,-2.0514,-2.0615,-2.1909,-2.2927,-2.3577,-2.5564,-2.5721,-2.4482,-2.6297,-2.6478,-2.5228,-2.3737,-2.3144,-2.3023,-2.1578,-2.1211,-2.1524,-2.1428,-2.0779,-1.9868,-1.9338,-1.8734,-1.8133,-1.77,0.0,0.0,0.0,0.0,-2.0009,-2.3809,-2.5468,-2.6983,-3.0999,-3.2539,-3.3452,-3.5184,-3.6747,-3.7733,-3.73,-3.7589,-3.7974,-3.7974,-3.7974,-3.831,-3.9417,-3.9609,-3.9946,-4.1004,-4.1172,-4.1172,-4.1172,-4.1172,-4.1341,-4.1774,-4.2434,-4.2928,-4.3337,-4.3962,-4.4237,-4.4141,-4.4237,-4.4237,-4.4141,-4.4237,-4.4285,-4.4285,-4.5221,-4.5838,-4.5934,-4.6896,-4.7425,-4.7497,-4.7593,-4.8098,-4.8916,-4.8026,-4.8171,-4.9012,-4.7954,-4.7497,-4.7497,-4.7497,-4.7497,-4.7545,-4.8074,-4.8603,-4.9133,-4.9662,-5.0215,-5.0696,0.0,0.0,0.0,0.0,0.0,0.0,0.0,0.0,0.0,0.0,-1.4397,-1.4373,-1.4321,-1.4321,-1.4325,-1.4397,-1.4397,-1.4618,-1.5085,0.0,0.0,-1.7459,-1.7965,-1.8662,-1.9676,-1.9844,-2.0129,-2.061,-2.0827,-2.1428,-2.2438,-2.4073,-2.4506,-2.3938,-2.4626,-2.5083,-2.5228,-2.4155,-2.3697,-2.3625,-2.2951,-2.2438,-2.2029,-2.1572,-2.1019,-2.0422,-1.9892,-1.9047,-1.8205,-1.8133,-1.8061,0.0,0.0,0.0,-2.0779,-2.2727,-2.4626,-2.6719,-2.9629,-3.2755,-3.5256,-3.5545,-3.6459,-3.7276,-3.7204,-3.7589,-3.7974,-3.7974,-3.7974,-3.831,-3.9417,-3.9609,-3.9946,-4.1004,-4.1172,-4.1172,-4.1172,-4.1172,-4.122,-4.1268,-4.2217,-4.2843,-4.2916,-4.377,-4.4093,-4.3649,-4.4021,-4.4069,-4.3649,-4.4021,-4.4285,-4.4285,-4.4861,-4.5453,-4.591,-4.6511,-4.704,-4.7521,-4.7954,-4.8267,-4.8387,-4.8243,-4.8507,-4.9012,-4.7954,-4.7497,-4.7497,-4.7497,-4.7497,-4.7545,-4.8074,-4.8603,-4.9133,-4.9662,-5.0215,-5.0696,0.0,0.0,0.0,0.0,0.0,0.0,0.0,0.0,0.0,0.0,0.0,-1.3746,-1.3433,-1.3409,-1.3529,-1.3819,-1.3843,-1.4185,-1.4965,-1.5444,-1.609,-1.6907,-1.6883,-1.7508,-1.8855,-1.8903,-1.9167,-1.9696,-2.061,-2.1452,-2.2221,-2.3207,-2.3857,-2.4194,-2.4434,-2.4819,-2.5228,-2.4251,-2.3794,-2.3746,-2.324,-2.3376,-2.3833,-2.2702,-2.3063,-2.3905,-2.2197,-2.1284,-2.073,-1.9868,-1.917,-1.8734,-1.9263,0.0,0.0,0.0,-2.3159,-2.518,-2.9051,-3.237,-3.4895,-3.5833,-3.6627,-3.7276,-3.7565,-3.7589,-3.7637,-3.7926,-3.7974,-3.8238,-3.9008,-3.9417,-3.985,-4.0619,-4.098,-4.1172,-4.1172,-4.1172,-4.1172,-4.1172,-4.1846,-4.2506,-4.2795,-4.3192,-4.3601,-4.3901,-4.3914,-4.4034,-4.4395,-4.4309,-4.4429,-4.4717,-4.5245,-4.5694,-4.5934,-4.6752,-4.7281,-4.7497,-4.7738,-4.8002,-4.8291,-4.7978,-4.8147,-4.8603,-4.7834,-4.7497,-4.7497,-4.7497,-4.7666,-4.8002,-4.8531,-4.906,-4.9589,-5.0143,-5.0503,-5.0696,0.0,0.0,0.0,0.0,0.0,0.0,0.0,0.0,0.0,0.0,0.0,-1.3553,-1.3143,0.0,0.0,0.0,-1.3385,-1.3679,-1.4577,-1.4746,-1.5178,-1.5993,-1.561,-1.609,-1.758,-1.7724,-1.8133,-1.8782,-2.0129,-2.1332,-2.2414,-2.2799,-2.3761,-2.5072,-2.4664,-2.4712,-2.5083,-2.4578,-2.4468,-2.4554,-2.429,-2.4891,-2.5805,-2.4771,-2.5612,-2.7018,-2.4939,-2.3833,-2.3159,-2.1867,-2.0519,-1.948,-1.9865,-1.9624,0.0,0.0,0.0,-2.4578,-2.8282,-3.1312,-3.3813,-3.54,-3.6314,-3.7012,-3.7805,-3.7685,-3.7517,-3.7902,-3.7974,-3.8118,-3.8527,-3.9152,-3.9777,-4.0306,-4.0836,-4.1172,-4.1172,-4.1172,-4.1172,-4.1172,-4.1653,-4.2241,-4.2771,-4.3,-4.3433,-4.4021,-4.413,-4.4371,-4.4837,-4.4621,-4.4717,-4.5309,-4.5597,-4.5862,-4.6126,-4.704,-4.7497,-4.7497,-4.7642,-4.7834,-4.8074,-4.781,-4.7834,-4.8074,-4.7666,-4.7497,-4.7497,-4.7497,-4.781,-4.8339,-4.8868,-4.9397,-4.9926,-5.0503,-5.0696,-5.0696,0.0,0.0,0.0,0.0,0.0,0.0,0.0,0.0,0.0,0.0,0.0,-1.4248,-1.4205,-1.377,-1.3457,-1.3505,-1.3047,-1.2975,-1.3553,-1.406,-1.4349,-1.4422,-1.4397,0.0,-1.59,-1.6427,-1.7195,-1.8253,-1.8831,-2.0418,-2.2975,-2.2999,-2.4362,-2.6705,-2.5168,-2.4496,-2.4592,-2.5564,-2.6286,-2.6777,-2.7234,-2.7498,-2.7594,-2.8065,-2.8306,-2.8354,-2.7705,-2.6129,-2.4362,-2.3818,-2.2221,-2.0509,-2.0562,-2.0177,-1.9989,0.0,0.0,0.0,-2.6849,-2.9388,-3.2178,-3.3718,-3.4895,-3.6098,-3.7637,-3.795,-3.795,-3.7974,-3.7974,-3.7998,-3.8022,-3.8888,-3.9777,-4.0306,-4.0836,-4.1172,-4.1172,-4.1172,-4.1172,-4.1172,-4.1653,-4.2241,-4.2771,-4.3673,-4.3997,-4.3601,-4.4948,-4.5381,-4.4381,-4.4765,-4.5269,-4.5862,-4.5366,-4.5645,-4.6655,-4.7233,-4.7497,-4.7521,-4.8002,-4.8002,-4.7569,-4.8026,-4.8002,-4.7545,-4.7521,-4.7497,-4.7497,-4.7497,-4.781,-4.8339,-4.8868,-4.9397,-4.9926,-5.0503,-5.0696,-5.0696,0.0,0.0,0.0,0.0,0.0,0.0,0.0,0.0,0.0,0.0,0.0,0.0,0.0,-1.5608,-1.5632,-1.5969,-1.5199,-1.4502,-1.4036,-1.418,-1.4321,-1.4321,-1.4594,-1.5082,-1.578,-1.6667,-1.7459,-1.8205,-1.9071,-2.0514,-2.2486,-2.2486,-2.3352,-2.4891,-2.4626,-2.4664,-2.5035,-2.5083,-2.5168,-2.5505,-2.7464,-2.8643,-2.9268,-2.9436,-3.0374,-3.1384,-2.9797,-2.8306,-2.6887,-2.5685,-2.3857,-2.2077,-2.174,-2.1019,-2.0466,-2.1187,-2.2438,-2.4001,-2.5877,-2.7993,-3.0182,-3.2491,-3.4102,-3.5449,-3.6675,-3.7228,-3.7565,-3.7902,-3.8262,-3.8527,-3.8527,-3.9104,-3.9777,-4.0306,-4.0836,-4.1293,-4.1653,-4.1677,-4.1557,-4.122,-4.1653,-4.2241,-4.2771,-4.312,-4.3673,-4.4491,-4.4717,-4.4981,-4.5269,-4.5149,-4.5381,-4.591,-4.6078,-4.6487,-4.7209,-4.7064,-4.6992,-4.6992,-4.7185,-4.7185,-4.7016,-4.7545,-4.769,-4.7497,-4.7497,-4.7497,-4.7497,-4.7497,-4.8002,-4.882,-4.9012,-4.9614,-5.0431,-5.0624,-5.0696,-5.0696,0.0,0.0,0.0,0.0,0.0,-1.4502,-1.5157,-1.5564,-1.5924,-1.6307,0.0,0.0,0.0,0.0,-1.6667,-1.6859,-1.6211,-1.5442,-1.4594,-1.4397,-1.4321,-1.4321,-1.4598,-1.501,-1.5516,-1.6235,-1.7027,-1.7941,-1.8638,-1.9985,-2.1933,-2.1933,-2.2678,-2.4025,-2.4001,-2.429,-2.4771,-2.4602,-2.4723,-2.5276,-2.7969,-2.9556,-3.0446,-3.1336,-3.2442,-3.3356,-3.1937,-3.0615,-2.9388,-2.8114,-2.655,-2.4915,-2.3833,-2.2534,-2.1524,-2.2053,-2.2318,-2.2919,-2.5011,-2.6622,-2.8306,-3.0807,-3.2875,-3.4631,-3.5857,-3.6964,-3.7781,-3.795,-3.8431,-3.8767,-3.8575,-3.9128,-3.9826,-4.0547,-4.11,-4.1629,-4.2217,-4.2289,-4.2169,-4.1749,-4.2073,-4.2447,-4.2952,-4.3337,-4.3986,-4.5005,-4.5077,-4.5317,-4.5886,-4.5534,-4.5549,-4.591,-4.6439,-4.6872,-4.7233,-4.6896,-4.6704,-4.6704,-4.6704,-4.6704,-4.6728,-4.7257,-4.7497,-4.7497,-4.7497,-4.7497,-4.7521,-4.769,-4.8291,-4.9084,-4.9277,-4.9902,-5.0696,-5.0696,-5.0696,-5.0696,0.0,0.0,0.0,0.0,-1.5151,-1.5828,-1.5876,-1.6787,-1.746,-1.7508,0.0,0.0,0.0,0.0,0.0,-1.5972,-1.5924,-1.566,-1.5085,-1.4618,-1.4325,-1.4321,-1.4301,-1.4546,-1.4989,-1.5037,-1.5804,-1.7388,-1.7387,-1.8756,-2.1332,-2.1356,-2.2462,-2.441,-2.34,-2.3288,-2.3842,-2.4314,-2.5131,-2.631,-2.9027,-3.0422,-3.1235,-3.3837,-3.4486,-3.403,-3.403,-3.3068,-3.1693,-3.1163,-3.0206,-2.8931,-2.6767,-2.4699,-2.3168,-2.3649,-2.3408,-2.3207,0.0,0.0,0.0,-2.8739,-3.1264,-3.3645,-3.5208,-3.7228,-3.8623,-3.807,-3.8431,-3.8671,-3.8118,-3.8912,-3.997,-4.1028,-4.1629,-4.2193,-4.2723,-4.2819,-4.2819,-4.2795,-4.2819,-4.2976,-4.3457,-4.4491,-4.5077,-4.5101,-4.6126,-4.6487,-4.5982,-4.5934,-4.5934,-4.5958,-4.6439,-4.6704,-4.6704,-4.6704,-4.668,-4.668,-4.668,-4.668,-4.6704,-4.7257,-4.7497,-4.7497,-4.7497,-4.7497,-4.7545,-4.8074,-4.8603,-4.9133,-4.9662,-5.0215,-5.0696,-5.0696,-5.0696,-5.0696,0.0,0.0,0.0,-1.5274,-1.5946,-1.6763,-1.7941,-1.8374,-1.8831,0.0,0.0,0.0,-2.0249,-2.0514,-2.0298,-1.9333,-1.8927,-1.7965,-1.6283,-1.5658,-1.5055,-1.4325,-1.4622,-1.4866,-1.5013,-1.5756,-1.6379,-1.6811,-1.7604,-1.8566,-1.9672,-2.0057,-2.1163,-2.2799,-2.2149,-2.2558,-2.3842,-2.4314,-2.4915,-2.5829,-2.9268,-3.1019,-3.1789,-3.439,-3.5304,-3.5184,-3.5184,-3.439,-3.3308,-3.2803,-3.1144,-2.8931,-2.6767,-2.5444,-2.4458,-2.3529,-2.3144,-2.3071,-2.3328,0.0,0.0,0.0,0.0,0.0,-3.4102,-3.6122,-3.7589,-3.7445,-3.8455,-3.9345,-3.9176,-3.9705,-4.0403,-4.1076,-4.1317,-4.1581,-4.2169,-4.2578,-4.2675,-4.2289,-4.2856,-4.3361,-4.3505,-4.4491,-4.5221,-4.5669,-4.6343,-4.6655,-4.6511,-4.6126,-4.6102,-4.6487,-4.6631,-4.6704,-4.6704,-4.6343,-4.615,-4.615,-4.615,-4.615,-4.6175,-4.7088,-4.7497,-4.7497,-4.7497,-4.7497,-4.7545,-4.8074,-4.8603,-4.9133,-4.9662,-5.0215,-5.0696,-5.0696,-5.0696,-5.0696,0.0,0.0,-1.5564,-1.6331,-1.7484,-1.8422,-1.8927,-1.9744,-2.0394,0.0,0.0,0.0,-2.1043,-2.174,-2.1765,-2.0677,-2.0105,-1.9167,-1.77,-1.6883,-1.6113,-1.5293,-1.5514,-1.5564,-1.5348,-1.5732,-1.6163,-1.6595,-1.7003,-1.7604,-1.835,-1.8879,-1.9865,-2.1187,-2.1332,-2.2173,-2.3577,-2.4939,-2.5409,-2.5612,-2.9124,-3.0898,-3.1717,-3.4775,-3.5809,-3.5641,-3.5857,-3.5545,-3.4944,-3.4438,-3.2491,-3.0182,-2.9605,-2.7825,-2.5817,-2.5155,-2.4169,-2.3384,-2.3568,-2.3905,-2.4675,-2.6671,0.0,0.0,-3.2996,-3.5208,-3.6988,-3.7421,-3.8455,-3.9272,-3.9272,-3.9537,-3.9994,-4.0739,-4.0667,-4.086,-4.1846,-4.2289,-4.2471,-4.2591,-4.3144,-4.3601,-4.3842,-4.4573,-4.5197,-4.5573,-4.6078,-4.6391,-4.6391,-4.5886,-4.5742,-4.6054,-4.6054,-4.6054,-4.6054,-4.5742,-4.5597,-4.5597,-4.5814,-4.5934,-4.5958,-4.7016,-4.7497,-4.7497,-4.7497,-4.7497,-4.7569,-4.8315,-4.8796,-4.9157,-4.9926,-5.0407,-5.0696,-5.0696,-5.0696,-5.0696,0.0,0.0,-1.6331,-1.7387,-1.9239,-2.0326,-1.948,-2.0971,-2.1885,0.0,-2.0798,-2.0803,-2.0803,-2.1644,-2.1813,-2.0846,-2.0322,-1.9844,-1.9287,-1.8253,-1.7387,-1.6811,-1.6667,-1.6355,-1.5804,-1.5325,-1.5564,-1.6523,-1.6092,-1.6379,-1.7315,-1.7917,-1.8806,-1.9941,-2.0947,-2.2053,-2.3304,-2.5697,-2.6297,-2.5949,-2.9148,-3.0711,-3.1529,-3.5136,-3.6122,-3.5689,-3.6218,-3.6411,-3.6314,-3.5737,-3.4006,-3.2343,-3.3428,-3.086,-2.7522,-2.757,-2.6021,-2.4275,-2.4386,-2.4097,-2.4059,-2.5131,-2.7224,0.0,-3.1745,-3.4126,-3.617,-3.7252,-3.795,-3.8407,-3.8527,-3.8551,-3.8912,-4.0042,-3.9777,-3.9994,-4.1653,-4.1822,-4.2182,-4.3216,-4.3337,-4.3553,-4.4069,-4.4573,-4.4909,-4.4981,-4.5645,-4.6006,-4.6006,-4.5573,-4.5221,-4.5149,-4.5149,-4.5125,-4.5077,-4.5077,-4.5077,-4.5077,-4.5669,-4.5934,-4.5958,-4.7016,-4.7497,-4.7497,-4.7497,-4.7497,-4.7569,-4.8652,-4.9084,-4.9181,-5.0287,-5.0696,-5.0696,-5.0696,-5.0696,-5.0696,-1.5466,-1.6427,-1.7436,-1.8494,-1.9744,-2.0827,-2.1476,-2.1933,-2.227,-2.2486,-2.2149,-2.1885,-2.1885,-2.2077,-2.2101,-2.1909,-2.1789,-2.15,-2.0971,-1.9913,-1.8879,-1.7941,-1.7051,-1.6355,-1.5804,-1.5684,-1.5732,-1.5948,-1.6283,-1.6547,-1.6787,-1.7748,-1.8999,-2.047,-2.1115,-2.2462,-2.429,-2.5228,-2.6502,-2.8162,-3.1384,-3.2731,-3.3116,-3.5954,-3.6435,-3.5689,-3.6218,-3.6411,-3.6266,-3.5304,-3.4919,-3.4535,-3.2707,-3.1793,-3.0855,-2.7906,-2.6994,-2.6502,-2.4458,-2.3866,-2.4155,-2.5588,-2.6671,0.0,-3.0086,-3.1625,-3.2899,-3.3982,-3.4944,-3.5857,-3.6723,-3.6867,-3.7372,-3.8888,-3.8647,-3.9008,-4.1052,-4.098,-4.11,-4.2158,-4.2279,-4.2471,-4.3024,-4.3529,-4.401,-4.4405,-4.579,-4.6559,-4.6559,-4.6463,-4.6199,-4.579,-4.5766,-4.5573,-4.5077,-4.5077,-4.5077,-4.5077,-4.5669,-4.5934,-4.5958,-4.7016,-4.7497,-4.7497,-4.7497,-4.7497,-4.7569,-4.8652,-4.9084,-4.9181,-5.0287,-5.0696,-5.0696,-5.0696,-5.0696,-5.0696,-1.6042,-1.7051,-1.8229,-1.9576,-2.0682,-2.1668,-2.2493,-2.283,-2.3159,-2.3688,-2.3761,-2.364,-2.3376,-2.3592,-2.3544,-2.3015,-2.3023,-2.2782,-2.2221,-2.1428,-2.0422,-1.9047,-1.8229,-1.7291,-1.6235,-1.5946,-1.5804,-1.5804,-1.6068,-1.6355,-1.6619,-1.7411,-1.936,-2.218,-2.1909,-2.3544,-2.6574,-2.7368,-2.8474,-2.9869,-3.2034,-3.3212,-3.3958,-3.6579,-3.7084,-3.6483,-3.7012,-3.7012,-3.6723,-3.6194,-3.5833,-3.5425,-3.4366,-3.3501,-3.237,-2.9677,-2.8522,-2.7584,-2.518,-2.4203,-2.4059,-2.5059,-2.5481,0.0,0.0,-3.011,-3.1235,-3.2295,-3.3525,-3.4631,-3.5473,-3.5617,-3.605,-3.7397,-3.7589,-3.7878,-3.8695,-3.9729,-4.0787,-4.1846,-4.1966,-4.2241,-4.2771,-4.2976,-4.3361,-4.389,-4.4924,-4.5645,-4.591,-4.5934,-4.5814,-4.5549,-4.5221,-4.4957,-4.4669,-4.4669,-4.4813,-4.5077,-4.5669,-4.6054,-4.6343,-4.7136,-4.7497,-4.7497,-4.7497,-4.7642,-4.7954,-4.8748,-4.9229,-4.9565,-5.0383,-5.0696,-5.0696,-5.0696,-5.0696,-5.0696,-1.6691,-1.746,-1.859,-2.0298,-2.1404,-2.2246,-2.2895,-2.3457,-2.3986,-2.4458,-2.5083,-2.53,-2.4867,-2.5396,-2.5396,-2.4458,-2.4516,-2.43,-2.3649,-2.3183,-2.2318,-2.0899,-1.9868,-1.8734,-1.7555,-1.6595,-1.6066,-1.5948,-1.5948,-1.6187,-1.6619,-1.7339,-1.9672,-2.3168,-2.3015,-2.4723,-2.7873,-2.9629,-3.0609,-3.1043,-3.2491,-3.3717,-3.4847,-3.7252,-3.7805,-3.7397,-3.7709,-3.7493,-3.7084,-3.7276,-3.6771,-3.6122,-3.6338,-3.5376,-3.3765,-3.1693,-3.011,-2.8619,-2.6262,-2.4939,-2.4314,-2.4723,-2.4712,-2.53,0.0,0.0,0.0,-3.073,-3.1937,-3.2997,-3.3789,-3.3862,-3.427,-3.5328,-3.593,-3.617,-3.5857,-3.7926,-3.9898,-4.1076,-4.1485,-4.1798,-4.211,-4.2904,-4.3337,-4.3216,-4.4299,-4.4957,-4.5053,-4.5077,-4.5125,-4.5221,-4.4717,-4.4381,-4.4285,-4.4285,-4.4549,-4.5077,-4.5669,-4.6199,-4.6728,-4.7257,-4.7497,-4.7497,-4.7497,-4.781,-4.8339,-4.8868,-4.9397,-4.9926,-5.0479,-5.0696,-5.0696,-5.0696,-5.0696,-5.0696,-1.7387,-1.7387,-1.8157,-2.0254,-2.1091,-2.1837,-2.2855,-2.3457,-2.3986,-2.4458,-2.5396,-2.5997,-2.5925,-2.6839,-2.7186,-2.6585,-2.697,-2.6839,-2.5805,-2.5685,-2.5372,-2.4699,-2.1964,-2.0567,-2.0851,-1.847,-1.6979,-1.6523,-1.6523,-1.6547,-1.6643,-1.8133,-1.9603,-2.1097,-2.4242,-2.5396,-2.5252,-2.9629,-3.1284,-3.112,-3.4078,-3.5905,-3.6964,-3.8238,-3.8383,-3.7829,-3.7421,-3.694,-3.6651,-3.7589,-3.7805,-3.7565,-3.6675,-3.6892,-3.6675,-3.2777,-3.15,-3.0639,-2.7584,-2.631,-2.5853,-2.5901,-2.5564,-2.5564,-2.6777,0.0,-2.6863,-2.7945,0.0,-2.8883,-3.035,0.0,0.0,-3.2078,-3.2683,-3.3164,-3.3573,-3.5088,-3.6723,-3.8262,-3.9705,-4.0403,-3.9994,-4.3361,-4.4611,-4.2327,-4.5237,-4.6559,-4.5149,-4.5077,-4.5357,-4.5814,-4.5269,-4.4765,-4.4285,-4.4285,-4.4549,-4.5077,-4.5669,-4.6199,-4.6728,-4.7257,-4.7497,-4.7497,-4.7497,-4.781,-4.8339,-4.8868,-4.9397,-4.9926,-5.0479,-5.0696,-5.0696,-5.0696,-5.0696,-5.0696,-1.7845,-1.8109,-1.8903,-2.073,-2.1235,-2.1861,-2.3264,-2.4386,-2.5204,-2.5396,-2.6647,-2.7609,-2.7921,-2.8354,-2.8546,-2.833,-2.8787,-2.8643,-2.756,-2.7488,-2.6719,-2.4904,-2.2991,-2.1675,-2.0952,-1.9528,-1.8518,-1.7989,-1.7989,-1.7989,-1.8013,-1.8999,-2.0856,-2.3424,-2.5612,-2.7368,-2.8859,-3.1793,-3.3789,-3.5112,-3.6459,-3.819,-3.985,-3.8743,-3.819,-3.7902,-3.7372,-3.7252,-3.7348,-3.7469,-3.8142,-3.8743,-3.7661,-3.8262,-3.8719,-3.54,-3.4198,-3.3404,-3.0855,-2.9532,-2.8715,-2.8114,-2.756,-2.72,-2.7306,-2.6719,-2.6142,-2.6286,0.0,0.0,0.0,0.0,0.0,0.0,-3.1072,0.0,0.0,0.0,-3.5304,-3.6867,0.0,0.0,-3.9994,-4.2495,-4.3625,-4.2578,-4.4443,-4.5237,-4.4251,-4.4202,-4.4443,-4.4933,-4.4741,-4.4501,-4.4285,-4.4285,-4.4717,-4.5597,-4.5814,-4.6367,-4.7185,-4.7401,-4.7497,-4.7497,-4.7497,-4.7978,-4.8772,-4.8988,-4.9589,-5.0383,-5.06,-5.0696,-5.0696,-5.0696,-5.0696,-5.0744,-1.8398,-1.8614,-1.9287,-2.0899,-2.1187,-2.1765,-2.3529,-2.5228,-2.6382,-2.6526,-2.845,-2.9845,-2.9941,-3.035,-3.0591,-3.0591,-3.0831,-3.0567,-2.9653,-2.9869,-2.9027,-2.6815,-2.5011,-2.364,-2.2782,-2.1121,-1.9961,-1.9432,-1.9287,-1.9143,-1.8999,-1.9841,-2.1668,-2.4314,-2.6249,-2.8426,-3.0735,-3.3212,-3.5352,-3.718,-3.7902,-3.9296,-4.0691,-3.9056,-3.8238,-3.7926,-3.7541,-3.7565,-3.7757,-3.7661,-3.831,0.0,-3.8238,-3.8888,-3.9465,-3.694,-3.593,-3.5184,-3.3236,-3.1913,-3.0995,-3.0326,-2.9653,-2.9051,-2.8667,-2.7753,-2.6743,-2.5925,-2.5925,0.0,0.0,0.0,0.0,0.0,0.0,-2.9653,0.0,-3.0807,0.0,0.0,0.0,0.0,0.0,-4.2086,-4.3337,-4.2651,-4.4202,-4.4708,-4.3577,-4.3505,-4.377,-4.4261,-4.4429,-4.4429,-4.4285,-4.4285,-4.4813,-4.5934,-4.5934,-4.6487,-4.7497,-4.7497,-4.7497,-4.7497,-4.7497,-4.8098,-4.9084,-4.9084,-4.971,-5.0696,-5.0696,-5.0696,-5.0696,-5.0696,-5.0696,-5.0792,-1.9167,-1.8566,-1.8734,-2.0317,-2.0634,-2.1356,-2.3481,-2.5564,-2.7042,-2.757,-3.0855,-3.2731,-3.1741,-3.2971,-3.3838,-3.3838,-3.3452,-3.2947,-3.2418,-3.3262,-3.3334,-3.2298,-2.8723,-2.7234,-2.8234,-2.3737,-2.1091,-2.0562,-2.0033,-1.9531,-1.9023,-2.061,-2.1404,-2.1716,-2.5817,-2.7714,-2.8122,-3.2781,-3.4799,-3.5111,-3.7757,-3.8503,-3.8214,-3.92,-3.8912,-3.7974,-3.7974,0.0,0.0,-3.8407,-3.8431,0.0,0.0,0.0,0.0,-3.629,-3.5641,-3.528,-3.3693,-3.2466,-3.1813,-3.2274,-3.1601,-3.085,-3.0783,-2.9965,-2.8763,0.0,0.0,0.0,0.0,0.0,0.0,0.0,0.0,0.0,0.0,0.0,0.0,0.0,0.0,0.0,0.0,-4.276,-4.4756,0.0,-4.5357,0.0,-4.3649,-4.3505,-4.377,-4.4261,-4.4789,-4.4813,-4.4285,-4.4285,-4.4813,-4.5934,-4.5934,-4.6487,-4.7497,-4.7497,-4.7497,-4.7497,-4.7497,-4.8098,-4.9084,-4.9084,-4.971,-5.0696,-5.0696,-5.0696,-5.0696,-5.0696,-5.0696,-5.0792,-1.9143,-1.8855,-1.9119,-2.0394,-2.1187,-2.2366,-2.4458,-2.5685,-2.6959,-2.857,-3.047,-3.2082,-3.3116,-3.3428,-3.3669,-3.3958,-3.415,-3.3933,-3.3068,-3.3669,-3.3214,-3.1504,-2.9196,-2.7825,-2.745,-2.4808,-2.3039,-2.2173,-2.1644,-2.1115,-2.061,-2.15,-2.2125,-2.2606,-2.6502,-2.9027,-3.0494,-3.3118,-3.6146,-3.908,-3.9633,-3.9537,-3.8984,-3.8286,-3.7998,-3.7974,-3.7974,-3.7853,0.0,-3.8142,-3.8623,-3.8936,-3.8214,-3.8839,-3.9585,-3.8166,-3.7469,-3.706,0.0,0.0,-3.5208,-3.4679,0.0,-3.4703,-3.3284,-3.1889,0.0,0.0,0.0,0.0,0.0,0.0,0.0,0.0,0.0,0.0,0.0,0.0,0.0,0.0,0.0,0.0,0.0,0.0,0.0,0.0,0.0,0.0,-4.2615,-4.3481,-4.3925,-4.3794,-4.4659,-4.4981,-4.4813,-4.4453,-4.4645,-4.5342,-4.5766,-4.6295,-4.6992,-4.7353,-4.7497,-4.7497,-4.7497,-4.8098,-4.9084,-4.9084,-4.971,-5.0696,-5.0696,-5.0696,-5.0696,-5.0696,-5.0696,-5.084,-1.9215,-1.9314,-1.9841,-2.073,-2.2077,-2.3544,-2.5083,-2.655,-2.8089,-2.9653,-3.1432,-3.302,-3.415,-3.4198,-3.4246,-3.451,-3.4871,-3.5064,-3.4968,-3.4919,-3.4438,-3.3499,-3.1168,-2.9701,-2.9196,-2.6502,-2.4747,-2.4097,-2.2823,-2.1933,-2.1428,-2.2125,-2.2654,-2.3144,-2.6262,-2.9244,-3.2034,-3.3044,-3.6146,-4.0282,-3.9561,-3.9176,-3.8912,0.0,-3.8046,-3.8815,0.0,-3.8551,-3.8551,-3.8551,-3.8912,-3.9176,-3.8262,-3.8695,-3.9369,-3.8503,-3.8118,-3.795,-3.7757,-3.73,0.0,-3.6531,-3.6819,0.0,-3.5713,0.0,-3.2947,0.0,0.0,0.0,0.0,0.0,0.0,0.0,0.0,0.0,0.0,-2.5636,0.0,0.0,0.0,0.0,0.0,0.0,0.0,0.0,0.0,0.0,0.0,0.0,-4.3697,-4.3529,-4.4395,-4.4885,-4.5077,-4.4549,-4.4549,-4.5077,-4.5669,-4.6199,-4.6728,-4.7257,-4.7497,-4.7497,-4.7497,-4.8098,-4.9084,-4.9084,-4.971,-5.0696,-5.0696,-5.0696,-5.0696,-5.0696,-5.0936,-5.1369,-1.9528,-1.9989,-2.0904,-2.1452,-2.3232,-2.476,-2.5348,-2.8114,-3.035,-3.0879,-3.3621,-3.5376,-3.4895,-3.5328,-3.5617,-3.5617,-3.5665,-3.629,-3.7733,-3.6964,-3.6867,-3.7781,-3.4463,-3.2779,-3.3236,-2.8643,-2.6214,-2.6093,-2.3544,-2.2029,-2.15,-2.2486,-2.3023,-2.3168,-2.5155,-2.845,-3.2491,-3.2466,-3.4895,-3.8647,-3.7661,-3.7613,-3.8094,-3.8094,-3.908,-4.0403,-3.9801,-3.9609,-3.9609,-3.9609,-3.9272,-3.8767,-3.8238,-3.807,-3.7974,-3.7469,-3.7637,-3.7926,-3.7421,-3.6892,-3.6723,-3.7733,-3.7637,0.0,0.0,0.0,-3.6194,0.0,0.0,0.0,0.0,0.0,0.0,0.0,0.0,0.0,0.0,0.0,0.0,0.0,0.0,0.0,0.0,0.0,0.0,0.0,0.0,0.0,0.0,-4.294,-4.3144,-4.3577,-4.4045,-4.4573,-4.5101,-4.4573,-4.4549,-4.5053,-4.5645,-4.6199,-4.668,-4.7257,-4.7497,-4.7497,-4.7497,-4.8098,-4.9084,-4.9084,-4.971,-5.0696,-5.0696,-5.0696,-5.0696,-5.0696,-5.1369,-5.2283,-2.1043,-2.1644,-2.2654,-2.3568,-2.4819,-2.6021,-2.6959,-2.946,-3.1456,-3.201,-3.3452,-3.4799,-3.5881,-3.5785,-3.5617,-3.5617,-3.6338,-3.6459,-3.5689,-3.6483,-3.6579,-3.5689,-3.4318,-3.3356,-3.2707,-2.9917,-2.7705,-2.6093,-2.4626,-2.3472,-2.2614,-2.2462,-2.3015,-2.4169,-2.5107,-2.8114,-3.2466,-3.2058,-3.4102,-3.7661,-3.819,-3.896,-3.9777,0.0,-4.0523,-4.1389,-4.009,-3.9609,-3.9609,-3.9609,-3.9513,-3.9369,-3.9224,-3.92,-3.9152,-3.9032,-3.8815,-3.8575,-3.8431,-3.7998,-3.7637,-3.7902,-3.8503,-3.8912,0.0,0.0,0.0,0.0,0.0,0.0,0.0,0.0,0.0,0.0,0.0,0.0,0.0,0.0,0.0,0.0,0.0,0.0,0.0,0.0,0.0,0.0,0.0,0.0,0.0,0.0,-4.5405,-4.4732,-4.4789,-4.5125,-4.5718,-4.4741,-4.4357,-4.4501,-4.5414,-4.6006,-4.615,-4.7088,-4.7497,-4.7497,-4.7497,-4.8098,-4.9084,-4.9084,-4.971,-5.0696,-5.0696,-5.0696,-5.0696,-5.0696,-5.1369,-5.2283,-2.1692,-2.2438,-2.3809,-2.5264,-2.7031,-2.8234,-2.8378,-3.0663,-3.2899,-3.4366,-3.4847,-3.5761,-3.7613,-3.6699,-3.5954,-3.5954,-3.6723,-3.7012,-3.6603,-3.6747,-3.6771,-3.6579,-3.5351,-3.4414,-3.3885,-3.1793,-2.9749,-2.7849,-2.655,-2.5131,-2.364,-2.3592,-2.4145,-2.5252,-2.6021,-2.8787,-3.2923,-3.3982,-3.5641,-3.7613,-3.8479,-3.9176,0.0,-4.021,-4.0763,-4.1196,-4.0547,-4.0282,-4.0282,-4.0282,-4.0138,-3.9946,-3.9946,-3.9801,-3.9609,-3.9609,-3.9393,-3.9176,-3.9176,-3.8767,-3.8455,-3.8912,-3.932,-3.9585,-3.9513,-3.908,-3.8671,0.0,-3.6892,-3.5689,0.0,0.0,0.0,0.0,0.0,0.0,0.0,0.0,0.0,0.0,0.0,0.0,0.0,0.0,0.0,0.0,0.0,0.0,0.0,0.0,-4.4683,-4.4717,-4.5237,-4.5558,-4.5934,-4.5549,-4.5077,-4.4645,-4.5525,-4.5934,-4.5958,-4.7016,-4.7497,-4.7497,-4.7497,-4.8098,-4.9084,-4.9084,-4.971,-5.0696,-5.0696,-5.0696,-5.0696,-5.0696,-5.1369,-5.2283,-2.2582,-2.3352,-2.4939,-2.6946,-2.9412,-3.0807,-2.9941,-3.2034,-3.4463,-3.6603,-3.6675,-3.7204,-3.8984,-3.7589,-3.6507,-3.6507,-3.6988,-3.7637,-3.8455,-3.7372,-3.7252,-3.8455,-3.6771,-3.5785,-3.5713,-3.3813,-3.2082,-3.0615,-2.9003,-2.7176,-2.512,-2.5396,-2.5805,-2.6358,-2.7368,-2.9893,-3.3597,-3.6819,-3.807,-3.795,-3.8647,-3.8912,-3.9032,-4.009,-4.0499,-4.0571,-4.1028,-4.1172,-4.1172,-4.1172,-4.0884,-4.0499,-4.0499,-4.0186,-3.9801,-3.9801,-3.9753,-3.9705,-3.9705,-3.932,-3.9152,-4.0066,-3.9946,-3.9729,-4.0186,-3.9946,-3.9729,-4.0186,-3.8864,-3.831,0.0,0.0,0.0,0.0,0.0,0.0,0.0,0.0,0.0,0.0,0.0,0.0,0.0,0.0,0.0,0.0,0.0,0.0,0.0,0.0,-4.3241,-4.4357,-4.5269,-4.5886,-4.603,-4.6415,-4.615,-4.5173,-4.5766,-4.5982,-4.5958,-4.7016,-4.7497,-4.7497,-4.7497,-4.8098,-4.9084,-4.9084,-4.971,-5.0696,-5.0696,-5.0696,-5.0696,-5.0696,-5.1369,-5.2283,-2.6695,-2.6839,-2.756,-2.9244,-3.1023,-3.2298,-3.2563,-3.4438,-3.5713,-3.5304,-3.629,-3.7036,-3.6964,-3.7012,-3.706,-3.706,-3.7541,-3.7541,-3.6867,-3.7805,-3.7926,-3.6867,-3.6892,-3.6723,-3.6266,-3.5064,-3.403,-3.331,-3.1745,-3.011,-2.8426,-2.7224,-2.6898,-2.7464,-2.8089,-3.038,-3.4102,-3.7781,-3.8551,-3.7469,-3.8888,-3.9465,-3.9585,-4.0643,-4.1052,-4.1052,-4.1148,-4.1172,-4.1172,-4.1172,-4.1124,-4.1052,-4.1052,-4.098,-4.0908,-4.0908,-4.0595,-4.0258,-4.0258,-3.9874,-3.9513,-3.9705,-3.9681,-3.9633,-3.9729,-3.9681,-3.9633,-3.9729,-3.9801,-3.985,-3.9874,0.0,0.0,0.0,0.0,0.0,0.0,0.0,0.0,0.0,0.0,0.0,0.0,0.0,0.0,0.0,0.0,0.0,0.0,0.0,-4.6054,0.0,-4.5101,0.0,0.0,0.0,-4.5982,-4.579,-4.6319,-4.6343,-4.5958,-4.7016,-4.7497,-4.7497,-4.7497,-4.8098,-4.9084,-4.9084,-4.971,-5.0696,-5.0696,-5.0696,-5.0696,-5.0696,-5.1369,-5.2283,-2.769,-2.8619,-2.9677,-3.0778,-3.2466,-3.3885,-3.4414,-3.5593,-3.6531,-3.6843,-3.706,-3.7517,-3.8383,-3.7709,-3.7421,-3.7998,-3.8262,-3.831,-3.8094,-3.8791,-3.8767,-3.7709,-3.7613,-3.7348,-3.6819,-3.6314,-3.5665,-3.4799,-3.4366,-3.3188,-3.1336,-3.0302,-3.011,-3.0663,-3.1721,-3.3645,-3.617,-3.7709,-3.8238,-3.8118,-3.9176,-3.9609,-3.9729,-4.0787,-4.1172,-4.1172,-4.1172,-4.1172,-4.1172,-4.1172,-4.1172,-4.1172,-4.1172,-4.1172,-4.1172,-4.1172,-4.1004,-4.0812,-4.0812,-4.0427,-4.009,-4.0355,-4.021,-4.0018,-4.0018,-4.0018,-4.0018,-4.0018,-4.021,-4.0306,-4.0066,-4.0258,0.0,0.0,0.0,0.0,0.0,0.0,0.0,0.0,0.0,0.0,0.0,0.0,0.0,0.0,0.0,0.0,0.0,0.0,-4.5525,0.0,0.0,0.0,-4.6295,0.0,-4.6463,-4.5934,-4.6175,-4.6175,-4.5958,-4.7016,-4.7497,-4.7497,-4.7497,-4.8098,-4.9133,-4.9686,-5.0239,-5.0696,-5.0696,-5.0696,-5.0696,-5.0696,-5.1369,-5.2283,-2.8946,-3.0566,-3.2089,-3.2725,-3.4381,-3.5721,-3.5866,-3.6297,-3.6988,-3.8166,-3.7757,-3.795,-3.9537,-3.8407,-3.7878,-3.8743,-3.8912,-3.9176,-3.9585,-3.9705,-3.9537,-3.9008,-3.8575,-3.8022,-3.7372,-3.7252,-3.6843,-3.6122,-3.6411,-3.528,-3.2779,-3.3044,-3.338,-3.3861,-3.5545,-3.6916,-3.7974,0.0,-3.8142,-3.8864,-3.9393,-3.9681,-3.9874,-4.0812,-4.1172,-4.1172,-4.1172,-4.1172,-4.1172,-4.1172,-4.1172,-4.1172,-4.1172,-4.1172,-4.1172,-4.1172,-4.1172,-4.1172,-4.1172,-4.0884,-4.0667,-4.1076,-4.086,-4.0547,-4.0427,-4.0475,-4.0499,-4.0282,-4.0306,-4.0523,-4.098,-4.1822,0.0,0.0,0.0,0.0,0.0,0.0,0.0,0.0,0.0,0.0,0.0,0.0,0.0,0.0,0.0,0.0,0.0,0.0,0.0,0.0,0.0,-4.7088,-4.6607,0.0,-4.692,-4.6102,-4.6102,-4.603,-4.5958,-4.7016,-4.7497,-4.7497,-4.7497,-4.8098,-4.9157,-5.0263,-5.0696,-5.0696,-5.0696,-5.0696,-5.0696,-5.0696,-5.1369,-5.2283,-3.2953,-3.4299,-3.5426,-3.6333,-3.7588,-3.8091,-3.7092,-3.7066,-3.7012,-3.6675,-3.7372,-3.7805,-3.7517,-3.819,-3.8719,-3.8815,-3.9248,-3.9561,-3.9609,-4.0066,-4.009,-3.9561,-3.9489,-3.896,-3.7926,-3.7445,-3.7372,-3.7757,-3.7324,-3.5064,-3.1211,-3.4006,-3.5352,-3.5497,-3.7589,0.0,0.0,-3.8984,-3.9176,-3.8864,-3.9393,-3.9898,-4.0379,-4.0956,-4.1172,-4.1172,-4.1172,-4.1172,-4.1172,-4.1172,-4.1172,-4.1172,-4.1172,-4.1172,-4.1172,-4.1172,-4.1172,-4.1172,-4.1172,-4.1148,-4.1124,-4.1172,-4.1148,-4.098,-4.0499,-4.0763,-4.0836,-3.9874,-4.0066,-4.098,-4.288,-4.2182,-4.2375,0.0,0.0,0.0,0.0,0.0,0.0,0.0,0.0,0.0,0.0,0.0,0.0,0.0,0.0,0.0,0.0,0.0,0.0,-4.6511,-4.668,-4.7425,-4.8772,-4.7449,-4.6728,-4.6631,-4.6631,-4.6391,-4.5958,-4.7016,-4.7497,-4.7497,-4.7497,-4.8098,-4.9157,-5.0263,-5.0696,-5.0696,-5.0696,-5.0696,-5.0696,-5.0696,-5.1369,-5.2283,-3.4262,-3.5108,-3.5719,-3.6077,-3.7072,-3.7884,-3.8091,-3.8439,-3.858,-3.8382,-3.8129,-3.8142,-3.8599,-3.9032,-3.9417,-3.9729,-3.997,-4.021,-4.0523,-4.0739,-4.0763,-4.0571,-4.0234,-3.9729,-3.8984,-3.8431,-3.8262,-3.8479,-3.8599,-3.7613,-3.5665,-3.694,-3.7348,-3.7084,-3.8286,-3.8695,-3.8503,-3.8599,-3.8695,-3.8864,-3.9393,-3.9922,-4.0451,-4.098,-4.1172,-4.1172,-4.1172,-4.098,-4.0763,-4.1076,-4.1172,-4.1172,-4.1172,-4.1172,-4.1172,-4.1172,-4.1172,-4.1172,-4.1172,-4.1172,-4.11,-4.0787,-4.0715,-4.0643,-4.0451,-4.0571,-4.0691,-4.0571,-4.0715,-4.1124,-4.1966,-4.2375,-4.294,-4.3721,0.0,0.0,0.0,0.0,0.0,0.0,0.0,0.0,0.0,0.0,0.0,0.0,0.0,0.0,0.0,0.0,0.0,-4.7666,0.0,-4.6848,-4.8122,-4.6872,-4.6247,-4.6247,-4.6247,-4.6295,-4.6415,-4.7161,-4.7497,-4.7545,-4.8171,-4.8676,-4.9157,-5.0263,-5.0696,-5.0696,-5.0696,-5.0696,-5.0696,-5.0696,-5.1369,-5.2283,-3.5974,-3.6582,-3.6964,-3.7102,-3.7789,-3.8542,-3.9094,-3.9449,-3.9669,-3.9801,-3.9155,-3.8912,-3.9537,-3.9753,-3.9994,-4.0355,-4.0547,-4.0787,-4.1172,-4.1172,-4.1172,-4.1172,-4.0691,-4.0066,-3.9393,-3.8839,-3.8407,-3.8118,-3.8791,-3.831,-3.6723,-3.7036,-3.7565,-3.8238,-3.8647,-3.8815,-3.8791,-3.8407,-3.8551,-3.9104,-3.9633,-4.0162,-4.0667,-4.1052,-4.1172,-4.1172,-4.1004,-4.0715,-4.0427,-4.0643,-4.0812,-4.098,-4.1124,-4.1172,-4.1172,-4.1172,-4.1172,-4.1172,-4.1172,-4.1172,-4.1052,-4.0523,-4.0403,-4.0403,-4.0403,-4.0403,-4.0547,-4.1076,-4.1172,-4.1172,-4.1172,-4.2169,-4.2867,-4.2687,0.0,0.0,0.0,-4.3012,0.0,0.0,-4.4275,-4.4395,-4.3673,0.0,0.0,0.0,0.0,0.0,0.0,0.0,0.0,0.0,0.0,0.0,-4.7497,-4.6463,-4.5934,-4.5934,-4.5934,-4.6199,-4.6728,-4.7257,-4.7497,-4.7569,-4.8628,-4.9084,-4.9157,-5.0263,-5.0696,-5.0696,-5.0696,-5.0696,-5.072,-5.0888,-5.1513,-5.2307,-3.8826,-3.9699,-4.0257,-4.0584,-4.0783,-4.075,-4.0204,-3.9728,-3.9752,-4.0306,-4.0379,-4.0162,-3.9657,-4.0066,-4.0379,-4.0403,-4.0884,-4.1172,-4.1172,-4.1172,-4.1172,-4.1172,-4.0691,-3.9898,-3.8839,-3.8286,-3.7469,-3.6435,-3.7493,-3.5857,-3.1813,-3.2851,-3.5304,-3.8815,-3.8815,-3.8815,-3.8815,-3.8815,-3.9104,-3.9657,-4.0162,-4.0691,-4.1172,-4.1172,-4.1172,-4.1124,-4.0595,-4.0403,-4.0306,-3.9801,-3.997,-4.0499,-4.1028,-4.1172,-4.1172,-4.1172,-4.1172,-4.1172,-4.1172,-4.1172,-4.1052,-4.0523,-4.0403,-4.0403,-4.0403,-4.0403,-4.0547,-4.1076,-4.1172,-4.1172,-4.1172,-4.1196,-4.1894,-4.3925,0.0,0.0,0.0,0.0,0.0,0.0,-4.6824,-4.7449,-4.7425,0.0,0.0,0.0,0.0,0.0,0.0,0.0,0.0,-4.6776,-4.6704,0.0,-4.7497,-4.6463,-4.5934,-4.5934,-4.5934,-4.6199,-4.6728,-4.7257,-4.7497,-4.7569,-4.8628,-4.9084,-4.9157,-5.0263,-5.0696,-5.0696,-5.0696,-5.0696,-5.0768,-5.1297,-5.1826,-5.2355,-3.9644,-3.9516,-3.9468,-4.0341,-4.0245,-4.0485,-4.1799,-4.2242,-4.247,-4.2605,-4.3691,-4.4089,-4.3096,-4.1749,-4.0932,-4.0932,-4.1076,-4.1172,-4.1172,-4.1172,-4.1172,-4.1172,-4.1028,-4.0427,-3.9369,-3.9176,-3.8551,-3.7469,0.0,0.0,-3.6555,-3.6892,-3.7493,-3.8262,-3.8647,-3.8815,-3.8815,-3.8815,-3.932,-4.0162,-4.0331,-4.0715,-4.1172,-4.1172,-4.1172,-4.1124,-4.0595,-4.0162,-3.9826,-3.9657,-3.9489,-3.9417,-3.9946,-4.0595,-4.1124,-4.0739,-4.0643,-4.0643,-4.0643,-4.0379,-3.9994,-3.9441,-3.9585,-3.985,-3.985,-4.0427,-4.098,-4.1148,-4.1172,-4.1172,-4.1172,-4.1172,-4.1413,-4.2086,-4.2062,0.0,-4.2663,0.0,-4.294,0.0,-4.3842,-4.4275,0.0,-4.5718,0.0,0.0,0.0,0.0,0.0,0.0,0.0,0.0,-4.692,0.0,-4.8026,-4.6631,-4.6102,-4.6463,-4.6102,-4.6391,-4.7257,-4.7425,-4.7497,-4.7569,-4.8628,-4.9084,-4.9157,-5.0263,-5.0696,-5.0696,-5.0696,-5.0696,-5.0768,-5.1297,-5.1826,-5.2355,-4.0938,-4.0622,-4.038,-4.1133,-4.1148,-4.1521,-4.2933,-4.3646,-4.4071,-4.4042,-4.4623,-4.4805,-4.402,-4.2319,-4.1344,-4.1834,-4.1459,-4.1172,-4.1172,-4.1172,-4.1172,-4.1172,-4.0812,-4.0282,-3.9609,-3.92,0.0,-3.7685,-3.8046,-3.831,-3.8503,-3.8503,-3.8431,-3.831,-3.8671,-3.8936,-3.9128,-3.932,-3.9801,-4.0403,-4.0619,-4.0884,-4.1172,-4.1172,-4.1052,-4.0836,-4.0523,-3.9922,-3.932,-3.932,-3.9104,-3.8839,-3.896,-3.9729,-4.0523,-4.0186,-4.0234,-4.0355,-4.0138,-3.985,-3.9537,-3.92,-3.9369,-3.9657,-3.985,-4.0571,-4.1244,-4.1437,-4.1317,-4.1244,-4.1437,-4.1317,-4.1317,-4.1701,-4.2062,-4.2327,-4.2519,0.0,-4.3216,0.0,0.0,0.0,0.0,-4.49,-4.5357,0.0,0.0,0.0,0.0,0.0,0.0,-4.7906,-4.6415,-4.6102,-4.7088,-4.6126,-4.5886,-4.6415,-4.6487,-4.6872,-4.7497,-4.7497,-4.7497,-4.7569,-4.8628,-4.9084,-4.9157,-5.0263,-5.0696,-5.0696,-5.0696,-5.0696,-5.0792,-5.1513,-5.1994,-5.2379,-4.257,-4.2598,-4.2683,-4.2767,-4.3227,-4.3593,-4.3786,-4.4289,-4.4662,-4.4702,-4.3801,-4.3164,-4.3164,-4.2037,-4.1777,-4.2942,-4.1866,-4.1172,-4.1172,-4.1172,-4.1172,-4.1172,-4.0234,-3.9681,-3.9609,-3.8623,-3.7829,-3.73,-3.7348,-3.7613,-3.8094,-3.8094,-3.8383,-3.8864,-3.8864,-3.9176,-3.9705,-4.0186,-4.0427,-4.0499,-4.098,-4.1172,-4.1172,-4.1172,-4.0884,-4.0451,-4.0355,-3.9705,-3.8864,-3.8791,-3.8767,-3.8671,-3.8142,-3.8695,-3.9561,-3.9561,-3.9898,-4.0186,-3.9681,-3.9513,-3.9513,-3.9537,-3.9609,-3.9801,-4.0331,-4.086,-4.1389,-4.187,-4.1581,-4.1389,-4.1928,-4.1581,-4.1557,-4.2602,-4.2795,-4.2928,-4.3385,-4.3457,-4.4202,0.0,0.0,0.0,0.0,-4.5173,-4.3842,0.0,0.0,0.0,0.0,0.0,-4.8628,-4.6054,-4.5501,-4.5173,-4.5173,-4.5173,-4.5501,-4.6006,-4.7016,-4.7497,-4.7497,-4.7497,-4.7521,-4.7617,-4.8628,-4.9109,-4.9205,-5.0263,-5.0696,-5.0696,-5.0696,-5.0696,-5.084,-5.1898,-5.2283,-5.2427,-4.257,-4.2964,-4.3582,-4.4509,-4.4456,-4.4616,-4.5611,-4.5858,-4.5944,-4.5952,-4.5714,-4.5555,-4.5555,-4.3716,-4.2942,-4.41,-4.2375,-4.1172,-4.1172,-4.1172,-4.1172,-4.1172,-4.0956,-4.0427,-3.9633,-3.9345,-3.896,-3.8431,-3.8839,-3.9104,-3.9224,-3.9224,-3.9296,-3.9417,-3.9417,-3.9705,-4.021,-4.0331,-4.0643,-4.1004,-4.1124,-4.1172,-4.1172,-4.1172,-4.11,-4.0884,-4.009,-3.9633,-3.9296,-3.8455,-3.819,-3.8166,-3.8022,-3.8455,-3.9008,-3.9008,-3.9104,-3.9176,-3.9032,-3.8695,-3.8479,-3.8912,-3.9609,-4.0355,-4.0884,-4.1413,-4.1822,-4.1942,-4.187,-4.1822,-4.2,-4.187,-4.187,-4.211,-4.2554,-4.2867,-4.2988,-4.2952,-4.3265,0.0,-4.4058,-4.4154,-4.4765,-4.4861,-4.5453,0.0,0.0,-4.8074,-4.8339,-4.894,-4.8435,-4.6583,-4.6415,-4.6343,-4.6343,-4.6343,-4.6391,-4.6535,-4.7185,-4.7497,-4.7497,-4.7497,-4.7714,-4.8147,-4.8796,-4.9301,-4.9734,-5.0431,-5.0696,-5.0696,-5.0696,-5.0696,-5.084,-5.1898,-5.2283,-5.2427,-4.3413,-4.3694,-4.42,-4.5108,-4.5316,-4.5641,-4.6629,-4.7015,-4.7181,-4.7181,-4.6687,-4.6374,-4.6374,-4.4779,-4.3936,-4.4535,-4.2544,-4.1402,-4.1923,-4.1516,-4.1172,-4.1172,-4.0956,-4.0547,-3.997,-3.9729,-3.9465,-3.9176,-3.9465,-3.9609,-3.9609,-3.9609,-3.9729,-3.997,-3.997,-4.0258,-4.0763,-4.0763,-4.0932,-4.1172,-4.1172,-4.1172,-4.1172,-4.1172,-4.1028,-4.0739,-4.0162,-3.9657,-3.9152,-3.8551,-3.819,-3.7974,-3.7974,-3.819,-3.8431,-3.8431,-3.8623,-3.8767,-3.8503,-3.8214,-3.8166,-3.8984,-3.997,-4.0836,-4.1124,-4.1413,-4.1749,-4.223,-4.2,-4.1822,-4.2543,-4.2279,-4.2134,-4.2591,-4.2928,-4.3192,-4.3457,-4.3697,-4.3938,-4.4227,-4.4251,-4.4371,-4.4621,-4.4693,-4.5197,-4.6391,-4.7209,0.0,-4.769,-4.8122,-4.7954,-4.7088,-4.6607,-4.6343,-4.6343,-4.6343,-4.6487,-4.6728,-4.7257,-4.7497,-4.7497,-4.7497,-4.7786,-4.8315,-4.8844,-4.9373,-4.9902,-5.0479,-5.0696,-5.0696,-5.0696,-5.0696,-5.084,-5.1898,-5.2283,-5.2427,-4.4565,-4.4621,-4.4902,-4.5445,-4.6083,-4.6645,-4.7263,-4.7797,-4.8134,-4.8134,-4.7078,-4.6374,-4.6374,-4.5342,-4.4671,-4.4859,-4.2799,-4.1866,-4.283,-4.181,-4.1172,-4.1172,-4.0836,-4.0595,-4.0523,-4.0066,-3.9801,-3.9729,-3.9801,-3.985,-3.985,-3.985,-4.009,-4.0523,-4.0523,-4.0763,-4.1172,-4.1172,-4.1172,-4.1172,-4.1172,-4.1172,-4.1172,-4.1172,-4.0908,-4.0499,-4.0427,-3.9753,-3.8936,-3.8839,-3.8455,-3.7974,-3.7974,-3.7974,-3.7974,-3.7974,-3.831,-3.8599,-3.8118,-3.8094,-3.8479,-3.9465,-4.0451,-4.1172,-4.1172,-4.1317,-4.1677,-4.2627,-4.211,-4.1942,-4.3265,-4.2784,-4.2615,-4.3914,-4.377,-4.3842,-4.4741,-4.4933,-4.5005,-4.5173,-4.5269,-4.5317,-4.5317,-4.4981,-4.4717,-4.4645,-4.5597,-4.5958,-4.5525,-4.6776,-4.7497,-4.7497,-4.6631,-4.615,-4.615,-4.6006,-4.6223,-4.6848,-4.7281,-4.7497,-4.7497,-4.7497,-4.7834,-4.8435,-4.8892,-4.9421,-5.0022,-5.0503,-5.0696,-5.0696,-5.0696,-5.0696,-5.084,-5.1898,-5.2283,-5.2427,-4.5136,-4.5633,-4.6195,-4.6813,-4.701,-4.7263,-4.7881,-4.8078,-4.8134,-4.8134,-4.7078,-4.6374,-4.6374,-4.5342,-4.5021,-4.6058,-4.3991,-4.2718,-4.2886,-4.181,-4.1172,-4.1172,-4.1533,-4.1509,-4.1076,-4.098,-4.0715,-4.0282,-4.0715,-4.0932,-4.0932,-4.0932,-4.098,-4.1052,-4.1052,-4.11,-4.1172,-4.1172,-4.1172,-4.1172,-4.1172,-4.1172,-4.1172,-4.1172,-4.1124,-4.1004,-4.0547,-3.9994,-3.9417,-3.896,-3.8455,-3.7974,-3.7974,-3.7974,-3.7974,-3.7974,-3.8046,-3.8094,-3.7998,-3.8647,-3.9513,-4.0114,-4.0739,-4.1172,-4.1172,-4.187,-4.2627,-4.2795,-4.2976,-4.3216,-4.3457,-4.3385,-4.4058,-4.6487,-4.4972,-4.4491,-4.7281,-4.5838,-4.4741,-4.5694,-4.6199,-4.6463,-4.6463,-4.68,-4.6824,-4.6391,-4.692,-4.7209,-4.7136,-4.7377,-4.7497,-4.7497,-4.7353,-4.7257,-4.7257,-4.6367,-4.6415,-4.7377,-4.7473,-4.7497,-4.7497,-4.7497,-4.8026,-4.8964,-4.9036,-4.9638,-5.0576,-5.0672,-5.0696,-5.0696,-5.0696,-5.0696,-5.084,-5.1898,-5.2283,-5.2427,-4.5276,-4.5858,-4.6476,-4.7094,-4.7207,-4.7403,-4.8021,-4.8134,-4.8134,-4.8134,-4.762,-4.7312,-4.7312,-4.6269,-4.5767,-4.6374,-4.4238,-4.3011,-4.3338,-4.1981,-4.1317,-4.1605,-4.1904,-4.187,-4.1629,-4.1317,-4.1076,-4.0812,-4.1076,-4.1172,-4.1172,-4.1172,-4.1172,-4.1172,-4.1172,-4.1172,-4.1172,-4.1172,-4.1172,-4.1172,-4.1172,-4.1172,-4.1172,-4.1172,-4.1172,-4.1124,-4.0595,-4.0234,-3.9898,-3.9104,-3.8647,-3.8383,-3.807,-3.7974,-3.7974,-3.7974,-3.7974,-3.8046,-3.8359,-3.9008,-3.9729,-4.0258,-4.0787,-4.1172,-4.1172,-4.1557,-4.2062,-4.2699,-4.2711,-4.2952,-4.3818,-4.3721,-4.401,-4.5549,-4.4756,-4.4467,-4.5958,-4.5293,-4.4885,-4.539,-4.6223,-4.6704,-4.6704,-4.7185,-4.7401,-4.7161,-4.7377,-4.7377,-4.7088,-4.7064,-4.7064,-4.7064,-4.7064,-4.7064,-4.7064,-4.6583,-4.6728,-4.7497,-4.7497,-4.7497,-4.7497,-4.7497,-4.8074,-4.9084,-4.9084,-4.9686,-5.0696,-5.0696,-5.0696,-5.0696,-5.0696,-5.0696,-5.084,-5.1898,-5.2283,-5.2427,-4.5725,-4.6279,-4.6869,-4.7347,-4.7431,-4.76,-4.805,-4.8134,-4.8134,-4.8134,-4.8134,-4.8134,-4.8134,-4.7312,-4.6714,-4.6426,-4.4585,-4.3655,-4.4111,-4.2806,-4.205,-4.2193,-4.2217,-4.2217,-4.2217,-4.1629,-4.1317,-4.1172,-4.1172,-4.1172,-4.1172,-4.1172,-4.1172,-4.1172,-4.1172,-4.1172,-4.1172,-4.1172,-4.1172,-4.1172,-4.1172,-4.1172,-4.1172,-4.1172,-4.1172,-4.1124,-4.0715,-4.0499,-4.0258,-3.932,-3.8912,-3.8719,-3.8166,-3.7974,-3.7974,-3.7974,-3.807,-3.8286,-3.8864,-3.9393,-3.9922,-4.0451,-4.0884,-4.1172,-4.1172,-4.1365,-4.1774,-4.2651,-4.2639,-4.2904,-4.4069,-4.3925,-4.4058,-4.5029,-4.4693,-4.4501,-4.5101,-4.5125,-4.5077,-4.5077,-4.6078,-4.6704,-4.6704,-4.7088,-4.7377,-4.7497,-4.7377,-4.7185,-4.692,-4.6896,-4.6776,-4.6535,-4.6776,-4.6848,-4.6704,-4.6824,-4.7088,-4.7497,-4.7497,-4.7497,-4.7497,-4.7497,-4.8074,-4.9084,-4.9084,-4.9686,-5.0696,-5.0696,-5.0768,-5.0888,-5.0888,-5.0888,-5.1032,-5.2211,-5.2475,-5.2451,-4.7066,-4.7572,-4.7993,-4.805,-4.805,-4.8078,-4.8106,-4.8134,-4.8134,-4.8134,-4.8134,-4.8134,-4.8134,-4.8032,-4.7517,-4.6478,-4.5658,-4.5288,-4.5477,-4.4769,-4.3887,-4.2806,-4.2771,-4.2771,-4.2771,-4.2241,-4.1677,-4.1172,-4.1172,-4.1172,-4.1172,-4.1172,-4.1172,-4.1172,-4.1172,-4.1172,-4.1172,-4.1172,-4.1172,-4.1172,-4.1172,-4.1172,-4.1172,-4.1172,-4.1172,-4.1172,-4.1148,-4.0812,-4.0306,-3.9753,-3.9224,-3.8719,-3.8166,-3.7974,-3.7974,-3.7974,-3.8359,-3.8864,-3.9417,-3.9946,-4.0475,-4.1004,-4.1148,-4.1172,-4.1172,-4.1942,-4.2723,-4.2795,-4.3505,-4.4141,-4.4261,-4.4261,-4.5092,-4.7593,-4.5958,-4.5213,-4.7666,-4.6343,-4.5077,-4.5077,-4.6078,-4.6704,-4.6704,-4.6752,-4.6968,-4.7473,-4.704,-4.6968,-4.7425,-4.7449,-4.6992,-4.6006,-4.6944,-4.7209,-4.6728,-4.7209,-4.7473,-4.7497,-4.7497,-4.7497,-4.7497,-4.7497,-4.8074,-4.9084,-4.9084,-4.9686,-5.0696,-5.0696,-5.0984,-5.1441,-5.1441,-5.1441,-5.161,-5.3149,-5.3101,-5.2499,-4.7207,-4.7712,-4.8134,-4.8134,-4.8134,-4.8134,-4.8134,-4.8134,-4.8134,-4.8134,-4.8134,-4.8134,-4.8134,-4.7799,-4.7419,-4.6969,-4.643,-4.6242,-4.6608,-4.6446,-4.5712,-4.4447,-4.4101,-4.36,-4.2819,-4.1918,-4.1389,-4.1172,-4.1172,-4.1172,-4.1172,-4.1172,-4.1172,-4.1172,-4.1172,-4.1172,-4.1172,-4.1172,-4.1172,-4.1172,-4.1172,-4.1172,-4.1172,-4.1172,-4.1172,-4.1172,-4.1172,-4.1052,-4.0812,-4.0282,-3.9753,-3.9224,-3.8671,-3.8262,-3.7974,-3.7974,-3.8623,-3.9345,-3.9561,-3.9994,-4.0523,-4.1052,-4.1172,-4.1268,-4.1605,-4.199,-4.2447,-4.3096,-4.3553,-4.3938,-4.4213,-4.4285,-4.4621,-4.5669,-4.4933,-4.4645,-4.5694,-4.5101,-4.4573,-4.4573,-4.5221,-4.5742,-4.5742,-4.603,-4.6439,-4.6968,-4.6824,-4.6944,-4.7473,-4.7185,-4.6535,-4.5477,-4.6776,-4.7088,-4.6223,-4.7064,-4.7497,-4.7497,-4.7497,-4.7497,-4.7497,-4.7497,-4.8074,-4.9084,-4.9084,-4.9686,-5.0696,-5.0696,-5.1008,-5.1489,-5.1489,-5.1489,-5.1682,-5.3245,-5.3173,-5.2499,-4.7488,-4.7853,-4.8134,-4.8134,-4.8134,-4.8134,-4.8134,-4.8134,-4.8134,-4.8134,-4.8223,-4.8364,-4.8364,-4.8246,-4.7996,-4.7648,-4.7427,-4.7433,-4.7831,-4.8016,-4.7299,-4.5456,-4.4519,-4.3561,-4.2578,-4.1629,-4.1172,-4.1172,-4.1172,-4.1172,-4.1172,-4.1172,-4.1172,-4.1172,-4.1172,-4.1172,-4.1172,-4.1172,-4.1172,-4.1172,-4.1172,-4.1172,-4.123,-4.1606,-4.1516,-4.123,-4.1606,-4.1492,-4.11,-4.0571,-4.0162,-3.9729,-3.9032,-3.8431,-3.8022,-3.819,-3.8888,-3.9657,-3.9801,-4.0234,-4.0739,-4.11,-4.1317,-4.1533,-4.1894,-4.223,-4.2663,-4.3361,-4.3649,-4.389,-4.4213,-4.4285,-4.4285,-4.4285,-4.4285,-4.4285,-4.4285,-4.4285,-4.4285,-4.4285,-4.4741,-4.5077,-4.5077,-4.539,-4.5958,-4.6655,-4.6559,-4.6776,-4.7473,-4.6992,-4.6391,-4.5645,-4.668,-4.6896,-4.6175,-4.7209,-4.7666,-4.7497,-4.7497,-4.7497,-4.7497,-4.7497,-4.8074,-4.9084,-4.9084,-4.9686,-5.0696,-5.0696,-5.1105,-5.173,-5.173,-5.173,-5.1946,-5.3678,-5.3437,-5.2524,-4.8134,-4.8134,-4.8134,-4.8134,-4.8134,-4.8134,-4.8134,-4.8134,-4.8134,-4.8134,-4.8616,-4.9009,-4.9009,-4.9595,-4.9509,-4.8328,-4.8707,-4.9033,-4.9088,-4.9576,-4.8554,-4.554,-4.3717,-4.2578,-4.199,-4.1519,-4.1172,-4.1172,-4.1172,-4.1172,-4.1172,-4.1172,-4.1172,-4.1172,-4.1172,-4.1172,-4.1172,-4.1172,-4.1172,-4.1172,-4.1172,-4.1172,-4.1344,-4.2463,-4.2206,-4.1344,-4.2519,-4.215,-4.11,-4.0571,-4.0403,-4.021,-3.9152,-3.8431,-3.8094,-3.8647,-3.92,-3.9729,-4.0258,-4.0787,-4.1196,-4.1196,-4.1581,-4.1966,-4.199,-4.2784,-4.3505,-4.3529,-4.3962,-4.4285,-4.4285,-4.4285,-4.4285,-4.4285,-4.4285,-4.4285,-4.4285,-4.4285,-4.4285,-4.4285,-4.4741,-4.5053,-4.5053,-4.5077,-4.5573,-4.6631,-4.6223,-4.6391,-4.7449,-4.6992,-4.6704,-4.6704,-4.6704,-4.6704,-4.6704,-4.7762,-4.8026,-4.7497,-4.7497,-4.7497,-4.7497,-4.7497,-4.8074,-4.9084,-4.9084,-4.9686,-5.0696,-5.0696,-5.1321,-5.2283,-5.2283,-5.2283,-5.2548,-5.4616,-5.4087,-5.2596,-4.8134,-4.8134,-4.8134,-4.8134,-4.8134,-4.8223,-4.8644,-4.8701,-4.8921,-4.9342,-4.9567,-4.9679,-4.9679,-5.0294,-5.0472,-5.015,-5.0625,-5.0575,-4.9713,-4.7827,-4.654,-4.6088,-4.4817,-4.3389,-4.2049,-4.2274,-4.198,-4.1172,-4.198,-4.198,-4.1172,-4.1172,-4.1172,-4.1172,-4.1172,-4.1172,-4.1172,-4.1172,-4.1172,-4.1287,-4.2093,-4.2407,-4.2519,-4.3661,-4.3386,-4.2463,-4.2774,-4.215,-4.132,-4.1952,-4.1911,-4.1414,-4.0323,-3.9345,-3.8599,-3.8767,-3.92,-3.9729,-4.0258,-4.1052,-4.1725,-4.1725,-4.1846,-4.2158,-4.288,-4.3289,-4.3625,-4.3949,-4.4165,-4.4285,-4.4285,-4.4285,-4.4285,-4.4285,-4.4285,-4.4285,-4.4285,-4.4285,-4.4285,-4.4285,-4.4429,-4.4525,-4.4525,-4.4861,-4.5429,-4.6102,-4.6704,-4.7161,-4.7473,-4.6655,-4.6319,-4.6704,-4.6343,-4.6343,-4.6704,-4.7401,-4.7666,-4.7497,-4.7497,-4.7497,-4.7521,-4.7882,-4.8435,-4.9109,-4.9469,-5.0046,-5.0696,-5.0696,-5.1321,-5.2283,-5.2283,-5.2499,-5.3053,-5.476,-5.4544,-5.3606,-4.8836,-4.8836,-4.8836,-4.8836,-4.8836,-4.8977,-4.9342,-4.9398,-4.9539,-4.9957,-5.0238,-5.0379,-5.0379,-5.0913,-5.1253,-5.1253,-5.1562,-5.1265,-4.9985,-4.7977,-4.6685,-4.6421,-4.5459,-4.4339,-4.3042,-4.2468,-4.2093,-4.1866,-4.2093,-4.1866,-4.1172,-4.1172,-4.1172,-4.1172,-4.1172,-4.1172,-4.1172,-4.1172,-4.1172,-4.1287,-4.2463,-4.2886,-4.2997,-4.4209,-4.3855,-4.2886,-4.2886,-4.215,-4.1344,-4.2519,-4.2509,-4.2011,-4.1333,-4.0202,-3.9176,-3.9369,-3.9826,-4.0355,-4.0884,-4.1629,-4.2327,-4.2519,-4.2567,-4.2735,-4.3361,-4.3673,-4.3938,-4.4213,-4.4285,-4.4285,-4.4285,-4.4285,-4.4285,-4.4285,-4.4285,-4.4285,-4.4285,-4.4285,-4.4285,-4.4285,-4.4285,-4.4285,-4.4285,-4.4765,-4.539,-4.6175,-4.7016,-4.7401,-4.7209,-4.6391,-4.6175,-4.6704,-4.6199,-4.6271,-4.7016,-4.7353,-4.7497,-4.7497,-4.7497,-4.7497,-4.7521,-4.805,-4.8579,-4.9109,-4.9638,-5.0191,-5.0696,-5.0696,-5.1321,-5.2283,-5.2283,-5.2596,-5.3245,-5.4832,-5.4736,-5.4063,-5.0013,-5.0013,-5.0013,-5.0013,-5.0013,-5.0041,-5.0069,-5.0097,-5.0125,-5.0154,-5.066,-5.0944,-5.0944,-5.145,-5.1787,-5.1787,-5.1677,-5.1127,-4.9903,-4.9166,-4.8072,-4.654,-4.563,-4.5083,-4.483,-4.2681,-4.1948,-4.2718,-4.1834,-4.1287,-4.1172,-4.1172,-4.1172,-4.1172,-4.1172,-4.123,-4.1344,-4.1344,-4.1402,-4.1606,-4.2631,-4.3053,-4.3164,-4.4183,-4.3855,-4.2886,-4.2886,-4.215,-4.1344,-4.2519,-4.2559,-4.2187,-4.2137,-4.104,-3.985,-4.0331,-4.0836,-4.1365,-4.1894,-4.2482,-4.2952,-4.3385,-4.3553,-4.3577,-4.3577,-4.3925,-4.4285,-4.4285,-4.4285,-4.4285,-4.4285,-4.4285,-4.4285,-4.4285,-4.4285,-4.4285,-4.4285,-4.4285,-4.4285,-4.4285,-4.4285,-4.4285,-4.4285,-4.4813,-4.5645,-4.6704,-4.7233,-4.7281,-4.68,-4.6319,-4.6295,-4.6776,-4.6319,-4.6535,-4.7497,-4.7497,-4.7497,-4.7497,-4.7497,-4.7497,-4.7521,-4.8098,-4.8628,-4.9109,-4.9686,-5.0263,-5.0768,-5.0768,-5.1393,-5.2355,-5.2355,-5.2668,-5.3317,-5.4832,-5.4784,-5.4183,-5.0013,-5.0013,-5.0013,-5.0013,-5.0013,-5.0182,-5.066,-5.0716,-5.0885,-5.1337,-5.1506,-5.159,-5.159,-5.1702,-5.1787,-5.1787,-5.0906,-5.0019,-4.925,-4.7766,-4.6986,-4.7028,-4.473,-4.441,-4.6572,-4.4824,-4.3134,-4.1549,-4.2206,-4.2093,-4.1172,-4.1172,-4.1172,-4.1172,-4.1172,-4.172,-4.2519,-4.2519,-4.3053,-4.3881,-4.4155,-4.4264,-4.4264,-4.4535,-4.3855,-4.2886,-4.2886,-4.215,-4.1344,-4.2519,-4.2811,-4.2635,-4.2263,-4.1558,-4.086,-4.098,-4.1389,-4.1918,-4.2506,-4.2952,-4.3385,-4.3481,-4.3842,-4.4117,-4.4117,-4.4213,-4.4285,-4.4285,-4.4285,-4.4285,-4.4285,-4.4285,-4.4285,-4.4285,-4.4285,-4.4285,-4.4285,-4.4285,-4.4285,-4.4285,-4.4285,-4.4285,-4.4285,-4.5213,-4.6199,-4.7257,-4.7425,-4.7449,-4.7329,-4.7233,-4.7209,-4.7329,-4.7209,-4.7281,-4.7497,-4.7497,-4.7497,-4.7497,-4.7497,-4.7497,-4.7521,-4.8483,-4.8964,-4.9133,-5.0095,-5.0816,-5.1321,-5.1321,-5.1946,-5.2908,-5.2908,-5.3197,-5.3798,-5.4977,-5.5241,-5.5217,-5.0885,-5.0885,-5.0885,-5.0885,-5.0885,-5.0944,-5.1253,-5.1309,-5.1421,-5.1759,-5.1787,-5.1787,-5.1787,-5.1787,-5.1787,-5.1787,-5.0932,-5.0243,-4.9912,-4.8518,-4.7783,-4.8066,-4.6088,-4.5411,-4.6327,-4.5755,-4.4463,-4.2397,-4.243,-4.2021,-4.1172,-4.1172,-4.1172,-4.1172,-4.1172,-4.181,-4.2886,-4.2294,-4.2743,-4.3771,-4.3771,-4.3771,-4.3771,-4.3771,-4.3441,-4.283,-4.2294,-4.2037,-4.2093,-4.2662,-4.3062,-4.3237,-4.2961,-4.2265,-4.1605,-4.187,-4.2193,-4.2506,-4.2976,-4.3505,-4.3914,-4.3914,-4.4069,-4.4285,-4.4285,-4.4285,-4.4285,-4.4285,-4.4285,-4.4285,-4.4285,-4.4285,-4.4285,-4.4285,-4.4285,-4.4285,-4.4285,-4.4285,-4.4285,-4.4285,-4.4285,-4.4477,-4.4981,-4.5838,-4.6631,-4.7449,-4.7257,-4.7016,-4.6752,-4.6752,-4.6752,-4.6752,-4.6992,-4.7257,-4.7497,-4.7497,-4.7497,-4.7497,-4.7497,-4.7497,-4.7545,-4.8603,-4.9084,-4.9133,-5.0239,-5.1008,-5.1489,-5.1489,-5.2115,-5.3077,-5.3077,-5.3365,-5.3942,-5.5001,-5.5722,-5.6251,-5.1787,-5.1787,-5.1787,-5.1787,-5.1787,-5.1787,-5.1787,-5.1787,-5.1787,-5.1787,-5.1787,-5.1787,-5.1787,-5.1787,-5.1787,-5.1787,-5.1225,-5.0885,-5.0772,-4.9679,-4.8874,-4.8555,-4.7481,-4.6327,-4.5174,-4.5576,-4.5093,-4.3708,-4.2757,-4.2026,-4.1516,-4.1516,-4.1402,-4.123,-4.1631,-4.2206,-4.283,-4.2093,-4.2319,-4.3164,-4.2997,-4.2886,-4.2886,-4.2662,-4.2631,-4.2463,-4.1549,-4.1834,-4.2631,-4.2731,-4.3024,-4.3447,-4.3547,-4.2953,-4.2327,-4.276,-4.2952,-4.312,-4.3553,-4.3925,-4.4285,-4.4285,-4.4285,-4.4285,-4.4285,-4.4285,-4.4285,-4.4285,-4.4285,-4.4285,-4.4285,-4.4285,-4.4285,-4.4285,-4.4285,-4.4285,-4.4285,-4.4285,-4.4285,-4.4285,-4.4357,-4.4789,-4.5838,-4.6415,-4.6944,-4.7473,-4.7088,-4.6704,-4.6343,-4.6319,-4.6319,-4.6319,-4.6752,-4.7136,-4.7497,-4.7497,-4.7497,-4.7497,-4.7497,-4.7497,-4.7545,-4.8603,-4.9084,-4.9133,-5.0239,-5.1056,-5.1634,-5.1634,-5.2235,-5.3197,-5.3197,-5.3461,-5.3942,-5.5001,-5.6083,-5.7021,-5.1787,-5.1787,-5.1787,-5.1787,-5.1787,-5.1787,-5.1787,-5.1787,-5.1787,-5.1787,-5.1787,-5.1787,-5.1787,-5.1787,-5.1787,-5.1787,-5.1225,-5.0716,-5.0182,-4.9426,-4.8315,-4.6851,-4.6061,-4.5119,-4.3967,-4.3505,-4.3413,-4.3708,-4.3626,-4.3269,-4.2687,-4.2687,-4.215,-4.1287,-4.3245,-4.3661,-4.2942,-4.3771,-4.4209,-4.4292,-4.333,-4.2886,-4.2774,-4.1834,-4.1459,-4.1402,-4.123,-4.1287,-4.1532,-4.1992,-4.2186,-4.2331,-4.2791,-4.3072,-4.3313,-4.3385,-4.3746,-4.4093,-4.4165,-4.4213,-4.4285,-4.4285,-4.4285,-4.4285,-4.4285,-4.4285,-4.4285,-4.4285,-4.4285,-4.4285,-4.4285,-4.4285,-4.4285,-4.4285,-4.4285,-4.4285,-4.4285,-4.4285,-4.4285,-4.4285,-4.4693,-4.5197,-4.5862,-4.6415,-4.6944,-4.7473,-4.7425,-4.7569,-4.7954,-4.7978,-4.7978,-4.7978,-4.805,-4.7882,-4.7497,-4.7497,-4.7497,-4.7497,-4.7497,-4.7497,-4.7545,-4.8603,-4.9084,-4.9133,-5.0239,-5.1273,-5.2163,-5.2163,-5.2788,-5.3726,-5.3726,-5.375,-5.3942,-5.5001,-5.6083,-5.7021,-5.1787,-5.1787,-5.1787,-5.1787,-5.1787,-5.1787,-5.1787,-5.1787,-5.1787,-5.1787,-5.1787,-5.1787,-5.1787,-5.1478,-5.1281,-5.1281,-5.041,-4.9735,-4.9454,-4.8864,-4.7874,-4.6453,-4.5737,-4.4896,-4.3708,-4.4767,-4.5265,-4.5217,-4.4232,-4.3776,-4.3881,-4.3881,-4.3606,-4.3134,-4.3496,-4.3691,-4.3826,-4.3022,-4.3078,-4.3551,-4.2407,-4.1923,-4.1891,-4.1402,-4.1172,-4.122,-4.1509,-4.1629,-4.1701,-4.2289,-4.2591,-4.288,-4.312,-4.3337,-4.3577,-4.389,-4.3938,-4.3901,-4.4213,-4.4285,-4.4285,-4.4285,-4.4285,-4.4285,-4.4285,-4.4285,-4.4285,-4.4285,-4.4285,-4.4285,-4.4285,-4.4285,-4.4285,-4.4285,-4.4285,-4.4285,-4.4285,-4.4285,-4.4405,-4.4693,-4.5197,-4.579,-4.6319,-4.6848,-4.7257,-4.7473,-4.7233,-4.7161,-4.7401,-4.7401,-4.7401,-4.7401,-4.769,-4.7738,-4.7497,-4.7497,-4.7497,-4.7497,-4.7497,-4.7497,-4.7545,-4.8603,-4.9084,-4.9133,-5.0239,-5.1297,-5.2283,-5.2283,-5.2884,-5.3822,-5.3822,-5.4183,-5.476,-5.5217,-5.6083,-5.7021]},{"header":{"parameterUnit":"m.s-1","parameterCategory":1,"la1":30.6,"la2":28.766,"lo1":-90.7593,"lo2":-88.6598,"dx":0.0162,"dy":0.0183,"nx":116,"ny":114,"refTime":"2022-11-29T18:00:00:Z","depth":0,"parameterNumber":3,"parameterNumberName":"V-component_of_WINDS"},"data":[0.0,0.0,0.0,0.0,0.0,0.0,0.0,0.0,0.0,0.0,0.0,0.0,0.0,0.0,0.0,0.0,0.0,0.0,0.0,0.0,0.0,0.0,0.0,0.0,0.0,0.0,0.0,0.0,0.0,0.0,0.0,0.0,0.0,0.0,0.0,0.0,0.0,0.0,0.0,0.0,0.0,0.0,0.0,0.0,0.0,0.0,0.0,0.0,0.0,0.0,0.0,0.0,0.0,0.0,0.0,0.0,0.0,0.0,0.0,0.0,0.0,0.0,0.0,0.0,0.0,0.0,0.0,0.0,0.0,0.0,0.0,0.0,0.0,0.0,0.0,0.0,0.0,0.0,0.0,0.0,0.0,0.0,0.0,0.0,0.0,0.0,0.0,0.0,0.0,0.0,0.0,0.0,0.0,0.0,0.0,0.0,0.0,0.0,0.0,0.0,0.0,0.0,0.0,0.0,0.0,0.0,0.0,0.0,0.0,0.0,0.0,0.0,0.0,0.0,0.0,0.0,0.0,0.0,0.0,0.0,0.0,0.0,0.0,0.0,0.0,0.0,0.0,0.0,0.0,0.0,0.0,0.0,0.0,0.0,0.0,0.0,0.0,0.0,0.0,0.0,0.0,0.0,0.0,0.0,0.0,0.0,0.0,0.0,0.0,0.0,0.0,0.0,0.0,0.0,0.0,0.0,0.0,0.0,0.0,0.0,0.0,0.0,0.0,0.0,0.0,0.0,0.0,0.0,0.0,0.0,0.0,0.0,0.0,0.0,0.0,0.0,0.0,0.0,0.0,0.0,0.0,0.0,0.0,0.0,0.0,0.0,0.0,0.0,0.0,0.0,0.0,0.0,0.0,0.0,0.0,0.0,0.0,0.0,0.0,0.0,0.0,0.0,0.0,0.0,0.0,0.0,0.0,0.0,0.0,0.0,0.0,0.0,0.0,0.0,0.0,0.0,0.0,0.0,0.0,0.0,0.0,0.0,0.0,0.0,0.0,0.0,0.0,0.0,0.0,0.0,0.0,0.0,0.0,0.0,0.0,0.0,0.0,0.0,0.0,0.0,0.0,0.0,0.0,0.0,0.0,0.0,0.0,0.0,0.0,0.0,0.0,0.0,0.0,0.0,0.0,0.0,0.0,0.0,0.0,0.0,0.0,0.0,0.0,0.0,0.0,0.0,0.0,0.0,0.0,0.0,0.0,0.0,0.0,0.0,0.0,0.0,0.0,0.0,0.0,0.0,0.0,0.0,0.0,0.0,0.0,0.0,0.0,0.0,0.0,0.0,0.0,0.0,0.0,0.0,0.0,0.0,0.0,0.0,0.0,0.0,0.0,0.0,0.0,0.0,0.0,0.0,0.0,0.0,0.0,0.0,0.0,0.0,0.0,0.0,0.0,0.0,0.0,0.0,0.0,0.0,0.0,0.0,0.0,0.0,0.0,0.0,0.0,0.0,0.0,0.0,0.0,0.0,0.0,0.0,0.0,0.0,0.0,0.0,0.0,0.0,0.0,0.0,0.0,0.0,0.0,0.0,0.0,0.0,0.0,0.0,0.0,0.0,0.0,0.0,0.0,0.0,0.0,0.0,0.0,0.0,0.0,0.0,0.0,0.0,0.0,0.0,0.0,0.0,0.0,0.0,0.0,0.0,0.0,0.0,0.0,0.0,0.0,0.0,0.0,0.0,0.0,0.0,0.0,0.0,0.0,0.0,0.0,0.0,0.0,0.0,0.0,0.0,0.0,0.0,0.0,0.0,0.0,0.0,0.0,0.0,0.0,0.0,0.0,0.0,0.0,0.0,0.0,0.0,0.0,0.0,0.0,0.0,0.0,0.0,0.0,0.0,0.0,0.0,0.0,0.0,0.0,0.0,0.0,0.0,0.0,0.0,0.0,0.0,0.0,0.0,0.0,0.0,0.0,0.0,0.0,0.0,0.0,0.0,0.0,0.0,0.0,0.0,0.0,0.0,0.0,0.0,0.0,0.0,0.0,0.0,0.0,0.0,0.0,0.0,0.0,0.0,0.0,0.0,0.0,0.0,0.0,0.0,0.0,0.0,0.0,0.0,0.0,0.0,0.0,0.0,0.0,0.0,0.0,0.0,0.0,0.0,0.0,0.0,0.0,0.0,0.0,0.0,0.0,0.0,0.0,0.0,0.0,0.0,0.0,0.0,0.0,0.0,0.0,0.0,0.0,0.0,0.0,0.0,0.0,0.0,0.0,0.0,0.0,0.0,0.0,0.0,0.0,0.0,0.0,0.0,0.0,0.0,0.0,0.0,0.0,0.0,0.0,0.0,0.0,0.0,0.0,0.0,0.0,0.0,0.0,0.0,0.0,0.0,0.0,0.0,0.0,0.0,0.0,0.0,0.0,0.0,0.0,0.0,0.0,0.0,0.0,0.0,0.0,0.0,0.0,0.0,0.0,0.0,0.0,0.0,0.0,0.0,0.0,0.0,0.0,0.0,0.0,0.0,0.0,0.0,0.0,0.0,0.0,0.0,0.0,0.0,0.0,0.0,0.0,0.0,0.0,0.0,0.0,0.0,0.0,0.0,0.0,0.0,0.0,0.0,0.0,0.0,0.0,0.0,0.0,0.0,0.0,0.0,0.0,0.0,0.0,0.0,0.0,0.0,0.0,0.0,0.0,0.0,0.0,0.0,0.0,0.0,0.0,0.0,0.0,0.0,0.0,0.0,0.0,0.0,0.0,0.0,0.0,0.0,0.0,0.0,0.0,0.0,0.0,0.0,0.0,0.0,0.0,0.0,0.0,0.0,0.0,0.0,0.0,0.0,0.0,0.0,0.0,0.0,0.0,0.0,0.0,0.0,0.0,0.0,0.0,0.0,0.0,0.0,0.0,0.0,0.0,0.0,0.0,0.0,0.0,0.0,0.0,0.0,0.0,0.0,0.0,0.0,0.0,0.0,0.0,0.0,0.0,0.0,0.0,0.0,0.0,0.0,0.0,0.0,0.0,0.0,0.0,0.0,0.0,0.0,0.0,0.0,0.0,0.0,0.0,0.0,0.0,0.0,0.0,0.0,0.0,0.0,0.0,0.0,0.0,0.0,0.0,0.0,0.0,0.0,0.0,0.0,0.0,0.0,0.0,0.0,0.0,0.0,0.0,0.0,0.0,0.0,0.0,0.0,0.0,0.0,0.0,0.0,0.0,0.0,0.0,0.0,0.0,0.0,0.0,0.0,0.0,0.0,0.0,0.0,0.0,0.0,0.0,0.0,0.0,0.0,0.0,0.0,0.0,0.0,0.0,0.0,0.0,0.0,0.0,0.0,0.0,0.0,0.0,0.0,0.0,0.0,0.0,0.0,0.0,0.0,0.0,0.0,0.0,0.0,0.0,0.0,0.0,0.0,0.0,0.0,0.0,0.0,0.0,0.0,0.0,0.0,0.0,0.0,0.0,0.0,0.0,0.0,0.0,0.0,0.0,0.0,0.0,0.0,0.0,0.0,0.0,0.0,0.0,0.0,0.0,0.0,0.0,0.0,0.0,0.0,0.0,0.0,0.0,0.0,0.0,0.0,0.0,0.0,0.0,0.0,0.0,0.0,0.0,0.0,0.0,0.0,0.0,0.0,0.0,0.0,0.0,0.0,0.0,0.0,0.0,0.0,0.0,0.0,0.0,0.0,0.0,0.0,0.0,0.0,0.0,0.0,0.0,0.0,0.0,0.0,0.0,0.0,0.0,0.0,0.0,0.0,0.0,0.0,0.0,0.0,0.0,0.0,0.0,0.0,0.0,0.0,0.0,0.0,0.0,0.0,0.0,0.0,0.0,0.0,0.0,0.0,0.0,0.0,0.0,0.0,0.0,0.0,0.0,0.0,0.0,0.0,0.0,0.0,0.0,0.0,0.0,0.0,0.0,0.0,0.0,0.0,0.0,0.0,0.0,0.0,0.0,0.0,0.0,0.0,0.0,0.0,0.0,0.0,0.0,0.0,0.0,0.0,0.0,0.0,0.0,0.0,0.0,0.0,0.0,0.0,0.0,0.0,0.0,0.0,0.0,0.0,0.0,0.0,0.0,0.0,0.0,0.0,0.0,0.0,0.0,0.0,0.0,0.0,0.0,0.0,0.0,0.0,0.0,0.0,0.0,0.0,0.0,0.0,0.0,0.0,0.0,0.0,0.0,0.0,0.0,0.0,0.0,0.0,0.0,0.0,0.0,0.0,0.0,0.0,0.0,0.0,0.0,0.0,0.0,0.0,0.0,0.0,0.0,0.0,0.0,0.0,0.0,0.0,0.0,0.0,0.0,0.0,0.0,0.0,0.0,0.0,0.0,0.0,0.0,0.0,0.0,0.0,0.0,0.0,0.0,0.0,0.0,0.0,0.0,0.0,0.0,0.0,0.0,0.0,0.0,0.0,0.0,0.0,0.0,0.0,0.0,0.0,0.0,0.0,0.0,0.0,0.0,0.0,0.0,0.0,0.0,0.0,0.0,0.0,0.0,0.0,0.0,0.0,0.0,0.0,0.0,0.0,0.0,0.0,0.0,0.0,0.0,0.0,0.0,0.0,0.0,0.0,0.0,0.0,0.0,0.0,0.0,0.0,0.0,0.0,0.0,0.0,0.0,0.0,0.0,0.0,0.0,0.0,0.0,0.0,0.0,0.0,0.0,0.0,0.0,0.0,0.0,0.0,0.0,0.0,0.0,0.0,0.0,0.0,0.0,0.0,0.0,0.0,0.0,0.0,0.0,0.0,0.0,0.0,0.0,0.0,0.0,0.0,0.0,0.0,0.0,0.0,0.0,0.0,0.0,0.0,0.0,0.0,0.0,0.0,0.0,0.0,0.0,0.0,0.0,0.0,0.0,0.0,0.0,0.0,0.0,0.0,0.0,0.0,0.0,0.0,0.0,0.0,0.0,0.0,0.0,0.0,0.0,0.0,0.0,0.0,0.0,0.0,0.0,0.0,0.0,0.0,0.0,0.0,0.0,0.0,0.0,0.0,0.0,0.0,0.0,0.0,0.0,0.0,0.0,0.0,0.0,0.0,0.0,0.0,0.0,0.0,0.0,0.0,0.0,0.0,0.0,0.0,0.0,0.0,0.0,0.0,0.0,0.0,0.0,0.0,0.0,0.0,0.0,0.0,0.0,0.0,0.0,0.0,0.0,0.0,0.0,0.0,0.0,0.0,0.0,0.0,0.0,0.0,0.0,0.0,0.0,0.0,0.0,0.0,0.0,0.0,0.0,0.0,0.0,0.0,0.0,0.0,0.0,0.0,0.0,0.0,0.0,0.0,0.0,0.0,0.0,0.0,0.0,0.0,0.0,0.0,0.0,0.0,0.0,0.0,0.0,0.0,0.0,0.0,0.0,0.0,0.0,0.0,0.0,0.0,0.0,0.0,0.0,0.0,0.0,0.0,0.0,0.0,0.0,0.0,0.0,0.0,0.0,0.0,0.0,0.0,0.0,0.0,0.0,0.0,0.0,0.0,0.0,0.0,0.0,0.0,0.0,0.0,0.0,0.0,0.0,0.0,0.0,0.0,0.0,0.0,0.0,0.0,0.0,0.0,0.0,0.0,0.0,0.0,0.0,0.0,0.0,0.0,0.0,0.0,0.0,0.0,0.0,0.0,0.0,0.0,0.0,0.0,0.0,0.0,0.0,0.0,0.0,0.0,0.0,0.0,0.0,0.0,0.0,0.0,0.0,0.0,0.0,0.0,0.0,0.0,0.0,0.0,0.0,0.0,0.0,0.0,0.0,0.0,0.0,0.0,0.0,0.0,0.0,0.0,0.0,0.0,0.0,0.0,0.0,0.0,0.0,0.0,0.0,0.0,0.0,0.0,0.0,0.0,0.0,0.0,0.0,0.0,0.0,0.0,0.0,0.0,0.0,0.0,0.0,0.0,0.0,0.0,0.0,0.0,0.0,0.0,0.0,0.0,0.0,0.0,0.0,0.0,0.0,0.0,0.0,0.0,0.0,0.0,0.0,0.0,0.0,0.0,0.0,0.0,0.0,0.0,0.0,0.0,0.0,0.0,0.0,0.0,0.0,0.0,0.0,0.0,0.0,0.0,0.0,0.0,0.0,0.0,0.0,0.0,0.0,0.0,0.0,0.0,0.0,0.0,0.0,0.0,0.0,0.0,0.0,0.0,3.5643,3.4146,0.0,0.0,0.0,0.0,0.0,0.0,0.0,0.0,0.0,0.0,0.0,0.0,0.0,0.0,0.0,0.0,0.0,0.0,0.0,0.0,0.0,0.0,0.0,1.3191,1.3473,1.3592,1.3615,0.0,0.0,0.0,0.0,0.0,0.0,0.0,0.0,0.0,1.7517,1.9619,1.9926,2.1848,2.5241,2.3436,2.1898,2.0606,0.0,0.0,0.0,0.0,0.0,0.0,0.0,0.0,0.0,0.0,0.0,0.0,0.0,0.0,0.0,0.0,0.0,0.0,0.0,0.0,0.0,0.0,0.0,0.0,0.0,0.0,0.0,0.0,0.0,0.0,0.0,0.0,0.0,0.0,0.0,0.0,0.0,0.0,0.0,0.0,0.0,0.0,0.0,0.0,0.0,0.0,0.0,0.0,0.0,0.0,0.0,0.0,0.0,0.0,0.0,0.0,0.0,0.0,0.0,0.0,0.0,0.0,0.0,0.0,0.0,0.0,0.0,0.0,0.0,0.0,3.8579,3.7095,0.0,0.0,0.0,0.0,0.0,0.0,0.0,0.0,0.0,0.0,0.0,0.0,0.0,0.0,0.0,0.0,0.0,0.0,0.0,0.0,0.0,1.3643,1.4246,1.4466,1.4782,1.5358,1.5077,1.4965,1.514,1.4747,0.0,0.0,0.0,0.0,1.6614,1.7976,1.9987,2.2655,2.404,2.5857,2.8104,2.8781,2.7519,2.4625,2.249,0.0,0.0,0.0,0.0,0.0,0.0,0.0,0.0,0.0,0.0,0.0,0.0,0.0,0.0,0.0,0.0,0.0,0.0,0.0,0.0,0.0,0.0,0.0,0.0,0.0,0.0,0.0,0.0,0.0,0.0,0.0,0.0,0.0,0.0,0.0,0.0,0.0,0.0,0.0,0.0,0.0,0.0,0.0,0.0,0.0,0.0,0.0,0.0,0.0,0.0,0.0,0.0,0.0,0.0,0.0,0.0,0.0,0.0,0.0,0.0,0.0,0.0,0.0,4.08,4.1112,4.2167,4.2202,4.286,4.379,4.0742,3.9714,4.0023,3.8822,0.0,0.0,0.0,0.0,0.0,0.0,0.0,0.0,0.0,0.0,0.0,0.0,0.0,0.0,0.0,0.0,0.0,0.0,0.0,1.5383,1.6236,1.6596,1.704,1.7696,1.719,1.7194,1.8067,1.7659,0.0,0.0,0.0,0.0,1.8774,2.0002,2.1747,2.404,2.8258,3.0531,3.09,3.1551,3.1305,3.0222,2.7611,2.6349,2.6041,0.0,0.0,0.0,0.0,0.0,0.0,0.0,0.0,0.0,0.0,0.0,0.0,0.0,0.0,0.0,0.0,0.0,0.0,0.0,0.0,0.0,0.0,0.0,0.0,0.0,0.0,0.0,0.0,0.0,0.0,0.0,0.0,0.0,0.0,0.0,0.0,0.0,0.0,0.0,0.0,0.0,3.2228,3.1243,0.0,0.0,0.0,0.0,0.0,0.0,0.0,0.0,0.0,0.0,0.0,0.0,0.0,4.0112,4.0262,4.0855,4.1564,4.2397,4.2304,4.2366,4.2551,4.27,4.2895,4.3082,4.3133,0.0,4.2576,4.1797,0.0,0.0,0.0,0.0,0.0,0.0,0.0,0.0,0.0,0.0,0.0,0.0,0.0,0.0,0.0,0.0,0.0,0.0,0.0,0.0,0.0,1.9534,2.0733,2.1489,2.1277,2.1083,2.105,2.0225,0.0,0.0,0.0,2.0587,2.1498,2.2773,2.5216,2.8842,3.2105,3.3919,3.426,3.4568,3.4537,3.4198,3.2628,3.0258,2.7334,2.6534,0.0,0.0,0.0,0.0,0.0,0.0,0.0,0.0,0.0,0.0,0.0,0.0,0.0,0.0,0.0,0.0,0.0,0.0,0.0,0.0,0.0,0.0,0.0,0.0,0.0,0.0,0.0,0.0,0.0,0.0,0.0,0.0,0.0,0.0,0.0,0.0,0.0,0.0,0.0,3.1705,3.2351,3.4044,3.4168,3.4137,0.0,0.0,0.0,0.0,0.0,0.0,0.0,0.0,0.0,4.0786,4.1581,4.2081,4.2376,4.2421,4.2988,4.4074,4.4074,4.4477,4.5191,4.5304,4.5266,4.5153,4.5463,4.5363,4.496,4.3645,4.3003,4.2754,0.0,0.0,0.0,0.0,4.0642,4.0935,0.0,0.0,0.0,0.0,0.0,0.0,0.0,0.0,0.0,0.0,0.0,0.0,2.0016,2.2049,2.3739,2.4535,2.4393,2.4143,2.3863,2.3031,2.2545,2.2545,2.2787,2.3305,2.4071,2.558,2.8504,3.2936,3.4844,3.6168,3.6999,3.7184,3.7184,3.6999,3.6661,3.3983,2.9704,2.952,2.795,2.558,0.0,0.0,0.0,0.0,0.0,0.0,0.0,0.0,0.0,0.0,0.0,0.0,0.0,0.0,0.0,0.0,0.0,0.0,0.0,0.0,0.0,0.0,0.0,0.0,0.0,0.0,0.0,0.0,0.0,0.0,0.0,0.0,0.0,0.0,0.0,0.0,0.0,3.2998,3.3675,3.6876,3.6815,3.6569,0.0,0.0,0.0,0.0,0.0,0.0,4.0259,4.1353,4.2283,4.2848,4.3448,4.3831,4.4062,4.4018,4.4557,4.5621,4.5583,4.6074,4.7076,4.7457,4.7441,4.7198,4.7725,4.78,4.7379,4.5487,4.4911,4.521,4.4257,4.3759,4.35,4.3127,4.3145,4.3447,0.0,0.0,0.0,0.0,0.0,0.0,0.0,0.0,0.0,0.0,0.0,2.1614,2.1762,2.3532,2.4987,2.5664,2.5138,2.5236,2.6327,2.6477,2.6566,2.6708,2.7291,2.7228,2.6257,2.8196,3.0905,3.4382,3.5768,3.7123,3.8415,3.9062,3.9031,3.8446,3.9031,3.8108,3.5861,3.3275,3.2105,3.1674,2.8504,0.0,0.0,0.0,0.0,0.0,0.0,0.0,0.0,0.0,0.0,0.0,0.0,0.0,0.0,0.0,0.0,0.0,0.0,0.0,0.0,0.0,0.0,0.0,0.0,0.0,0.0,0.0,0.0,0.0,0.0,0.0,0.0,0.0,0.0,0.0,0.0,0.0,0.0,3.9244,3.9305,0.0,0.0,0.0,0.0,3.9398,4.0043,4.1028,4.2386,4.2509,4.2848,4.3531,4.4795,4.5241,4.488,4.5889,4.6537,4.6795,4.6599,4.6581,4.6674,4.8171,4.8428,4.7973,4.9915,5.0537,4.9957,4.7681,4.6276,4.5603,4.5734,4.5263,4.4579,4.5195,4.568,4.604,0.0,0.0,0.0,1.196,1.2376,1.3201,1.4842,1.583,1.6917,1.8414,2.1227,2.3164,2.3369,2.623,2.8243,2.849,2.8743,2.8865,2.8798,2.8976,2.8925,2.8442,2.8731,2.9327,3.0228,3.1828,3.4321,3.7707,3.9093,4.0262,4.1155,4.1801,4.1771,4.1124,4.094,4.0201,3.8939,3.6661,3.466,3.2906,3.1274,2.9027,0.0,0.0,0.0,0.0,0.0,0.0,0.0,0.0,0.0,0.0,0.0,0.0,0.0,0.0,0.0,0.0,0.0,0.0,0.0,0.0,0.0,0.0,0.0,0.0,0.0,0.0,0.0,0.0,0.0,0.0,0.0,0.0,0.0,0.0,0.0,0.0,0.0,3.9951,4.057,0.0,4.1801,4.2017,4.2109,4.2109,4.2756,4.3556,4.4479,4.451,4.4849,4.5495,4.5988,4.6228,4.6176,4.6593,4.7274,4.8252,4.8798,4.9326,4.9928,5.111,5.1389,5.1074,5.1945,5.2175,5.1778,5.1122,5.0246,4.9233,4.8879,4.8568,4.8239,4.8022,4.8009,4.8119,0.0,0.0,0.0,1.2274,1.2801,1.3807,1.58,1.6652,1.7766,1.98,2.2473,2.4431,2.5073,2.8057,3.008,3.0327,3.1016,3.1226,3.0688,3.0849,3.0719,3.0204,3.0334,3.1582,3.4075,3.4783,3.6815,4.0232,4.137,4.2386,4.3279,4.3956,4.3809,4.291,4.2694,4.2078,4.1089,3.9308,3.6938,3.4383,3.3706,3.1828,2.9304,0.0,0.0,0.0,0.0,0.0,0.0,0.0,0.0,0.0,0.0,0.0,0.0,0.0,0.0,0.0,0.0,0.0,0.0,0.0,0.0,0.0,0.0,0.0,0.0,0.0,0.0,0.0,0.0,0.0,0.0,0.0,0.0,0.0,0.0,3.8385,3.9277,4.1309,4.1771,4.2202,4.2879,4.3347,4.3685,4.3932,4.4579,4.5218,4.5895,4.5926,4.6142,4.6573,4.7034,4.7361,4.7601,4.7985,4.8707,4.9802,5.0516,5.1165,5.1845,5.3107,5.3419,5.3098,5.3958,5.4144,5.3745,5.4174,5.3878,5.3007,5.1654,5.1002,5.0723,5.0215,4.9916,4.9843,0.0,0.0,1.1618,1.2303,1.3215,1.4486,1.6413,1.7294,1.8706,2.1549,2.3613,2.5357,2.6859,2.8834,3.0296,3.0964,3.1632,3.2027,3.1996,3.2085,3.2172,3.2313,3.2481,3.4106,3.7492,3.6938,3.8292,4.1678,4.2386,4.3371,4.4702,4.5341,4.4941,4.3716,4.4394,4.3895,4.2571,4.1181,3.9093,3.6599,3.5861,3.4722,3.3244,0.0,0.0,0.0,0.0,0.0,0.0,0.0,0.0,0.0,0.0,0.0,0.0,0.0,0.0,0.0,0.0,0.0,0.0,0.0,0.0,0.0,0.0,0.0,0.0,0.0,0.0,0.0,0.0,0.0,0.0,0.0,0.0,0.0,4.1494,4.0997,4.134,4.3377,4.3033,4.291,4.3593,4.3655,4.3963,4.4641,4.5249,4.5926,4.6603,4.6634,4.6665,4.6696,4.7989,4.8779,4.9058,5.0179,5.0913,5.1307,5.1593,5.1845,5.2126,5.3929,5.4391,5.3899,5.5947,5.6409,5.5776,5.6532,5.681,5.6532,5.3837,5.239,5.1836,5.1805,5.1506,5.1258,1.132,1.146,1.2055,1.2963,1.3681,1.4904,1.7083,1.7563,1.8886,2.2194,2.4022,2.5705,2.7534,2.9611,3.1019,3.1464,3.2329,3.2597,3.2027,3.3597,3.4755,3.5277,3.5338,3.6507,3.8908,3.9244,4.0847,4.3771,4.4449,4.5218,4.6049,4.6726,4.6603,4.5772,4.5957,4.5311,4.4018,4.3618,4.2202,4.0016,3.7831,3.6138,3.4783,0.0,0.0,0.0,0.0,0.0,0.0,0.0,0.0,0.0,0.0,0.0,0.0,0.0,0.0,0.0,0.0,0.0,0.0,0.0,0.0,0.0,0.0,0.0,0.0,0.0,0.0,0.0,0.0,0.0,0.0,0.0,4.017,4.137,4.1586,4.1863,4.2417,4.347,4.3439,4.3809,4.4949,4.5033,4.5311,4.5988,4.6203,4.6603,4.7281,4.7804,4.8296,4.882,4.9682,5.0198,5.0441,5.077,5.1246,5.1797,5.2567,5.3024,5.3281,5.4962,5.5533,5.5222,5.646,5.6831,5.6532,5.6879,5.6923,5.6686,5.5376,5.476,5.4545,5.4083,5.3775,5.3744,1.1693,1.1815,1.2428,1.3427,1.3981,1.514,1.7739,1.7878,1.9264,2.3625,2.4724,2.6146,2.8961,3.0377,3.1414,3.2186,3.3027,3.3417,3.3049,3.4571,3.5799,3.6476,3.7307,3.8723,4.0755,4.174,4.3279,4.5434,4.6111,4.6788,4.7465,4.7835,4.7681,4.7034,4.7034,4.6419,4.5372,4.4856,4.3932,4.2663,4.0509,3.8662,3.703,3.5799,3.4597,3.3398,3.2536,3.2198,3.2044,3.1459,0.0,0.0,0.0,0.0,0.0,0.0,0.0,0.0,0.0,0.0,0.0,0.0,0.0,0.0,0.0,0.0,0.0,0.0,0.0,0.0,0.0,0.0,0.0,0.0,4.2202,4.3371,4.3648,4.3556,4.3771,4.4726,4.4641,4.4856,4.5895,4.6018,4.6296,4.6973,4.7281,4.7742,4.845,4.9127,4.9682,5.0112,5.0759,5.1172,5.1271,5.158,5.2087,5.2856,5.3627,5.4219,5.4746,5.5889,5.6289,5.6193,5.6738,5.6875,5.681,5.6923,5.6875,5.6779,0.0,0.0,0.0,0.0,5.4252,5.4252,1.2184,1.225,1.2768,1.3726,1.4156,1.5315,1.8157,1.8087,1.9689,2.5166,2.5438,2.6595,3.0475,3.0992,3.1539,3.2755,3.3574,3.4241,3.4691,3.5213,3.5891,3.6692,3.86,4.0536,4.2571,4.3895,4.5249,4.6603,4.7281,4.7958,4.8604,4.8604,4.8296,4.7711,4.7711,4.7342,4.6634,4.5434,4.4856,4.4572,4.334,4.1586,3.9554,3.7738,3.6999,3.6692,3.4783,3.4506,3.4874,3.3521,0.0,0.0,0.0,0.0,0.0,0.0,0.0,0.0,0.0,0.0,0.0,0.0,0.0,0.0,0.0,0.0,0.0,0.0,0.0,0.0,0.0,0.0,0.0,0.0,4.4449,4.5926,4.6511,4.5557,4.5249,4.6449,4.6049,4.5957,4.6634,4.6696,4.7034,4.7773,4.8389,4.9035,4.9743,5.0451,0.0,0.0,0.0,5.1867,5.1929,5.2513,5.325,5.4157,5.4545,5.5131,5.5937,5.6426,5.6686,5.6686,5.6779,5.681,5.681,5.681,5.681,5.681,5.681,5.6409,5.5684,5.4483,5.4022,5.396,1.2233,1.2446,1.3046,1.3781,1.4349,1.5432,1.7587,1.7772,1.9509,2.4624,2.5185,2.6436,2.9964,3.0849,3.1436,3.2146,3.3389,3.4727,3.6045,3.5737,3.6261,3.8046,3.9521,4.1028,4.2571,4.3895,4.5249,4.6603,4.7281,4.7958,4.8604,4.8604,4.8543,4.8419,4.8419,4.805,4.7404,4.7127,4.6388,4.5311,4.451,4.3002,4.1155,4.0755,4.0262,3.9582,3.8659,3.8415,3.8415,3.7615,3.6599,3.5707,3.5707,3.4968,0.0,0.0,0.0,0.0,0.0,0.0,0.0,0.0,0.0,0.0,0.0,0.0,0.0,0.0,0.0,0.0,0.0,0.0,0.0,4.4264,4.5434,4.6449,4.6573,4.6357,4.6296,4.6573,4.648,4.6665,4.7342,4.7404,4.7927,4.9189,4.9404,4.9774,5.0451,5.1128,5.1498,5.1498,5.2175,5.279,5.3345,5.3468,5.3868,5.4591,5.4668,0.0,5.4992,5.5592,5.5899,5.593,5.6563,5.681,5.681,5.681,5.681,5.681,5.681,5.6717,5.6563,5.6317,5.5807,5.5315,1.3313,1.3306,1.3603,1.4255,1.446,1.525,1.7376,1.7373,1.9074,2.442,2.4843,2.6066,2.978,3.0456,3.0985,3.1905,3.3662,3.4912,3.5428,3.6411,3.7109,3.7349,3.973,4.1653,4.2963,4.4381,4.5926,4.7619,4.7958,4.8296,4.8604,4.8604,4.8604,4.8604,4.8604,4.8419,4.8081,4.7742,4.7219,4.6542,4.5865,4.5003,4.3956,4.2602,4.1894,4.1458,4.0786,4.0786,4.0847,3.9462,3.8785,3.8446,3.8108,3.7061,3.5645,0.0,0.0,0.0,0.0,0.0,0.0,0.0,0.0,0.0,0.0,0.0,0.0,0.0,0.0,4.2509,4.3864,0.0,4.608,4.608,4.6665,4.7219,4.7558,4.7311,4.7096,4.7096,4.7096,4.7496,4.8543,4.8635,4.9066,5.0112,5.0513,5.0851,5.119,5.1836,5.2052,5.1713,5.2698,5.3221,5.3221,5.3899,5.4545,5.5222,5.5222,5.5407,5.5745,5.6084,5.6238,5.6238,5.6656,5.681,5.684,5.7179,5.7518,5.7826,5.7826,5.7179,5.6176,5.5869,5.553,5.5161,1.4268,1.404,1.4072,1.462,1.4493,1.5024,1.7164,1.6987,1.851,2.3884,2.4089,2.5118,2.8863,2.9614,3.0461,3.1885,3.3486,3.4332,3.4023,3.63,3.7315,3.6481,3.936,4.1626,4.3012,4.4569,4.6229,4.8019,4.8419,4.8604,4.8604,4.8604,4.8604,4.8604,4.8604,4.8604,4.8573,4.8019,4.7742,4.7558,4.7004,4.6726,4.6357,4.4048,4.3187,4.3094,4.2417,4.2448,4.2509,4.0724,4.0443,4.0812,4.0259,3.9,3.7492,3.6538,3.6476,0.0,0.0,0.0,0.0,0.0,0.0,0.0,0.0,4.0262,4.0447,4.3864,4.4018,4.411,4.5865,4.6603,4.7127,4.7527,4.7711,4.7958,4.8358,4.805,4.7865,4.7989,4.8019,4.845,4.9589,4.9805,5.0174,5.0851,5.1405,5.1713,5.1713,5.2359,5.2452,5.1929,5.3098,5.3591,5.3283,5.436,5.5253,5.5899,5.5899,5.6207,5.681,5.681,5.681,5.681,5.681,5.681,5.684,5.7395,5.7949,5.8393,5.8393,5.7377,5.5838,5.5468,5.5161,5.4853,1.3924,1.3874,1.399,1.43,1.4332,1.4845,1.6479,1.6648,1.8106,2.2246,2.2269,2.2942,2.572,2.8086,3.0171,3.1931,3.1893,3.198,3.2587,3.3927,3.5485,3.7264,3.818,3.9675,4.1751,4.3607,4.498,4.5926,4.7742,4.8604,4.8604,4.8604,4.8604,4.8604,4.8604,4.8604,4.8604,4.8543,4.8142,4.7588,4.7527,4.7127,4.648,4.5588,4.5249,4.5157,4.4479,4.3932,4.3377,4.254,4.2325,4.2355,4.2294,4.2109,4.1555,3.9647,3.8262,3.703,3.5491,3.623,3.8077,4.0447,4.0539,4.1212,0.0,4.4787,4.3994,4.7342,4.7527,4.7311,4.8112,4.8327,4.8204,4.7681,4.8112,4.8327,4.7804,4.8173,4.8727,4.9374,4.9466,4.9528,4.9682,5.0236,5.0851,5.1528,5.1652,5.1713,5.1713,5.2359,5.2667,5.2606,5.3345,5.4237,5.5345,5.5499,5.593,5.6686,5.6686,5.6717,5.681,5.681,5.681,5.681,5.681,5.681,5.681,5.6902,5.6964,5.7025,5.7025,5.6902,5.6748,5.7223,5.6638,5.5561,1.4203,1.4268,1.4349,1.4056,1.4007,1.458,1.6341,1.6431,1.7525,2.0955,2.1104,2.1924,2.4632,2.6746,2.8097,2.8347,2.9783,3.0529,3.0274,3.2513,3.4018,3.441,3.6652,3.8404,3.953,4.2032,4.367,4.4313,4.6036,4.685,4.685,4.725,4.7434,4.7434,4.7434,4.7434,4.7434,4.7434,4.7281,4.7065,4.7434,4.7188,4.6603,4.6726,4.6018,4.4949,4.4271,4.3593,0.0,4.2232,4.174,4.1366,4.1366,4.1366,4.1028,3.9398,3.9059,3.9275,3.9554,3.977,4.0447,4.2756,4.3094,4.3618,4.6388,4.5834,4.5464,4.8081,4.8081,4.7804,4.8481,4.8604,4.8512,4.8235,4.8419,4.8666,4.8789,4.9066,4.9497,5.0205,5.0636,5.0851,5.0851,5.1128,5.1559,5.2236,5.1929,5.1867,5.2267,5.2575,5.2698,5.2698,5.4114,5.4945,5.513,5.593,5.6502,5.681,5.681,5.681,5.681,5.681,5.681,5.681,5.681,5.7025,5.7395,5.7395,5.7641,5.798,5.798,5.7734,5.7333,5.6761,5.6453,5.6317,1.43,1.4365,1.4381,1.3874,1.3791,1.4292,1.5823,1.5846,1.6644,1.9301,1.9454,2.0572,2.3932,2.5061,2.5707,2.6064,2.794,2.8894,2.8303,3.0877,3.2415,3.2533,3.4842,3.6655,3.7882,4.0181,4.1874,4.2878,4.4325,4.5117,4.5311,4.5803,4.6049,4.6049,4.6049,4.6049,4.6049,4.6049,4.6049,4.608,4.6573,4.648,4.608,4.6388,4.5341,4.3778,4.3655,4.3033,4.2263,4.1771,4.1001,4.032,4.0874,4.0689,4.0105,3.9524,3.989,4.0812,4.2232,4.2386,4.2633,4.4633,4.5126,4.5495,4.685,4.6634,4.6603,4.8266,4.8235,4.8019,4.8512,4.8604,4.8604,4.8604,4.8604,4.8881,4.9589,4.9682,5.002,5.0882,5.1405,5.1775,5.1959,5.199,5.2175,5.2667,5.2267,5.2206,5.2698,5.2883,5.3067,5.3283,5.4853,5.5561,5.5284,5.6269,5.681,5.681,5.681,5.681,5.681,5.681,5.681,5.681,5.681,5.7087,5.7549,5.7549,5.7826,5.8239,5.8239,5.798,5.7426,5.6361,5.633,5.6717,1.3941,1.3808,1.3808,1.3791,1.3791,1.4001,1.4568,1.4646,1.5301,1.7077,1.6841,1.8387,2.3298,2.2712,2.3309,2.6747,2.6667,2.6655,2.72,2.8546,3.0549,3.3256,3.2744,3.3923,3.7336,3.7985,3.9352,4.1643,4.2864,4.3879,4.4641,4.4671,4.4671,4.4671,4.4671,4.4671,4.4671,4.4671,4.4671,4.4671,4.4664,4.4702,4.461,4.3963,4.2884,4.1863,4.3162,4.2761,4.1617,4.1617,4.0693,3.9859,4.1925,4.1155,3.9801,4.1124,4.1032,4.0812,4.2232,4.3063,4.4024,4.6018,4.6542,4.688,4.8235,4.8019,4.7742,4.845,4.8604,4.8604,4.8604,4.8604,4.8604,4.8604,4.8604,4.8881,4.9589,4.9682,5.0174,5.1498,5.1682,5.1959,5.2637,5.2698,5.2698,5.2698,5.2698,5.2698,5.2698,5.3345,5.3991,5.4591,5.5345,5.6023,5.6748,5.6779,5.681,5.681,5.681,5.681,5.681,5.681,5.681,5.681,5.681,5.681,5.684,5.684,5.684,5.6871,5.6871,5.6871,5.684,5.6779,5.6779,5.681,1.3924,1.4154,1.4332,1.3874,1.3791,1.387,1.4053,1.4635,1.531,1.5983,1.6571,0.0,0.0,0.0,0.0,0.0,2.3715,2.4493,2.4556,2.6259,2.7967,2.9525,3.091,3.2347,3.3931,3.5525,3.67,3.7361,3.8737,3.9565,3.9854,4.0781,4.1455,4.1879,4.2389,4.2602,4.2602,4.2602,4.2602,4.2633,4.3094,4.3279,4.334,4.3987,4.2848,4.094,0.0,4.0693,3.9554,3.9554,3.9247,3.9123,4.0724,4.072,4.0259,4.072,4.1678,4.254,4.2602,4.3402,4.4764,4.6757,4.725,4.7496,4.8419,4.845,4.8327,4.8573,4.8266,4.7958,4.7958,4.7958,4.7958,4.7958,4.8327,4.9004,5.0205,5.0359,5.0851,5.2206,5.2359,5.2452,5.2698,5.2698,5.2698,5.2698,5.2298,5.2421,5.3345,5.3591,5.4237,5.5345,5.6053,5.6563,5.681,5.681,5.681,5.681,5.681,5.681,5.681,5.681,5.681,5.681,5.681,5.681,5.681,5.681,5.681,5.681,5.681,5.681,5.681,5.681,5.681,5.681,1.3908,1.4154,1.4316,1.3874,1.3791,0.0,0.0,0.0,0.0,0.0,0.0,0.0,0.0,0.0,0.0,0.0,0.0,2.3018,2.3332,2.4845,2.6206,2.7321,2.8821,3.0162,3.1268,3.2641,3.3756,3.4583,3.5302,3.6128,3.7077,3.7754,3.8555,3.9397,3.9889,4.0235,4.0478,4.0478,4.0632,4.0816,4.0539,4.057,4.0786,4.0909,3.9739,0.0,3.8262,3.78,3.7184,3.7892,3.7831,3.7738,3.9551,4.029,4.0628,4.1401,4.254,4.3716,4.4233,4.5033,4.6018,4.7588,4.7958,4.8081,4.8512,4.8604,4.8604,4.8604,4.8081,4.7619,4.7619,4.7619,4.7681,4.7927,4.8327,4.9189,5.082,5.0851,5.119,5.2544,5.2698,5.2698,5.2698,5.2698,5.2698,5.2698,5.2298,5.2637,5.3976,5.4037,5.4699,5.6023,5.6563,5.681,5.681,5.681,5.681,5.681,5.681,5.681,5.681,5.681,5.681,5.681,5.681,5.681,5.681,5.681,5.681,5.681,5.681,5.6964,5.7179,5.7179,5.7179,5.7148,1.3858,1.3825,1.3841,0.0,0.0,0.0,0.0,0.0,0.0,0.0,0.0,0.0,0.0,0.0,0.0,0.0,0.0,0.0,2.3346,2.4094,2.5135,2.6562,2.6553,2.7431,2.9454,2.9371,3.0587,3.3187,3.2559,3.3528,3.6002,3.5461,3.5898,3.7071,3.7105,3.7506,3.8133,3.8133,3.8565,3.8964,3.7122,3.6722,3.7153,3.5306,3.4104,3.349,3.4258,3.4474,3.4751,3.6692,3.6599,3.6138,3.8785,4.0136,4.112,4.3033,4.3685,4.4302,4.6819,4.7558,4.7773,4.845,4.8604,4.8604,4.8604,4.8604,4.8604,4.8573,4.8019,4.7558,4.7558,4.7558,4.7773,4.845,4.8604,4.9312,5.1374,5.1097,5.119,5.2544,5.2698,5.2698,5.2698,5.2698,5.2698,5.2698,5.276,5.3345,5.4621,5.4714,5.5376,5.6779,5.681,5.681,5.681,5.681,5.681,5.681,5.681,5.681,5.681,5.681,5.681,5.681,5.681,5.681,5.681,5.681,5.681,5.681,5.681,5.7241,5.7826,5.7826,5.7857,5.7795,0.0,0.0,0.0,0.0,0.0,0.0,0.0,0.0,0.0,0.0,0.0,0.0,0.0,0.0,0.0,0.0,0.0,0.0,2.1024,2.2351,2.3363,2.3932,2.4821,2.5776,2.6836,2.6849,2.7595,2.918,2.9017,2.9518,3.0599,3.0987,3.16,3.2429,3.2974,3.3321,3.3507,3.3507,3.3845,3.4364,3.4333,3.4699,3.5337,3.5799,3.4906,3.349,3.4258,3.4166,3.3829,3.4936,3.6692,3.8785,4.0539,4.254,4.4202,4.3747,4.4671,4.5865,4.6049,4.685,4.7773,4.845,4.8604,4.8604,4.8604,4.8604,4.8481,4.7958,4.7311,4.685,4.685,4.685,4.7065,4.7742,4.8296,4.9158,5.0728,5.082,5.119,5.2544,5.2698,5.2698,5.2698,5.2698,5.2698,5.2698,5.3191,5.3791,5.4652,5.5191,5.5838,5.6779,5.681,5.681,5.681,5.681,5.681,5.681,5.681,5.681,5.681,5.681,5.681,5.681,5.681,5.681,5.681,5.681,5.681,5.681,5.681,5.7241,5.7826,5.7826,5.8134,5.8485,0.0,0.0,0.0,0.0,0.0,0.0,0.0,0.0,0.0,0.0,0.0,0.0,0.0,0.0,0.0,0.0,0.0,0.0,0.0,2.0951,2.1795,2.256,2.3232,2.4094,2.51,2.5127,2.5697,2.6918,2.6918,2.7352,2.8193,2.8636,2.9348,3.0255,3.0692,3.1061,3.1364,3.1364,3.1691,0.0,0.0,3.2066,3.2351,3.2453,3.1767,3.0874,3.1551,3.229,3.3152,3.4505,3.7153,4.0074,4.0878,4.2571,4.4233,4.4117,4.5033,4.6203,4.6419,4.725,4.8142,4.8512,4.8604,4.8543,4.8235,4.7927,4.7619,4.725,4.6142,4.5526,4.6419,4.6357,4.6573,4.7835,4.8635,4.9558,5.0944,5.1128,5.1528,5.2575,5.2698,5.2698,5.2698,5.2698,5.2698,5.2698,5.3345,5.3976,5.4652,5.5345,5.6023,5.6779,5.681,5.681,5.681,5.681,5.681,5.681,5.681,5.681,5.681,5.681,5.681,5.681,5.681,5.681,5.681,5.681,5.681,5.684,5.7148,5.7857,5.8701,5.9008,5.9532,6.0055,0.0,0.0,0.0,0.0,0.0,0.0,0.0,0.0,0.0,1.7156,1.642,1.6273,1.7363,1.697,0.0,0.0,0.0,0.0,0.0,0.0,2.0465,2.1701,2.1753,2.2368,2.3608,2.3608,2.4204,2.5426,2.5426,2.5995,2.7108,2.7189,2.7803,2.883,2.8998,2.9391,2.99,2.99,3.0279,3.0777,2.9413,2.8883,2.8801,0.0,2.7026,2.7211,2.798,2.9981,3.2567,3.469,3.7554,4.029,4.0659,4.1678,4.3002,4.4326,4.5187,4.5988,4.725,4.8112,4.8604,4.8604,4.8543,4.8296,4.7619,4.6942,4.6419,4.6357,4.4887,4.4178,4.5988,4.5772,4.6018,4.8142,4.8912,4.9835,5.1467,5.1621,5.1867,5.2637,5.2698,5.2698,5.2698,5.2698,5.2698,5.2698,5.3406,5.4068,5.4652,5.5438,5.6115,5.6779,5.681,5.681,5.681,5.681,5.681,5.681,5.681,5.681,5.681,5.681,5.681,5.681,5.681,5.681,5.681,5.681,5.681,5.6871,5.7549,5.8547,5.9747,6.0424,6.1101,6.1594,0.0,0.0,0.0,0.0,0.0,0.0,0.0,0.0,0.0,0.0,1.8511,1.6675,0.0,0.0,0.0,0.0,0.0,0.0,0.0,0.0,0.0,1.9764,1.9997,2.0414,2.1114,2.1141,2.1711,2.2929,2.2929,2.3309,2.3987,2.4475,2.4585,2.4368,2.538,2.5601,2.5273,2.5273,2.5632,2.612,2.5423,2.5262,2.5405,2.4885,0.0,0.0,2.7119,2.9304,3.1886,3.3981,3.6538,3.9247,4.1524,4.2786,4.3716,4.5003,4.5895,4.6603,4.7404,4.8112,4.8604,4.8604,4.8204,4.7619,4.6942,4.6234,4.5618,4.5033,4.424,4.3901,4.4795,4.4425,4.4795,4.7373,4.7404,4.8204,5.1282,5.1221,5.1313,5.2575,5.2698,5.2698,5.2698,5.2698,5.2698,5.2698,5.3822,5.456,5.4683,5.5899,5.6686,5.681,5.681,5.681,5.681,5.681,5.681,5.681,5.681,5.681,5.681,5.681,5.681,5.681,5.681,5.681,5.681,5.681,5.681,5.6871,5.7549,5.8288,5.9039,5.9716,6.0393,6.0948,0.0,0.0,0.0,0.0,0.0,0.0,0.0,2.1383,2.2081,2.4018,2.2742,2.1107,1.9773,1.9157,1.8642,0.0,0.0,0.0,0.0,0.0,0.0,1.895,1.9422,1.9971,2.0468,2.0495,2.0789,2.1358,0.0,2.1819,2.1794,2.2415,2.2551,2.2307,2.2876,2.2983,2.2686,2.2686,2.2865,2.3114,2.3182,2.3078,2.2913,2.3245,0.0,0.0,2.5651,2.785,3.0658,3.2721,3.5214,3.8077,4.1524,4.3063,4.3932,4.5618,4.6357,4.6819,4.7835,4.8358,4.8604,4.8604,4.8358,4.7773,4.6388,4.5557,4.4664,4.331,4.2202,4.1894,4.331,4.3002,4.3433,4.6111,4.7157,4.8358,5.0359,5.159,5.239,5.2667,5.3037,5.3098,5.276,5.2698,5.2852,5.3221,5.4129,5.4683,5.4683,5.6023,5.681,5.681,5.681,5.681,5.681,5.681,5.681,5.681,5.681,5.681,5.681,5.681,5.6994,5.7303,5.6964,5.7025,5.7333,5.7333,5.7333,5.7426,5.8423,5.9224,5.9901,6.0578,6.1255,6.1809,0.0,0.0,0.0,0.0,0.0,0.0,0.0,2.4177,2.4924,2.6715,2.675,2.5772,2.3498,2.165,2.0108,0.0,0.0,0.0,0.0,0.0,0.0,0.0,0.0,0.0,2.0111,0.0,0.0,2.0328,2.0789,0.0,0.0,0.0,0.0,0.0,2.1373,2.14,2.1196,2.1291,2.1339,0.0,0.0,2.1344,2.114,0.0,0.0,0.0,0.0,2.6289,2.8909,3.0899,3.3374,3.6261,3.9941,4.216,4.3809,4.5803,4.6388,4.6696,4.8204,4.8389,4.8204,4.8358,4.8173,4.7465,4.5588,4.451,4.3433,4.1709,4.0262,3.9831,4.1617,4.1524,4.2017,4.4726,4.648,4.8081,4.9682,5.1744,5.3037,5.2944,5.3283,5.3345,5.2975,5.2667,5.276,5.3468,5.4222,5.4806,5.5161,5.6176,5.681,5.681,5.681,5.681,5.681,5.681,5.6871,5.7025,5.7025,5.7118,5.7241,5.7241,5.7549,5.7962,5.7487,5.7549,5.8042,5.8042,5.8134,5.8331,5.9532,6.0332,6.0886,6.1563,6.2056,6.2302,0.0,0.0,0.0,0.0,0.0,0.0,0.0,2.4426,2.585,2.8981,2.8816,2.788,2.6538,2.3824,2.1407,0.0,0.0,0.0,0.0,0.0,0.0,0.0,0.0,0.0,0.0,0.0,0.0,1.9781,1.9836,0.0,0.0,0.0,0.0,0.0,0.0,2.1438,2.0623,2.096,0.0,0.0,0.0,0.0,0.0,0.0,0.0,0.0,0.0,2.5028,2.6272,2.8201,3.0597,3.3159,3.5516,3.9211,4.3094,4.5095,4.568,4.6111,4.8081,4.7711,4.6942,4.7558,4.6788,4.5495,4.4117,4.2786,4.1648,4.0751,3.9521,3.8846,3.9647,3.9705,4.0601,4.3347,4.3963,4.5557,4.9989,5.082,5.1621,5.3406,5.316,5.3037,5.356,5.2513,5.2082,5.276,5.3991,5.5284,5.6563,5.6748,5.681,5.681,5.681,5.681,5.681,5.681,5.7118,5.7734,5.7734,5.8042,5.8608,5.8608,5.8639,5.867,5.8608,5.8639,5.8701,5.8701,5.9039,5.9686,6.0424,6.0763,6.0886,6.1563,6.144,6.0978,0.0,0.0,0.0,0.0,0.0,0.0,2.5099,2.5722,2.7091,3.0403,3.0251,2.9444,2.8529,2.7003,2.4447,2.0514,0.0,0.0,0.0,0.0,0.0,0.0,0.0,0.0,0.0,0.0,1.9197,1.9152,1.9789,0.0,0.0,0.0,0.0,0.0,0.0,2.0243,1.9906,1.9891,0.0,0.0,0.0,0.0,0.0,0.0,0.0,0.0,0.0,0.0,2.5674,2.733,2.9633,3.2115,3.3849,3.6768,4.0108,4.2971,4.3784,4.4256,4.673,4.7004,4.6665,4.6942,4.5988,4.4633,4.3279,4.1925,4.0416,3.8508,3.7677,3.7246,3.7123,3.7738,3.8939,4.0816,4.3187,4.5741,4.845,5.0605,5.2359,5.3591,5.3468,5.3437,5.3637,5.2852,5.276,5.3791,5.5191,5.6207,5.6779,5.681,5.681,5.681,5.681,5.681,5.681,5.681,5.7148,5.7826,5.7826,5.8165,5.8793,5.8793,5.9008,5.9378,5.8947,5.9008,5.9408,5.9839,6.0147,6.0517,6.1594,6.1779,6.144,6.1717,6.1379,6.0794,0.0,0.0,0.0,0.0,0.0,2.3111,2.5571,2.6431,2.7737,3.0406,3.0484,3.0012,2.929,2.8636,2.6386,2.1873,2.0874,0.0,0.0,0.0,0.0,0.0,0.0,0.0,0.0,0.0,1.9439,1.9278,2.0041,2.0215,0.0,0.0,2.0091,2.0408,0.0,0.0,0.0,0.0,0.0,0.0,0.0,0.0,0.0,0.0,0.0,0.0,0.0,0.0,0.0,0.0,0.0,3.0457,3.1736,3.3637,3.6257,4.0685,4.209,4.2804,4.5563,4.6142,4.608,4.648,4.5126,4.3494,4.2786,4.0909,3.8723,3.663,3.6045,3.5706,3.4999,3.6138,3.7646,3.9,4.214,4.5003,4.6757,4.9774,5.2298,5.356,5.3714,5.3868,5.4268,5.3345,5.3283,5.4591,5.5622,5.633,5.6779,5.681,5.681,5.681,5.681,5.6902,5.7118,5.7118,5.7549,5.8362,5.8362,5.8731,5.9378,5.9162,5.9439,6.0055,5.9378,5.947,6.0147,6.0824,6.1225,6.1502,6.2671,6.2702,6.2117,6.2117,6.1563,6.0794,0.0,0.0,0.0,0.0,0.0,0.0,2.4387,2.6134,2.7654,2.8672,2.9251,2.9285,2.8655,2.796,2.651,2.3984,2.2306,0.0,0.0,0.0,0.0,0.0,0.0,0.0,0.0,0.0,1.978,2.0387,2.0387,2.0387,2.0387,2.0387,2.0387,2.0429,0.0,0.0,0.0,0.0,0.0,0.0,0.0,0.0,0.0,0.0,0.0,0.0,0.0,0.0,0.0,0.0,0.0,0.0,0.0,2.9448,3.1688,3.8555,4.1063,4.2202,4.488,4.5126,4.4949,4.6265,4.411,4.1801,4.2448,3.9462,3.6353,3.5675,3.4998,3.432,3.3552,3.5122,3.6938,3.8292,4.0262,4.2571,4.5249,4.7989,5.0697,5.3406,5.3714,5.4237,5.553,5.3868,5.3283,5.4591,5.4683,5.5345,5.6748,5.681,5.681,5.681,5.681,5.7118,5.7795,5.7795,5.8423,5.9778,5.9778,6.0116,6.0763,6.0086,6.0147,6.0763,6.0086,6.0178,6.0824,6.1502,6.2179,6.2856,6.3564,6.341,6.2794,6.2794,6.1963,6.0794,0.0,0.0,0.0,0.0,0.0,0.0,0.0,2.3427,2.4357,2.6385,2.6182,2.6497,2.8318,2.7145,2.5618,2.4134,2.2701,0.0,0.0,0.0,0.0,0.0,0.0,0.0,0.0,2.0851,2.1846,2.2162,2.2965,2.3166,2.2803,2.2791,2.2723,2.2569,2.2399,2.2282,0.0,0.0,0.0,0.0,0.0,0.0,0.0,0.0,0.0,0.0,0.0,0.0,0.0,0.0,0.0,0.0,0.0,0.0,0.0,3.3925,3.5753,3.7421,4.1122,4.1237,4.0696,4.2071,4.0222,3.8125,3.8378,3.6692,3.4813,3.3614,3.3583,3.3521,3.2844,3.5153,3.7615,3.897,4.2078,4.4787,4.608,4.8635,5.0851,5.2175,5.316,5.4083,5.4945,5.4453,5.4453,5.5315,5.5838,5.6347,5.6779,5.681,5.681,5.681,5.681,5.6902,5.7118,5.7118,5.7795,5.9101,5.9101,5.9686,6.0794,6.0578,6.0609,6.0794,6.0578,6.0855,6.1532,6.221,6.2887,6.3564,6.4272,6.3841,6.2825,6.2825,6.1963,6.0794,0.0,0.0,0.0,0.0,0.0,0.0,0.0,2.1984,2.262,2.4003,2.3817,2.4408,2.6722,2.5664,2.4452,2.3619,2.2549,0.0,0.0,0.0,0.0,0.0,0.0,0.0,1.9857,2.1736,2.3246,2.4374,2.534,2.5781,2.5732,2.5977,2.5604,2.471,2.4225,2.3888,0.0,0.0,0.0,0.0,0.0,0.0,2.3283,0.0,0.0,0.0,0.0,0.0,0.0,0.0,0.0,0.0,0.0,0.0,0.0,0.0,3.1805,3.3374,3.7813,3.8728,3.8697,3.9837,3.8086,3.6155,3.6413,3.5029,3.3396,3.2259,3.2752,3.3213,3.2505,3.5183,3.7954,3.9275,4.2294,4.488,4.6049,4.8358,5.0636,5.2606,5.3806,5.4545,5.4652,5.4468,5.4607,5.5284,5.5961,5.6532,5.681,5.681,5.681,5.681,5.681,5.7056,5.758,5.758,5.8258,5.9532,5.9285,5.9747,6.0794,6.027,6.0301,6.0794,6.0517,6.0948,0.0,6.2548,6.3225,6.3872,6.4334,6.381,6.2794,6.2517,6.1748,6.0794,0.0,0.0,0.0,0.0,0.0,0.0,0.0,2.1635,2.2203,2.1736,2.2154,2.2919,2.4124,2.3678,2.3098,2.2573,0.0,0.0,0.0,0.0,0.0,0.0,0.0,0.0,2.0571,2.2102,2.4108,2.6579,2.7475,2.8196,2.8819,2.9576,2.8798,2.6844,2.6596,2.601,0.0,0.0,0.0,0.0,2.3363,2.3733,0.0,0.0,0.0,0.0,0.0,0.0,0.0,0.0,0.0,0.0,0.0,0.0,0.0,0.0,0.0,0.0,0.0,3.709,3.8315,3.909,3.7337,3.5615,3.6199,3.4383,0.0,3.1701,3.2567,3.3275,3.2659,3.5368,3.8169,3.9585,4.1586,4.3648,4.5588,4.7588,5.0328,5.4283,5.5253,5.5345,5.4806,5.4129,5.4037,5.4714,5.5407,5.6053,5.6779,5.681,5.681,5.681,5.6871,5.7487,5.8701,5.8762,5.9439,6.0732,6.0055,6.0086,6.0763,5.9439,5.9562,6.0763,6.0178,6.0671,6.1933,6.261,6.3287,6.3903,6.3841,6.341,6.2733,6.2056,6.1379,6.0794,0.0,0.0,0.0,0.0,0.0,0.0,0.0,0.0,0.0,0.0,2.1441,2.1735,2.292,2.1971,2.1446,0.0,0.0,0.0,0.0,0.0,0.0,0.0,0.0,0.0,2.2156,2.3828,2.5243,2.6382,2.8695,2.9897,3.0046,3.1255,3.1011,2.9434,2.7871,2.6195,0.0,0.0,0.0,0.0,2.4071,2.4164,0.0,0.0,0.0,0.0,2.4317,2.4317,0.0,0.0,0.0,0.0,0.0,0.0,0.0,0.0,2.8596,2.9745,3.1405,0.0,3.4958,3.6746,3.5917,3.4727,0.0,3.4474,3.3796,3.3059,3.3614,3.4197,3.4043,3.7184,4.0416,4.2325,4.4756,4.6973,4.8512,5.002,5.2082,5.5099,5.4699,5.4514,5.5376,5.4884,5.476,5.5407,5.6115,5.6625,5.681,5.681,5.681,5.681,5.7303,5.7734,5.7993,5.8516,5.9193,6.0024,5.9347,5.9624,6.0763,5.9932,6.0024,6.0824,6.1194,6.1809,6.2641,6.3318,6.3995,6.458,6.4026,6.341,6.2733,6.2056,6.1379,6.0794,0.0,0.0,0.0,0.0,0.0,0.0,0.0,0.0,0.0,0.0,0.0,2.0509,2.1417,2.0909,0.0,0.0,0.0,0.0,0.0,0.0,0.0,0.0,0.0,2.3336,2.3627,2.5352,2.7057,2.8658,3.0464,3.168,3.2321,3.3052,3.2503,3.0751,2.8104,2.5949,0.0,0.0,0.0,0.0,2.3979,0.0,0.0,0.0,0.0,0.0,2.4317,2.4317,0.0,2.5004,2.5004,2.4902,0.0,0.0,0.0,0.0,2.7673,2.8781,3.0048,3.1611,3.3246,3.4696,3.4515,3.3939,3.4017,3.4505,3.4844,3.4445,3.5399,3.6415,3.6722,3.9862,4.2633,4.347,4.5834,4.8204,4.9897,5.159,5.3375,5.5438,5.4791,5.4576,5.5592,5.5099,5.5007,5.5653,5.6361,5.681,5.681,5.681,5.681,5.681,5.7765,5.8239,5.8239,5.8916,5.9439,5.9778,5.9101,5.9316,6.0301,5.9624,5.987,6.0824,6.1502,6.2179,6.2856,6.3533,6.4241,6.4795,6.3779,6.3133,6.2702,6.1717,6.1101,6.0794,0.0,0.0,0.0,0.0,0.0,0.0,0.0,0.0,0.0,0.0,0.0,0.0,0.0,0.0,0.0,0.0,0.0,0.0,0.0,0.0,0.0,0.0,2.3091,2.4487,2.4972,2.6864,2.8965,3.1243,3.2628,3.3921,3.5121,3.5213,3.3889,3.127,2.8104,2.5857,2.441,0.0,0.0,0.0,2.3671,0.0,0.0,0.0,0.0,0.0,0.0,0.0,0.0,2.5619,2.5619,2.525,2.5887,0.0,0.0,0.0,0.0,0.0,2.9956,3.1613,3.2844,3.3429,3.3644,3.3767,3.3983,3.5029,3.5984,3.6076,3.7461,3.8939,3.9797,4.2325,4.4302,4.424,4.6449,4.8912,5.0882,5.2729,5.436,5.5684,5.5191,5.4898,5.5499,5.5037,5.4914,5.5345,5.6286,5.6748,5.6656,5.6748,5.681,5.681,5.8134,5.8793,5.8793,5.9562,5.9901,5.9778,5.9101,5.9131,5.9778,5.9101,5.9532,6.0824,6.1625,6.224,6.2733,6.3626,6.421,6.4457,6.3287,6.2764,6.2517,6.1255,6.0794,6.0794,0.0,0.0,0.0,0.0,0.0,0.0,0.0,0.0,0.0,0.0,0.0,0.0,0.0,0.0,0.0,0.0,0.0,0.0,0.0,0.0,0.0,2.2056,2.3497,2.4881,2.6128,2.8664,3.014,3.054,3.5276,3.7677,3.7892,3.8477,3.6107,3.1274,2.9089,2.6995,2.5096,2.4441,0.0,2.4287,2.4194,0.0,0.0,0.0,0.0,0.0,0.0,0.0,0.0,2.4533,2.4533,2.4451,2.4594,0.0,0.0,0.0,0.0,0.0,3.0535,3.2687,3.4197,3.432,3.4782,3.546,3.6599,3.7492,3.82,3.8785,3.9121,3.9924,4.1801,4.2571,4.3802,4.6542,4.9281,5.159,5.3037,5.3976,5.5068,5.6502,5.5499,5.4714,5.4806,5.4745,5.4498,5.4052,5.5715,5.6532,5.5899,5.6471,5.681,5.681,5.8134,5.8793,5.8793,6.0024,6.0363,5.9778,5.9101,5.9131,5.9778,5.9101,5.9532,6.0886,6.2117,6.2394,6.2117,6.3964,6.4118,6.3102,6.2887,6.2456,6.1871,6.1101,6.0794,6.0794,0.0,0.0,0.0,0.0,0.0,0.0,0.0,0.0,0.0,0.0,0.0,0.0,0.0,0.0,0.0,0.0,0.0,0.0,0.0,0.0,2.2778,2.3887,2.4902,2.6072,2.7457,3.0104,3.2044,3.3152,3.7123,3.9062,3.9031,3.8262,3.5553,3.1332,2.9304,2.7488,2.5826,2.4748,2.4317,2.4317,0.0,0.0,0.0,0.0,0.0,0.0,0.0,0.0,0.0,0.0,2.482,2.482,2.482,0.0,0.0,0.0,0.0,0.0,2.9797,3.1797,3.3642,3.4782,3.6353,3.8015,3.94,4.0232,4.0909,4.1586,4.2294,4.3094,4.4048,4.5126,4.6603,4.8912,5.0328,5.1621,5.2975,5.3775,5.4668,5.6023,5.5315,5.5007,5.5745,5.5468,5.5284,5.5345,5.6286,5.6656,5.63,5.6625,5.681,5.681,5.8134,5.8793,5.8793,6.0116,6.027,5.9255,5.8947,5.8947,5.9224,5.8916,5.9532,6.0855,6.184,6.2086,6.1902,6.3225,6.3379,6.2764,6.2425,6.2086,6.1717,6.104,6.0794,6.0855,0.0,0.0,0.0,0.0,0.0,0.0,0.0,0.0,0.0,0.0,0.0,0.0,0.0,0.0,0.0,0.0,0.0,0.0,0.0,2.1565,2.2994,2.4533,2.6041,2.7642,2.9304,3.1828,3.4198,3.6445,3.9154,4.0139,3.9493,3.7923,3.5214,3.1551,2.9858,2.8165,2.6534,2.5118,2.4441,2.4317,0.0,0.0,0.0,0.0,0.0,0.0,0.0,0.0,0.0,0.0,0.0,0.0,0.0,0.0,0.0,2.5865,2.6718,2.7765,2.9427,3.1582,3.3921,3.6322,3.8108,3.9708,4.1247,4.2479,4.3402,4.3778,4.4918,4.5926,4.6234,4.7835,4.9435,5.0513,5.082,5.1405,5.276,5.3406,5.4206,5.553,5.513,5.5191,5.644,5.6023,5.5869,5.6269,5.6625,5.6748,5.6563,5.6717,5.681,5.681,5.8134,5.8793,5.8793,6.0116,6.0209,5.9008,5.8854,5.8793,5.8793,5.8793,5.9532,6.0824,6.1502,6.1902,6.2086,6.261,6.2733,6.2517,6.2025,6.1717,6.1502,6.0978,6.0794,6.0886,0.0,0.0,0.0,0.0,0.0,0.0,0.0,0.0,0.0,0.0,0.0,0.0,0.0,0.0,0.0,0.0,0.0,0.0,0.0,2.1565,2.2347,2.2501,2.6195,2.9458,3.2044,3.4168,3.6569,3.9182,4.1955,4.1986,3.949,3.9336,3.6815,3.229,3.152,2.9735,2.7242,2.5826,2.485,2.4317,2.4317,0.0,0.0,0.0,0.0,0.0,0.0,0.0,0.0,0.0,0.0,0.0,0.0,0.0,2.4502,2.5158,2.6349,2.795,3.0535,3.3675,3.6999,4.0324,3.9862,3.9123,4.1124,4.3556,4.5218,4.4671,4.5588,4.6911,4.8173,4.9589,5.0574,5.0667,5.1221,5.2113,5.3468,5.3637,5.4206,5.553,5.513,5.5007,5.5715,5.5715,5.5468,5.4868,5.6053,5.6532,5.5807,5.644,5.681,5.681,5.8134,5.8793,5.8793,6.0116,6.0424,5.9716,5.907,5.8793,5.8793,5.8793,5.9532,6.0824,6.1502,6.2148,6.2764,6.2794,6.2456,6.1871,6.184,6.144,6.0855,6.0824,6.0794,6.0886,0.0,0.0,0.0,0.0,0.0,0.0,0.0,0.0,0.0,0.0,0.0,0.0,0.0,0.0,0.0,0.0,0.0,0.0,0.0,2.1781,2.284,2.4102,2.6503,2.9427,3.2936,3.5891,3.8692,4.1432,4.2915,4.2633,4.0786,3.9493,3.6784,3.2967,3.189,3.0135,2.7919,2.605,2.4912,2.4317,2.4317,2.4317,0.0,0.0,0.0,0.0,0.0,0.0,0.0,0.0,2.4789,2.4881,2.4748,2.4789,2.5056,2.5764,2.755,2.9673,3.152,3.5122,3.8785,4.0474,4.1617,4.2725,4.4326,4.5157,4.5649,4.5803,4.6573,4.765,4.9035,5.0051,5.082,5.1251,5.1898,5.2359,5.2452,5.3191,5.3899,5.4422,5.4976,5.5592,5.63,5.6361,5.6317,5.6023,5.6532,5.6686,5.6409,5.6656,5.681,5.681,5.8134,5.8793,5.8793,6.0116,6.0671,6.0393,5.9716,5.9408,5.9408,5.9408,6.0147,6.1409,6.1255,6.1563,6.2148,6.1748,6.1409,6.1194,6.1194,6.1009,6.0794,6.0794,6.1071,6.1532,0.0,0.0,0.0,0.0,0.0,0.0,0.0,0.0,0.0,0.0,0.0,0.0,0.0,0.0,0.0,0.0,0.0,0.0,2.1257,2.1935,2.3086,2.4933,2.6749,2.9304,3.269,3.6538,3.9862,4.2602,4.3063,4.2232,4.0262,3.8631,3.6384,3.3675,3.2102,3.0381,2.8596,2.648,2.5096,2.4317,2.4317,2.4317,0.0,0.0,0.0,0.0,0.0,0.0,0.0,0.0,2.4779,2.4943,2.4687,2.4789,2.5189,2.638,2.8627,3.112,3.2875,3.6692,4.0447,4.1524,4.3217,4.4941,4.6296,4.6419,4.6357,4.6819,4.7619,4.8604,4.9805,5.0543,5.1251,5.1929,5.2421,5.2544,5.2082,5.2821,5.356,5.3991,5.4853,5.5745,5.6717,5.681,5.681,5.681,5.681,5.681,5.681,5.681,5.681,5.681,5.8134,5.8793,5.8793,6.0116,6.0794,6.0794,6.0332,5.987,5.947,5.947,6.0086,6.1132,6.0671,6.1101,6.2056,6.1163,6.0794,6.0794,6.0794,6.0794,6.0824,6.104,6.1409,6.1933,0.0,0.0,0.0,0.0,0.0,0.0,0.0,0.0,0.0,0.0,0.0,0.0,0.0,0.0,0.0,0.0,0.0,0.0,2.1257,2.1935,2.2902,2.4225,2.6934,2.9304,3.1332,3.6045,3.9831,4.2602,4.2602,4.0847,3.7492,3.6815,3.5768,3.4382,3.2348,3.0658,2.9248,2.7188,2.5527,2.4317,2.4317,2.4317,2.4317,0.0,0.0,0.0,0.0,0.0,0.0,0.0,2.485,2.4441,2.5066,2.485,2.4748,2.6811,2.9304,3.204,3.4782,3.8477,4.2109,4.4079,4.461,4.4941,4.6296,4.7127,4.7588,4.7619,4.8727,4.9897,5.0574,5.1251,5.1929,5.2606,5.2698,5.2698,5.2698,5.2698,5.3221,5.4529,5.4683,5.5284,5.6686,5.681,5.681,5.681,5.681,5.681,5.681,5.681,5.681,5.681,5.8134,5.8793,5.8793,6.0116,6.0794,6.0794,6.0794,6.0086,5.8793,5.8824,5.9162,5.9809,5.9809,6.0948,6.2702,6.1348,6.0794,6.0794,6.0794,6.0794,6.0886,6.1563,6.1809,6.2025,0.0,0.0,0.0,0.0,0.0,0.0,0.0,0.0,0.0,0.0,0.0,0.0,0.0,0.0,0.0,0.0,0.0,0.0,2.1257,2.1935,2.2686,2.3548,2.5764,2.7488,2.8565,3.3244,3.7954,4.2602,4.214,4.0139,3.6784,3.6569,3.4999,3.2317,3.2167,3.0566,2.7919,2.6842,2.558,2.4348,2.4789,2.4697,2.4348,0.0,0.0,0.0,0.0,0.0,0.0,0.0,0.0,0.0,2.4666,2.5456,2.6688,2.7796,3.0351,3.3398,3.6168,3.9862,4.3285,4.4332,4.4941,4.5526,4.6388,4.6388,4.6449,4.7404,4.8727,4.9743,4.9959,5.0913,5.1775,5.1959,5.239,5.2544,5.2082,5.2821,5.356,5.3914,5.4853,5.5776,5.6717,5.681,5.681,5.681,5.681,5.681,5.681,5.681,5.681,5.681,5.8134,5.8793,5.8793,6.0116,6.0794,6.0794,6.0794,6.0578,6.0209,6.0701,6.1009,6.1225,6.1225,6.1563,6.2025,6.1163,6.0794,6.0794,6.0794,6.0794,6.0886,6.1563,6.2117,6.2641,0.0,0.0,0.0,0.0,0.0,0.0,0.0,0.0,0.0,0.0,2.032,2.032,0.0,0.0,0.0,0.0,0.0,0.0,2.1257,2.1935,2.2736,2.3671,2.5149,2.6657,2.8165,3.1767,3.5399,3.897,3.9647,3.8508,3.5707,3.5953,3.4845,3.2656,3.2752,3.1366,2.8904,2.7703,2.6534,2.5549,2.5672,2.5487,2.5127,0.0,0.0,0.0,0.0,0.0,0.0,0.0,0.0,0.0,2.4256,2.5179,2.6718,2.955,3.2198,3.506,3.8877,4.2114,4.4641,4.5557,4.568,4.5772,4.6449,4.648,4.6603,4.7434,4.8727,4.9774,5.0051,5.0974,5.1805,5.2052,5.2452,5.2575,5.2144,5.279,5.3529,5.4006,5.4822,5.5684,5.6717,5.681,5.681,5.681,5.681,5.681,5.681,5.681,5.681,5.681,5.8134,5.8793,5.8793,6.0116,6.0794,6.0794,6.0794,6.0794,6.0824,6.1225,6.1255,6.1009,6.1286,6.1409,6.1379,6.0978,6.0794,6.0794,6.0794,6.0948,6.1286,6.1963,6.2641,6.3318,0.0,0.0,0.0,0.0,0.0,0.0,0.0,0.0,0.0,2.0196,2.032,2.032,0.0,0.0,0.0,2.032,2.032,2.0549,2.1165,2.1843,2.2778,2.4071,2.4902,2.6542,2.9248,3.1089,3.2413,3.3213,3.5984,3.6292,3.432,3.5152,3.5059,3.4197,3.3583,3.2536,3.1089,2.915,2.7919,2.7242,2.6688,2.638,2.6234,2.6296,0.0,0.0,0.0,0.0,0.0,0.0,0.0,0.0,2.3917,2.4441,2.5703,3.1459,3.426,3.663,4.1837,4.4332,4.5741,4.7096,4.6542,4.5834,4.6449,4.7127,4.7619,4.7681,4.8758,4.9866,5.0482,5.1221,5.1898,5.2513,5.2667,5.2698,5.2698,5.2698,5.3191,5.4437,5.4652,5.5253,5.6594,5.6779,5.681,5.681,5.681,5.681,5.681,5.681,5.681,5.681,5.8134,5.8793,5.8793,6.0116,6.0794,6.0794,6.0794,6.0794,6.0794,6.0917,6.064,6.0086,6.0578,6.0794,6.0794,6.0794,6.0794,6.0794,6.0794,6.1225,6.1902,6.2579,6.3256,6.3933,0.0,0.0,0.0,0.0,0.0,0.0,0.0,0.0,1.8884,2.0135,2.032,2.032,2.032,2.032,0.0,2.032,2.032,2.0381,2.0505,2.1134,2.1874,2.2686,2.4379,2.6327,2.8565,2.9058,3.0104,3.1855,3.4568,3.4845,3.2875,3.469,3.4289,3.2102,3.2444,3.1582,2.9735,2.8258,2.7211,2.6626,2.7026,2.6503,2.5588,2.6164,2.5087,0.0,0.0,0.0,0.0,0.0,0.0,0.0,2.404,2.5426,2.7303,3.0228,3.3152,3.6199,3.9493,4.2171,4.4363,4.568,4.6203,4.6419,4.6573,4.7127,4.7742,4.8296,4.9097,4.9743,4.9866,5.0882,5.1744,5.1898,5.2359,5.2698,5.2698,5.2698,5.3006,5.3837,5.4345,5.5037,5.5838,5.6471,5.681,5.681,5.681,5.681,5.681,5.681,5.681,5.681,5.8134,5.8793,5.8793,6.0116,6.0794,6.0794,6.0794,6.0794,6.0824,6.1902,6.2302,6.2117,6.1194,6.0794,6.0794,6.0794,6.0794,6.0794,6.0794,6.1225,6.1902,6.2579,6.3256,6.3933,0.0,0.0,0.0,0.0,0.0,0.0,0.0,0.0,1.8992,1.9734,1.9826,1.9703,1.9331,1.93,0.0,0.0,1.9826,1.995,2.0289,2.0919,2.175,2.2717,2.3794,2.4995,2.6411,2.7088,2.795,2.8965,3.1397,3.2198,3.149,3.3891,3.3735,3.1459,3.3121,3.2752,3.072,2.9058,2.8165,2.7796,2.7149,2.6657,2.6349,2.6718,2.5795,2.4164,2.3486,0.0,0.0,0.0,0.0,0.0,0.0,0.0,2.6626,3.0289,3.2844,3.5368,3.94,4.1555,4.3131,4.5095,4.6573,4.7465,4.7157,4.7619,4.8173,4.8543,4.8912,4.9374,5.0051,5.0759,5.1436,5.2082,5.2483,5.2698,5.2698,5.2698,5.2975,5.3607,5.4283,5.4976,5.5622,5.6378,5.681,5.681,5.681,5.681,5.681,5.681,5.681,5.681,5.8134,5.8793,5.8793,6.0116,6.0794,6.0794,6.0794,6.1132,6.1779,6.184,6.221,6.2733,6.1379,6.0794,6.0794,6.0794,6.0794,6.0824,6.1163,6.1686,6.2364,6.3041,6.3749,6.4395,0.0,0.0,0.0,0.0,0.0,0.0,0.0,0.0,0.0,1.907,1.9117,1.8885,1.8284,1.8207,1.8453,0.0,0.0,0.0,2.0073,2.0857,2.1843,2.3055,2.324,2.3671,2.4471,2.561,2.6257,2.6327,2.8042,2.9279,3.0109,3.2721,3.2995,3.1336,3.3735,3.3891,3.229,3.0381,2.9556,2.9402,2.7557,2.7149,2.755,2.7426,2.6595,2.5373,2.4697,2.3979,2.3209,2.2655,0.0,0.0,0.0,0.0,2.561,3.0474,3.2598,3.4537,3.9677,4.1648,4.2817,4.5033,4.7034,4.8296,4.7742,4.8112,4.8604,4.8604,4.8604,4.9035,5.0451,5.0697,5.1128,5.2483,5.2698,5.2698,5.2698,5.2698,5.2914,5.3468,5.4191,5.4945,5.5468,5.6269,5.6748,5.6625,5.6748,5.6748,5.6625,5.6748,5.681,5.681,5.8011,5.867,5.8793,6.0024,6.0701,6.0794,6.0917,6.1563,6.261,6.1471,6.1656,6.2733,6.1379,6.0794,6.0794,6.0794,6.0794,6.0855,6.1532,6.221,6.2887,6.3564,6.4272,6.4888,0.0,0.0,0.0,0.0,0.0,0.0,0.0,0.0,0.0,0.0,1.8345,1.8315,1.8207,1.8207,1.8253,1.8345,1.8345,1.8668,1.9395,0.0,0.0,2.2397,2.2994,2.3887,2.5127,2.5342,2.5764,2.638,2.6657,2.7426,2.8719,3.0812,3.1366,3.0571,3.152,3.2105,3.229,3.0848,3.0263,3.0171,2.931,2.8719,2.8196,2.7611,2.6903,2.6081,2.5404,2.4379,2.3302,2.3209,2.3117,0.0,0.0,0.0,2.6595,2.9089,3.152,3.4198,3.7923,4.1925,4.5126,4.5495,4.6665,4.7711,4.7619,4.8112,4.8604,4.8604,4.8604,4.9035,5.0451,5.0697,5.1128,5.2483,5.2698,5.2698,5.2698,5.2698,5.276,5.2821,5.3914,5.4714,5.4806,5.6023,5.6563,5.5869,5.6471,5.6532,5.5869,5.6471,5.681,5.681,5.7549,5.8177,5.8762,5.9532,6.0209,6.0824,6.1379,6.1779,6.1933,6.1748,6.2086,6.2733,6.1379,6.0794,6.0794,6.0794,6.0794,6.0855,6.1532,6.221,6.2887,6.3564,6.4272,6.4888,0.0,0.0,0.0,0.0,0.0,0.0,0.0,0.0,0.0,0.0,0.0,1.7516,1.7116,1.7085,1.7239,1.7608,1.7638,1.8115,1.924,1.9857,2.0641,2.1689,2.1658,2.2409,2.4133,2.4194,2.4533,2.521,2.638,2.7457,2.8442,2.9704,3.0535,3.0966,3.1274,3.1767,3.229,3.0971,3.0386,3.0325,2.9679,2.992,3.0505,2.9058,2.952,3.0597,2.8411,2.7242,2.6534,2.5373,2.4481,2.3979,2.4656,0.0,0.0,0.0,2.9643,3.2228,3.7184,4.1432,4.4764,4.5865,4.688,4.7711,4.8081,4.8112,4.8173,4.8543,4.8604,4.8943,4.9928,5.0451,5.1005,5.199,5.2452,5.2698,5.2698,5.2698,5.2698,5.2698,5.356,5.4283,5.4652,5.5284,5.5807,5.6317,5.6207,5.6361,5.6823,5.684,5.6994,5.7364,5.8042,5.8485,5.8793,5.9839,6.0517,6.0794,6.1101,6.144,6.1809,6.1409,6.1625,6.221,6.1225,6.0794,6.0794,6.0794,6.1009,6.144,6.2117,6.2794,6.3472,6.418,6.4641,6.4888,0.0,0.0,0.0,0.0,0.0,0.0,0.0,0.0,0.0,0.0,0.0,1.727,1.6747,0.0,0.0,0.0,1.7055,1.7469,1.87,1.8916,1.9471,2.047,2.0025,2.0641,2.2501,2.2686,2.3209,2.404,2.5764,2.7303,2.8688,2.9181,3.0412,3.2163,3.164,3.1701,3.2105,3.1459,3.1247,3.1428,3.1089,3.1859,3.3029,3.1705,3.2782,3.4659,3.1921,3.0505,2.9643,2.7926,2.6204,2.4933,2.5426,2.5118,0.0,0.0,0.0,3.1459,3.6199,4.0078,4.3279,4.5311,4.648,4.7373,4.8389,4.8235,4.8019,4.8512,4.8604,4.8789,4.9312,5.0112,5.0913,5.159,5.2267,5.2698,5.2698,5.2698,5.2698,5.2698,5.3314,5.3945,5.4621,5.5037,5.5592,5.6471,5.6484,5.6792,5.7518,5.7241,5.7364,5.7993,5.8362,5.8701,5.9039,6.0209,6.0794,6.0794,6.0978,6.1225,6.1532,6.1194,6.1225,6.1532,6.1009,6.0794,6.0794,6.0794,6.1194,6.1871,6.2548,6.3225,6.3903,6.4641,6.4888,6.4888,0.0,0.0,0.0,0.0,0.0,0.0,0.0,0.0,0.0,0.0,0.0,1.8115,1.8099,1.7546,1.7147,1.7208,1.6624,1.6532,1.727,1.7915,1.8284,1.8376,1.8345,0.0,2.0443,2.1073,2.2058,2.3363,2.4102,2.6134,2.9341,2.9371,3.1182,3.4258,3.2287,3.1424,3.1547,3.2721,3.3644,3.4351,3.4936,3.5275,3.5398,3.5922,3.623,3.6292,3.546,3.3519,3.1182,3.0417,2.8442,2.631,2.6318,2.5826,2.5527,0.0,0.0,0.0,3.4443,3.7615,4.1186,4.3254,4.4764,4.6203,4.8173,4.8573,4.8573,4.8604,4.8604,4.8635,4.8666,4.9774,5.0913,5.159,5.2267,5.2698,5.2698,5.2698,5.2698,5.2698,5.3314,5.3945,5.4621,5.5899,5.644,5.5807,5.7531,5.8085,5.6933,5.7426,5.8073,5.8701,5.8196,5.8423,5.9716,6.0455,6.0794,6.0824,6.144,6.144,6.0886,6.1471,6.144,6.0855,6.0824,6.0794,6.0794,6.0794,6.1194,6.1871,6.2548,6.3225,6.3903,6.4641,6.4888,6.4888,0.0,0.0,0.0,0.0,0.0,0.0,0.0,0.0,0.0,0.0,0.0,0.0,0.0,1.9977,2.0008,2.0439,1.9454,1.8561,1.7884,1.8069,1.8207,1.8207,1.8638,1.9347,2.0289,2.1381,2.2397,2.3302,2.441,2.6257,2.8781,2.8781,2.9889,3.1859,3.152,3.164,3.2044,3.2105,3.2287,3.2718,3.5153,3.6661,3.7461,3.7677,3.8877,4.017,3.8138,3.623,3.4414,3.2875,3.0535,2.8258,2.7827,2.6903,2.6195,2.7119,2.8719,3.072,3.3121,3.583,3.8631,4.1586,4.3648,4.5372,4.6942,4.765,4.8081,4.8512,4.8974,4.9312,4.9312,5.0051,5.0913,5.159,5.2267,5.2852,5.3314,5.3345,5.3191,5.276,5.3314,5.3945,5.4621,5.5191,5.5899,5.6946,5.7364,5.7703,5.8073,5.7919,5.8085,5.8762,5.8978,5.9501,6.0424,6.024,6.0147,6.0147,6.0393,6.0393,6.0178,6.0855,6.104,6.0794,6.0794,6.0794,6.0794,6.0794,6.144,6.2487,6.2733,6.3502,6.4549,6.4795,6.4888,6.4888,0.0,0.0,0.0,0.0,0.0,1.8561,1.9487,2.0011,2.0474,2.0919,0.0,0.0,0.0,0.0,2.1381,2.1627,2.0795,1.9809,1.8638,1.8345,1.8207,1.8207,1.8684,1.9255,1.995,2.0826,2.1843,2.2963,2.3856,2.558,2.8073,2.8073,2.9027,3.0751,3.072,3.1089,3.1705,3.149,3.1643,3.2351,3.5799,3.7831,3.897,4.0108,4.1524,4.2694,4.0878,3.9185,3.7615,3.5984,3.3983,3.189,3.0505,2.8842,2.755,2.8227,2.8565,2.9335,3.2013,3.4075,3.623,3.9431,4.2078,4.4326,4.5895,4.7311,4.8358,4.8573,4.9189,4.962,4.9374,5.0082,5.0974,5.1898,5.2606,5.3283,5.3914,5.4006,5.3853,5.3437,5.373,5.433,5.4976,5.5468,5.63,5.7734,5.7826,5.8134,5.8731,5.8412,5.83,5.8762,5.9439,5.9993,6.0455,6.0024,5.9778,5.9778,5.9778,5.9778,5.9809,6.0486,6.0794,6.0794,6.0794,6.0794,6.0824,6.104,6.1809,6.2825,6.3071,6.3872,6.4888,6.4888,6.4888,6.4888,0.0,0.0,0.0,0.0,1.9392,2.035,2.0412,2.1535,2.2347,2.2409,0.0,0.0,0.0,0.0,0.0,2.0535,2.0474,2.0135,1.9395,1.8668,1.8253,1.8207,1.8222,1.8576,1.9271,1.9333,2.032,2.2255,2.2305,2.4061,2.7303,2.7334,2.875,3.1243,2.995,2.974,3.0448,3.112,3.2167,3.3675,3.7153,3.8939,3.989,4.331,4.424,4.3655,4.3655,4.2325,4.0474,3.9797,3.8662,3.703,3.426,3.1613,2.9587,3.0202,2.9894,2.9704,0.0,0.0,0.0,3.6784,4.0016,4.3063,4.5064,4.765,4.9435,4.8727,4.9189,4.9497,4.8789,4.9805,5.1159,5.2513,5.3283,5.3883,5.456,5.4683,5.4683,5.4652,5.4683,5.5007,5.5622,5.6946,5.7826,5.7857,5.9039,5.9501,5.8854,5.8793,5.8793,5.8824,5.9439,5.9778,5.9778,5.9778,5.9747,5.9747,5.9747,5.9747,5.9778,6.0486,6.0794,6.0794,6.0794,6.0794,6.0855,6.1532,6.221,6.2887,6.3564,6.4272,6.4888,6.4888,6.4888,6.4888,0.0,0.0,0.0,1.9594,2.0456,2.1504,2.2963,2.3517,2.4102,0.0,0.0,0.0,2.5918,2.6257,2.598,2.48,2.4225,2.2994,2.0888,2.0087,1.9269,1.8253,1.8715,1.907,1.9302,2.0258,2.1011,2.1565,2.2532,2.3763,2.5179,2.5672,2.7088,2.9181,2.835,2.8873,3.0448,3.112,3.189,3.3059,3.7461,3.9613,4.0597,4.4018,4.5187,4.5033,4.5033,4.4018,4.2633,4.1986,3.9862,3.703,3.426,3.2567,3.1305,3.0048,2.9556,2.9464,2.9858,0.0,0.0,0.0,0.0,0.0,4.3648,4.6234,4.8112,4.7927,4.922,5.0359,5.0143,5.082,5.1713,5.2575,5.2883,5.3221,5.3853,5.4375,5.4498,5.4006,5.4853,5.5499,5.5684,5.6946,5.8011,5.8454,5.9316,5.9716,5.9532,5.9039,5.9008,5.9501,5.9686,5.9778,5.9778,5.9316,5.907,5.907,5.907,5.907,5.9101,6.027,6.0794,6.0794,6.0794,6.0794,6.0855,6.1532,6.221,6.2887,6.3564,6.4272,6.4888,6.4888,6.4888,6.4888,0.0,0.0,2.0011,2.0949,2.2378,2.3579,2.4225,2.5272,2.6103,0.0,0.0,0.0,2.6934,2.7827,2.7857,2.6526,2.5733,2.4533,2.2655,2.1658,2.0624,1.953,1.9902,2.0011,1.9734,2.0227,2.0734,2.1288,2.1812,2.2532,2.3486,2.4164,2.5426,2.7119,2.7303,2.8381,3.0109,3.1921,3.2595,3.2782,3.7277,3.9459,4.0505,4.451,4.5834,4.5618,4.5895,4.5495,4.4726,4.4079,4.1586,3.8631,3.7892,3.5614,3.3118,3.2198,3.0936,2.9863,3.0166,3.0597,3.1582,3.4137,0.0,0.0,4.2232,4.5064,4.7342,4.7896,4.922,5.0266,5.0266,5.0605,5.119,5.2144,5.2052,5.2298,5.356,5.4006,5.436,5.4514,5.5222,5.5807,5.6115,5.7179,5.798,5.8331,5.8978,5.9378,5.9378,5.8731,5.8547,5.8947,5.8947,5.8947,5.8947,5.8547,5.8362,5.8362,5.8639,5.8793,5.8824,6.0178,6.0794,6.0794,6.0794,6.0794,6.0886,6.184,6.2456,6.2918,6.3903,6.4518,6.4888,6.4888,6.4888,6.4888,0.0,0.0,2.0949,2.2305,2.4625,2.5958,2.4933,2.6842,2.8011,0.0,2.668,2.6626,2.6626,2.7703,2.7919,2.6741,2.601,2.5342,2.4687,2.3363,2.2305,2.1565,2.1381,2.098,2.032,1.9703,2.0011,2.1196,2.069,2.1011,2.2212,2.2932,2.4071,2.5465,2.6811,2.8227,2.9827,3.2964,3.3735,3.3213,3.7307,3.9308,4.0355,4.4972,4.6234,4.568,4.6357,4.6603,4.648,4.5741,4.3525,4.1304,4.2786,3.9588,3.5306,3.5367,3.3306,3.1001,3.1213,3.0843,3.0725,3.2167,3.4845,0.0,4.0632,4.3679,4.6296,4.7681,4.8573,4.9158,4.9312,4.9343,4.9805,5.1251,5.0913,5.119,5.3314,5.3529,5.3991,5.5315,5.5468,5.5745,5.6532,5.7179,5.7611,5.7703,5.8423,5.8885,5.8885,5.8331,5.8011,5.7919,5.7919,5.7888,5.7826,5.7826,5.7826,5.7826,5.8454,5.8793,5.8824,6.0178,6.0794,6.0794,6.0794,6.0794,6.0886,6.2271,6.2825,6.2948,6.4364,6.4888,6.4888,6.4888,6.4888,6.4888,1.984,2.1073,2.2317,2.3671,2.5272,2.6657,2.7488,2.8073,2.8504,2.8781,2.835,2.8011,2.8011,2.8258,2.8288,2.8042,2.7888,2.7519,2.6842,2.5487,2.4164,2.2963,2.1874,2.098,2.032,2.0165,2.0227,2.0505,2.0888,2.1227,2.1535,2.2717,2.4317,2.6142,2.7026,2.875,3.1089,3.229,3.3921,3.6045,4.017,4.1894,4.2386,4.6018,4.6634,4.568,4.6357,4.6603,4.6419,4.5187,4.4695,4.4202,4.1863,4.0693,3.9493,3.5799,3.4628,3.3921,3.1305,3.0479,3.0848,3.2752,3.4137,0.0,3.8508,4.0478,4.2109,4.3494,4.4726,4.5895,4.7004,4.7188,4.7835,4.9774,4.9466,4.9928,5.2544,5.2452,5.2606,5.396,5.4114,5.436,5.5068,5.5715,5.633,5.6964,5.8608,5.9593,5.9593,5.947,5.9131,5.8608,5.8577,5.8331,5.7826,5.7826,5.7826,5.7826,5.8454,5.8793,5.8824,6.0178,6.0794,6.0794,6.0794,6.0794,6.0886,6.2271,6.2825,6.2948,6.4364,6.4888,6.4888,6.4888,6.4888,6.4888,2.058,2.1874,2.3332,2.5056,2.6472,2.7734,2.8725,2.9156,2.9643,3.032,3.0412,3.0258,2.992,3.0197,3.0135,2.9458,2.9402,2.9095,2.8442,2.7426,2.6081,2.4379,2.3332,2.2182,2.0826,2.0456,2.032,2.032,2.0659,2.098,2.1319,2.2336,2.4779,2.8326,2.8042,3.0135,3.4014,3.5029,3.6445,3.8231,4.1001,4.2509,4.3464,4.6819,4.7465,4.6696,4.7373,4.7373,4.7004,4.6326,4.5865,4.5341,4.3987,4.2879,4.1432,3.7984,3.6507,3.5306,3.2228,3.0909,3.0725,3.2074,3.2687,0.0,0.0,3.8539,3.989,4.1243,4.291,4.4425,4.5403,4.5588,4.6142,4.7865,4.8112,4.8481,4.9528,5.0851,5.2206,5.356,5.3714,5.3945,5.4621,5.5007,5.5499,5.6176,5.75,5.8423,5.8762,5.8793,5.8639,5.83,5.8011,5.7672,5.7303,5.7303,5.7487,5.7826,5.8454,5.8947,5.9316,6.0332,6.0794,6.0794,6.0794,6.0978,6.1379,6.2394,6.301,6.3441,6.4487,6.4888,6.4888,6.4888,6.4888,6.4888,2.1411,2.2347,2.3794,2.598,2.7396,2.8473,2.9304,2.9956,3.0632,3.1305,3.2105,3.2382,3.1828,3.2505,3.2505,3.1305,3.1309,3.1032,3.0202,2.9673,2.8565,2.6749,2.5373,2.3979,2.2521,2.1288,2.061,2.0505,2.0505,2.0764,2.1319,2.2243,2.5179,2.9587,2.9458,3.1643,3.5676,3.7923,3.909,3.9644,4.1586,4.3156,4.4702,4.7681,4.8389,4.7865,4.8266,4.7989,4.7465,4.7711,4.7065,4.6234,4.6511,4.528,4.3217,4.0474,3.8539,3.663,3.3614,3.1921,3.112,3.1643,3.1701,3.2382,0.0,0.0,0.0,3.9244,4.0878,4.233,4.3248,4.3439,4.3864,4.5218,4.5988,4.6296,4.5895,4.8543,5.1067,5.2575,5.3098,5.3498,5.3899,5.4914,5.5468,5.5315,5.67,5.7672,5.7795,5.7826,5.7888,5.8011,5.7364,5.6933,5.681,5.681,5.7148,5.7826,5.8454,5.9131,5.9809,6.0486,6.0794,6.0794,6.0794,6.1194,6.1871,6.2548,6.3225,6.3903,6.4611,6.4888,6.4888,6.4888,6.4888,6.4888,2.2305,2.2305,2.324,2.5865,2.6995,2.795,2.9187,2.9956,3.0632,3.1305,3.2505,3.3275,3.3183,3.4352,3.4874,3.4104,3.4597,3.4352,3.3029,3.2875,3.2475,3.1613,2.8049,2.6265,2.6688,2.364,2.1781,2.1196,2.1196,2.1227,2.135,2.3209,2.5035,2.6942,3.1028,3.2505,3.2321,3.7923,3.9951,3.9831,4.3618,4.5957,4.7311,4.8943,4.9127,4.8419,4.7896,4.7281,4.6911,4.8112,4.8389,4.8081,4.6942,4.7219,4.6942,4.1858,4.0228,3.9216,3.5306,3.3675,3.309,3.3152,3.2721,3.2721,3.4351,0.0,3.4383,3.5768,0.0,3.6969,3.8846,0.0,0.0,4.0966,4.1832,4.2448,4.2971,4.491,4.7004,4.8974,5.082,5.1713,5.119,5.5499,5.71,5.4176,5.79,5.9593,5.7919,5.7826,5.8054,5.8639,5.8073,5.7426,5.681,5.681,5.7148,5.7826,5.8454,5.9131,5.9809,6.0486,6.0794,6.0794,6.0794,6.1194,6.1871,6.2548,6.3225,6.3903,6.4611,6.4888,6.4888,6.4888,6.4888,6.4888,2.284,2.3179,2.4194,2.6534,2.718,2.798,2.971,3.1213,3.2259,3.2505,3.4106,3.5337,3.5737,3.6292,3.6538,3.6261,3.6846,3.6661,3.5276,3.5183,3.4198,3.1948,2.9427,2.768,2.6757,2.4995,2.3702,2.3025,2.3025,2.3025,2.3055,2.4317,2.6634,2.9981,3.2782,3.5029,3.6938,4.0693,4.3248,4.4941,4.6665,4.8881,5.1005,4.9589,4.8881,4.8512,4.7835,4.7681,4.7804,4.7958,4.882,4.9589,4.8204,4.8974,4.9558,4.5311,4.3771,4.2756,3.9493,3.78,3.6753,3.5984,3.5276,3.4814,3.5028,3.4198,3.346,3.3644,0.0,0.0,0.0,0.0,0.0,0.0,3.977,0.0,0.0,0.0,4.5187,4.7188,0.0,0.0,5.119,5.4391,5.5838,5.4375,5.6884,5.79,5.6638,5.6577,5.6884,5.7641,5.7395,5.7087,5.681,5.681,5.7364,5.8362,5.8639,5.9347,6.0393,6.0671,6.0794,6.0794,6.0794,6.1409,6.2425,6.2702,6.3472,6.4487,6.4764,6.4888,6.4888,6.4888,6.4888,6.4949,2.3548,2.3825,2.4687,2.6749,2.7119,2.7857,3.0048,3.229,3.3767,3.3952,3.6415,3.82,3.8323,3.8846,3.9154,3.9154,3.9462,3.9123,3.7954,3.8231,3.7153,3.4321,3.2013,3.0258,2.9095,2.6972,2.5549,2.4872,2.4687,2.4502,2.4317,2.5395,2.7734,3.112,3.3673,3.6384,3.9339,4.2509,4.5249,4.7588,4.8512,5.0297,5.2082,4.9989,4.8943,4.8543,4.805,4.8081,4.8327,4.8204,4.9035,0.0,4.8943,4.9774,5.0513,4.7281,4.5988,4.5033,4.254,4.0847,3.9582,3.8816,3.7954,3.7184,3.6692,3.5522,3.4229,3.3183,3.3183,0.0,0.0,0.0,0.0,0.0,0.0,3.7954,0.0,3.9431,0.0,0.0,0.0,0.0,0.0,5.3868,5.5468,5.4468,5.6577,5.7223,5.5776,5.5684,5.6023,5.6779,5.6994,5.6994,5.681,5.681,5.7487,5.8793,5.8793,5.9501,6.0794,6.0794,6.0794,6.0794,6.0794,6.1563,6.2825,6.2825,6.3626,6.4888,6.4888,6.4888,6.4888,6.4888,6.4888,6.5011,2.4533,2.3763,2.3979,2.6063,2.6411,2.7334,2.9986,3.2721,3.469,3.5367,3.9493,4.1894,4.0536,4.2202,4.3408,4.3408,4.2817,4.2171,4.1494,4.2669,4.2761,4.134,3.6846,3.4936,3.6138,3.0381,2.6995,2.6318,2.5641,2.4943,2.4348,2.638,2.7396,2.7796,3.3118,3.5552,3.6076,4.2053,4.4641,4.5041,4.8327,4.9281,4.8912,5.0174,4.9805,4.8604,4.8604,0.0,0.0,4.9158,4.9189,0.0,0.0,0.0,0.0,4.6449,4.5618,4.5157,4.3125,4.1555,4.0628,4.1309,4.0447,3.9398,3.94,3.8354,3.6815,0.0,0.0,0.0,0.0,0.0,0.0,0.0,0.0,0.0,0.0,0.0,0.0,0.0,0.0,0.0,0.0,5.473,5.7285,0.0,5.8054,0.0,5.5869,5.5684,5.6023,5.6779,5.7457,5.7487,5.681,5.681,5.7487,5.8793,5.8793,5.9501,6.0794,6.0794,6.0794,6.0794,6.0794,6.1563,6.2825,6.2825,6.3626,6.4888,6.4888,6.4888,6.4888,6.4888,6.4888,6.5011,2.4502,2.4133,2.4471,2.6103,2.7119,2.8627,3.1305,3.2875,3.4506,3.6569,3.9,4.1063,4.2386,4.2786,4.3094,4.3562,4.3809,4.3433,4.2325,4.3094,4.2607,4.0324,3.7369,3.5614,3.5213,3.1824,2.9489,2.8381,2.7703,2.7026,2.638,2.7519,2.8319,2.8935,3.3921,3.7153,3.9031,4.2484,4.6265,5.002,5.0728,5.0605,4.9897,4.9004,4.8635,4.8604,4.8604,4.845,0.0,4.882,4.9435,4.9835,4.8912,4.9712,5.0667,4.885,4.7958,4.7434,0.0,0.0,4.5064,4.4387,0.0,4.4418,4.2602,4.0816,0.0,0.0,0.0,0.0,0.0,0.0,0.0,0.0,0.0,0.0,0.0,0.0,0.0,0.0,0.0,0.0,0.0,0.0,0.0,0.0,0.0,0.0,5.4545,5.5653,5.6347,5.6053,5.7161,5.7703,5.7487,5.7025,5.7272,5.8165,5.8577,5.9255,6.0147,6.0609,6.0794,6.0794,6.0794,6.1563,6.2825,6.2825,6.3626,6.4888,6.4888,6.4888,6.4888,6.4888,6.4888,6.5072,2.4594,2.4666,2.5395,2.6534,2.8258,3.0135,3.2105,3.3983,3.5953,3.7954,4.0232,4.2263,4.3809,4.3771,4.3833,4.4271,4.4733,4.488,4.4756,4.4695,4.4079,4.2781,3.9893,3.8015,3.7369,3.3921,3.1674,3.0843,2.9212,2.8073,2.7426,2.8319,2.8996,2.9556,3.3614,3.743,4.1001,4.2294,4.6265,5.1559,5.0636,5.0143,4.9805,0.0,4.8696,4.9682,0.0,4.9343,4.9343,4.9343,4.9805,5.0143,4.8974,4.9528,5.0389,4.9281,4.8789,4.8573,4.8327,4.7742,0.0,4.6757,4.7127,0.0,4.5711,0.0,4.2171,0.0,0.0,0.0,0.0,0.0,0.0,0.0,0.0,0.0,0.0,3.2813,0.0,0.0,0.0,0.0,0.0,0.0,0.0,0.0,0.0,0.0,0.0,0.0,5.593,5.5715,5.6823,5.758,5.7826,5.7148,5.7148,5.7826,5.8454,5.9131,5.9809,6.0486,6.0794,6.0794,6.0794,6.1563,6.2825,6.2825,6.3626,6.4888,6.4888,6.4888,6.4888,6.4888,6.5195,6.575,2.4995,2.5527,2.6696,2.7457,2.9735,3.1763,3.2444,3.5984,3.8846,3.9524,4.3033,4.528,4.4764,4.5218,4.5588,4.5588,4.5649,4.6449,4.8296,4.7311,4.7188,4.8358,4.411,4.1955,4.254,3.6661,3.3552,3.3398,3.0135,2.8196,2.7519,2.8781,2.9402,2.9587,3.2198,3.6415,4.1586,4.1555,4.4664,4.9466,4.8204,4.8142,4.8758,4.8758,5.002,5.1713,5.0944,5.0697,5.0697,5.0697,5.0266,4.962,4.8943,4.8727,4.8604,4.7958,4.8173,4.8543,4.7896,4.7219,4.7004,4.8296,4.8173,0.0,0.0,0.0,4.6326,0.0,0.0,0.0,0.0,0.0,0.0,0.0,0.0,0.0,0.0,0.0,0.0,0.0,0.0,0.0,0.0,0.0,0.0,0.0,0.0,0.0,0.0,5.4837,5.5222,5.5776,5.6502,5.7179,5.7857,5.7179,5.7148,5.7795,5.8423,5.9131,5.9747,6.0486,6.0794,6.0794,6.0794,6.1563,6.2825,6.2825,6.3626,6.4888,6.4888,6.4888,6.4888,6.4888,6.575,6.6919,2.6934,2.7703,2.8996,3.0166,3.1767,3.3306,3.4506,3.7707,4.0262,4.097,4.2817,4.4641,4.5926,4.5803,4.5588,4.5588,4.6511,4.6665,4.568,4.6696,4.6819,4.568,4.4024,4.2694,4.1863,3.8292,3.546,3.3398,3.152,3.0043,2.8879,2.875,2.9458,3.0936,3.2136,3.5984,4.1555,4.1032,4.3648,4.8204,4.8881,4.9866,5.0913,0.0,5.1867,5.2975,5.1313,5.0697,5.0697,5.0697,5.0574,5.0389,5.0205,5.0174,5.0112,4.9959,4.9682,4.9374,4.9189,4.8635,4.8173,4.8512,4.9281,4.9805,0.0,0.0,0.0,0.0,0.0,0.0,0.0,0.0,0.0,0.0,0.0,0.0,0.0,0.0,0.0,0.0,0.0,0.0,0.0,0.0,0.0,0.0,0.0,0.0,0.0,0.0,5.8116,5.7254,5.7457,5.7888,5.8516,5.7395,5.6902,5.7087,5.8258,5.8885,5.907,6.027,6.0794,6.0794,6.0794,6.1563,6.2825,6.2825,6.3626,6.4888,6.4888,6.4888,6.4888,6.4888,6.575,6.6919,2.7765,2.8719,3.0474,3.241,3.4599,3.6138,3.6322,3.9247,4.2109,4.3987,4.4603,4.5772,4.8142,4.6973,4.6018,4.6018,4.7004,4.7373,4.685,4.7034,4.7065,4.6819,4.5349,4.4148,4.3371,4.0693,3.8077,3.5645,3.3983,3.2167,3.0258,3.0197,3.0905,3.2321,3.3306,3.6846,4.214,4.3494,4.5618,4.8142,4.9251,5.0143,0.0,5.1467,5.2175,5.2729,5.1898,5.1559,5.1559,5.1559,5.1374,5.1128,5.1128,5.0944,5.0697,5.0697,5.042,5.0143,5.0143,4.962,4.922,4.9805,5.0328,5.0667,5.0574,5.002,4.9497,0.0,4.7219,4.568,0.0,0.0,0.0,0.0,0.0,0.0,0.0,0.0,0.0,0.0,0.0,0.0,0.0,0.0,0.0,0.0,0.0,0.0,0.0,0.0,5.7192,5.7364,5.79,5.8442,5.8793,5.83,5.7826,5.7272,5.827,5.8793,5.8824,6.0178,6.0794,6.0794,6.0794,6.1563,6.2825,6.2825,6.3626,6.4888,6.4888,6.4888,6.4888,6.4888,6.575,6.6919,2.8904,2.9889,3.1921,3.4566,3.7646,3.9431,3.8323,4.1001,4.411,4.685,4.6942,4.7619,4.9897,4.8112,4.6726,4.6726,4.7342,4.8173,4.922,4.7835,4.7681,4.922,4.7065,4.5803,4.5711,4.3279,4.1063,3.9185,3.7123,3.4783,3.2225,3.2505,3.3029,3.3737,3.5029,3.8262,4.3002,4.7127,4.8727,4.8573,4.9466,4.9805,4.9959,5.1313,5.1836,5.1929,5.2513,5.2698,5.2698,5.2698,5.2329,5.1836,5.1836,5.1436,5.0944,5.0944,5.0882,5.082,5.082,5.0328,5.0112,5.1282,5.1128,5.0851,5.1436,5.1128,5.0851,5.1436,4.9743,4.9035,0.0,0.0,0.0,0.0,0.0,0.0,0.0,0.0,0.0,0.0,0.0,0.0,0.0,0.0,0.0,0.0,0.0,0.0,0.0,0.0,5.5345,5.6902,5.8073,5.8731,5.8916,5.9408,5.907,5.7949,5.8577,5.8854,5.8824,6.0178,6.0794,6.0794,6.0794,6.1563,6.2825,6.2825,6.3626,6.4888,6.4888,6.4888,6.4888,6.4888,6.575,6.6919,3.4168,3.4352,3.5276,3.743,3.9708,4.134,4.1678,4.4079,4.5711,4.5187,4.6449,4.7404,4.7311,4.7373,4.7434,4.7434,4.805,4.805,4.7188,4.8389,4.8543,4.7188,4.7219,4.7004,4.6419,4.488,4.3655,4.273,4.0632,3.8539,3.6384,3.4845,3.4505,3.5153,3.5953,3.8972,4.3747,4.8358,4.9343,4.7958,4.9774,5.0513,5.0667,5.2021,5.2544,5.2544,5.2667,5.2698,5.2698,5.2698,5.2637,5.2544,5.2544,5.2452,5.2359,5.2359,5.1959,5.1528,5.1528,5.1036,5.0574,5.082,5.079,5.0728,5.0851,5.079,5.0728,5.0851,5.0944,5.1005,5.1036,0.0,0.0,0.0,0.0,0.0,0.0,0.0,0.0,0.0,0.0,0.0,0.0,0.0,0.0,0.0,0.0,0.0,0.0,0.0,5.8947,0.0,5.7857,0.0,0.0,0.0,5.8854,5.8608,5.9285,5.9316,5.8824,6.0178,6.0794,6.0794,6.0794,6.1563,6.2825,6.2825,6.3626,6.4888,6.4888,6.4888,6.4888,6.4888,6.575,6.6919,3.5521,3.663,3.7984,3.9305,4.1555,4.3371,4.4048,4.5557,4.6757,4.7157,4.7434,4.8019,4.9127,4.8266,4.7896,4.8635,4.8974,4.9035,4.8758,4.9651,4.962,4.8266,4.8142,4.7804,4.7127,4.648,4.5649,4.4641,4.3987,4.2479,4.0108,3.8785,3.8539,3.9247,4.0601,4.3063,4.6296,4.8266,4.8943,4.8789,5.0143,5.0697,5.0851,5.2206,5.2698,5.2698,5.2698,5.2698,5.2698,5.2698,5.2698,5.2698,5.2698,5.2698,5.2698,5.2698,5.2483,5.2236,5.2236,5.1744,5.1313,5.1652,5.1467,5.1221,5.1221,5.1221,5.1221,5.1221,5.1467,5.159,5.1282,5.1528,0.0,0.0,0.0,0.0,0.0,0.0,0.0,0.0,0.0,0.0,0.0,0.0,0.0,0.0,0.0,0.0,0.0,0.0,5.827,0.0,0.0,0.0,5.9255,0.0,5.947,5.8793,5.9101,5.9101,5.8824,6.0178,6.0794,6.0794,6.0794,6.1563,6.2887,6.3595,6.4303,6.4888,6.4888,6.4888,6.4888,6.4888,6.575,6.6919,3.6472,3.8427,4.0161,4.0502,4.303,4.5008,4.5292,4.6146,4.7342,4.885,4.8327,4.8573,5.0605,4.9158,4.8481,4.9589,4.9805,5.0143,5.0667,5.082,5.0605,4.9928,4.9374,4.8666,4.7835,4.7681,4.7157,4.6234,4.6603,4.5157,4.1955,4.2294,4.2725,4.334,4.5495,4.725,4.8604,0.0,4.882,4.9743,5.042,5.079,5.1036,5.2236,5.2698,5.2698,5.2698,5.2698,5.2698,5.2698,5.2698,5.2698,5.2698,5.2698,5.2698,5.2698,5.2698,5.2698,5.2698,5.2329,5.2052,5.2575,5.2298,5.1898,5.1744,5.1805,5.1836,5.1559,5.159,5.1867,5.2452,5.3529,0.0,0.0,0.0,0.0,0.0,0.0,0.0,0.0,0.0,0.0,0.0,0.0,0.0,0.0,0.0,0.0,0.0,0.0,0.0,0.0,0.0,6.027,5.9655,0.0,6.0055,5.9008,5.9008,5.8916,5.8824,6.0178,6.0794,6.0794,6.0794,6.1563,6.2918,6.4334,6.4888,6.4888,6.4888,6.4888,6.4888,6.4888,6.575,6.6919,3.9709,4.0876,4.1662,4.0977,4.3719,4.5698,4.4599,4.6184,4.7373,4.6942,4.7835,4.8389,4.8019,4.8881,4.9558,4.9682,5.0236,5.0636,5.0697,5.1282,5.1313,5.0636,5.0543,4.9866,4.8543,4.7927,4.7835,4.8327,4.7773,4.488,3.9859,4.3525,4.5249,4.5434,4.8112,0.0,0.0,4.9897,5.0143,4.9743,5.042,5.1067,5.1682,5.2421,5.2698,5.2698,5.2698,5.2698,5.2698,5.2698,5.2698,5.2698,5.2698,5.2698,5.2698,5.2698,5.2698,5.2698,5.2698,5.2667,5.2637,5.2698,5.2667,5.2452,5.1836,5.2175,5.2267,5.1036,5.1282,5.2452,5.4884,5.3991,5.4237,0.0,0.0,0.0,0.0,0.0,0.0,0.0,0.0,0.0,0.0,0.0,0.0,0.0,0.0,0.0,0.0,0.0,0.0,5.9532,5.9747,6.0701,6.2425,6.0732,5.9809,5.9686,5.9686,5.9378,5.8824,6.0178,6.0794,6.0794,6.0794,6.1563,6.2918,6.4334,6.4888,6.4888,6.4888,6.4888,6.4888,6.4888,6.575,6.6919,4.0651,4.259,4.4109,4.3765,4.5576,4.6678,4.5597,4.6527,4.722,4.6978,4.7935,4.882,4.9404,4.9959,5.0451,5.0851,5.1159,5.1467,5.1867,5.2144,5.2175,5.1929,5.1498,5.0851,4.9897,4.9189,4.8974,4.9251,4.9404,4.8142,4.5649,4.7281,4.7804,4.7465,4.9004,4.9528,4.9281,4.9404,4.9528,4.9743,5.042,5.1097,5.1775,5.2452,5.2698,5.2698,5.2698,5.2452,5.2175,5.2575,5.2698,5.2698,5.2698,5.2698,5.2698,5.2698,5.2698,5.2698,5.2698,5.2698,5.2606,5.2206,5.2113,5.2021,5.1775,5.1929,5.2082,5.1929,5.2113,5.2637,5.3714,5.4237,5.4837,5.5961,0.0,0.0,0.0,0.0,0.0,0.0,0.0,0.0,0.0,0.0,0.0,0.0,0.0,0.0,0.0,0.0,0.0,6.1009,0.0,5.9963,6.1594,5.9993,5.9193,5.9193,5.9193,5.9255,5.9408,6.0363,6.0794,6.0855,6.1656,6.2302,6.2918,6.4334,6.4888,6.4888,6.4888,6.4888,6.4888,6.4888,6.575,6.6919,4.093,4.2832,4.4248,4.3826,4.5035,4.6035,4.5875,4.6599,4.7486,4.839,4.9115,4.9805,5.0605,5.0882,5.119,5.1652,5.1898,5.2206,5.2698,5.2698,5.2698,5.2698,5.2082,5.1282,5.042,4.9712,4.9158,4.8789,4.9651,4.9035,4.7004,4.7404,4.8081,4.8943,4.9466,4.9682,4.9651,4.9158,4.9343,5.0051,5.0728,5.1405,5.2052,5.2544,5.2698,5.2698,5.2483,5.2113,5.1744,5.2021,5.2236,5.2452,5.2637,5.2698,5.2698,5.2698,5.2698,5.2698,5.2698,5.2698,5.2544,5.1867,5.1713,5.1713,5.1713,5.1713,5.1898,5.2575,5.2698,5.2698,5.2698,5.3853,5.4745,5.4637,0.0,0.0,0.0,5.4929,0.0,0.0,5.6669,5.6823,5.5899,0.0,0.0,0.0,0.0,0.0,0.0,0.0,0.0,0.0,0.0,0.0,6.0794,5.947,5.8793,5.8793,5.8793,5.9131,5.9809,6.0486,6.0794,6.0886,6.224,6.2825,6.2918,6.4334,6.4888,6.4888,6.4888,6.4888,6.4918,6.5134,6.5934,6.695,4.0647,4.1109,4.1056,3.9622,4.1141,4.313,4.4749,4.631,4.833,5.1243,5.1682,5.1405,5.0759,5.1282,5.1682,5.1713,5.2329,5.2698,5.2698,5.2698,5.2698,5.2698,5.2082,5.1067,4.9712,4.9004,4.7958,4.6634,4.7989,4.5895,4.0628,4.2048,4.5187,4.9682,4.9682,4.9682,4.9682,4.9682,5.0051,5.0759,5.1405,5.2082,5.2698,5.2698,5.2698,5.2637,5.1959,5.1713,5.159,5.0944,5.1159,5.1836,5.2513,5.2698,5.2698,5.2698,5.2698,5.2698,5.2698,5.2698,5.2544,5.1867,5.1713,5.1713,5.1713,5.1713,5.1898,5.2575,5.2698,5.2698,5.2698,5.2729,5.3622,5.6347,0.0,0.0,0.0,0.0,0.0,0.0,5.9932,6.0732,6.0701,0.0,0.0,0.0,0.0,0.0,0.0,0.0,0.0,5.987,5.9778,0.0,6.0794,5.947,5.8793,5.8793,5.8793,5.9131,5.9809,6.0486,6.0794,6.0886,6.224,6.2825,6.2918,6.4334,6.4888,6.4888,6.4888,6.4888,6.498,6.5657,6.6334,6.7012,4.1053,4.1824,4.251,4.2978,4.4501,4.5962,4.6729,4.7641,4.8534,4.9554,4.9384,4.9397,4.9905,5.144,5.239,5.239,5.2575,5.2698,5.2698,5.2698,5.2698,5.2698,5.2513,5.1744,5.0389,5.0143,4.9343,4.7958,0.0,0.0,4.6788,4.7219,4.7989,4.8974,4.9466,4.9682,4.9682,4.9682,5.0328,5.1405,5.1621,5.2113,5.2698,5.2698,5.2698,5.2637,5.1959,5.1405,5.0974,5.0759,5.0543,5.0451,5.1128,5.1959,5.2637,5.2144,5.2021,5.2021,5.2021,5.1682,5.119,5.0482,5.0667,5.1005,5.1005,5.1744,5.2452,5.2667,5.2698,5.2698,5.2698,5.2698,5.3006,5.3868,5.3837,0.0,5.4607,0.0,5.4837,0.0,5.6115,5.6669,0.0,5.8516,0.0,0.0,0.0,0.0,0.0,0.0,0.0,0.0,6.0055,0.0,6.1471,5.9686,5.9008,5.947,5.9008,5.9378,6.0486,6.0701,6.0794,6.0886,6.224,6.2825,6.2918,6.4334,6.4888,6.4888,6.4888,6.4888,6.498,6.5657,6.6334,6.7012,4.1207,4.1791,4.2458,4.3251,4.4416,4.5611,4.6649,4.732,4.799,4.8914,4.9126,4.9435,5.0084,5.1681,5.2563,5.2124,5.2473,5.2698,5.2698,5.2698,5.2698,5.2698,5.2236,5.1559,5.0697,5.0174,0.0,4.8235,4.8696,4.9035,4.9281,4.9281,4.9189,4.9035,4.9497,4.9835,5.0082,5.0328,5.0944,5.1713,5.199,5.2329,5.2698,5.2698,5.2544,5.2267,5.1867,5.1097,5.0328,5.0328,5.0051,4.9712,4.9866,5.0851,5.1867,5.1436,5.1498,5.1652,5.1374,5.1005,5.0605,5.0174,5.0389,5.0759,5.1005,5.1929,5.279,5.3037,5.2883,5.279,5.3037,5.2883,5.2883,5.3375,5.3837,5.4176,5.4422,0.0,5.5315,0.0,0.0,0.0,0.0,5.7469,5.8054,0.0,0.0,0.0,0.0,0.0,0.0,6.1317,5.9408,5.9008,6.027,5.9039,5.8731,5.9408,5.9501,5.9993,6.0794,6.0794,6.0794,6.0886,6.224,6.2825,6.2918,6.4334,6.4888,6.4888,6.4888,6.4888,6.5011,6.5934,6.655,6.7042,4.111,4.1137,4.1218,4.13,4.1835,4.3026,4.5144,4.5962,4.7064,4.9213,5.0276,5.0875,5.0875,5.1911,5.217,5.1063,5.2048,5.2698,5.2698,5.2698,5.2698,5.2698,5.1498,5.079,5.0697,4.9435,4.8419,4.7742,4.7804,4.8142,4.8758,4.8758,4.9127,4.9743,4.9743,5.0143,5.082,5.1436,5.1744,5.1836,5.2452,5.2698,5.2698,5.2698,5.2329,5.1775,5.1652,5.082,4.9743,4.9651,4.962,4.9497,4.882,4.9528,5.0636,5.0636,5.1067,5.1436,5.079,5.0574,5.0574,5.0605,5.0697,5.0944,5.1621,5.2298,5.2975,5.3591,5.3221,5.2975,5.3545,5.3221,5.3191,5.4406,5.4652,5.4945,5.553,5.5622,5.6577,0.0,0.0,0.0,0.0,5.7949,5.6115,0.0,0.0,0.0,0.0,0.0,6.224,5.8947,5.8239,5.7949,5.7949,5.7949,5.8239,5.8885,6.0178,6.0794,6.0794,6.0794,6.0824,6.0948,6.224,6.2856,6.2979,6.4334,6.4888,6.4888,6.4888,6.4888,6.5072,6.6427,6.6919,6.7104,4.111,4.1489,4.2086,4.2982,4.4263,4.5699,4.7129,4.7488,4.7785,4.8318,4.8596,4.8745,4.8745,5.0401,5.1063,5.0066,5.1635,5.2698,5.2698,5.2698,5.2698,5.2698,5.2421,5.1744,5.0728,5.0359,4.9866,4.9189,4.9712,5.0051,5.0205,5.0205,5.0297,5.0451,5.0451,5.082,5.1467,5.1621,5.2021,5.2483,5.2637,5.2698,5.2698,5.2698,5.2606,5.2329,5.1313,5.0728,5.0297,4.922,4.8881,4.885,4.8666,4.922,4.9928,4.9928,5.0051,5.0143,4.9959,4.9528,4.9251,4.9805,5.0697,5.1652,5.2329,5.3006,5.3529,5.3683,5.3591,5.3529,5.3637,5.3591,5.3591,5.3899,5.4345,5.4745,5.4898,5.4976,5.5376,0.0,5.6392,5.6515,5.7426,5.7549,5.8177,0.0,0.0,6.1532,6.1871,6.2641,6.1994,5.9624,5.9408,5.9316,5.9316,5.9316,5.9378,5.9562,6.0393,6.0794,6.0794,6.0794,6.1071,6.1625,6.2456,6.3102,6.3656,6.4549,6.4888,6.4888,6.4888,6.4888,6.5072,6.6427,6.6919,6.7104,4.1924,4.2195,4.2683,4.3655,4.4727,4.5841,4.6731,4.7118,4.7284,4.7284,4.7717,4.8021,4.8021,4.9406,5.021,4.9679,5.1496,5.2518,5.2002,5.2427,5.2698,5.2698,5.2421,5.1898,5.1159,5.0851,5.0513,5.0143,5.0513,5.0697,5.0697,5.0697,5.0851,5.1159,5.1159,5.1528,5.2175,5.2175,5.239,5.2698,5.2698,5.2698,5.2698,5.2698,5.2513,5.2144,5.1405,5.0759,5.0112,4.9343,4.8881,4.8604,4.8604,4.8881,4.9189,4.9189,4.9435,4.962,4.9281,4.8912,4.885,4.9897,5.1159,5.2267,5.2637,5.3006,5.3437,5.4052,5.3637,5.3529,5.4453,5.4114,5.3929,5.4514,5.4945,5.5284,5.5622,5.593,5.6238,5.6607,5.6638,5.6792,5.7241,5.7333,5.798,5.9378,6.0424,0.0,6.104,6.1594,6.1379,6.027,5.9655,5.9316,5.9316,5.9316,5.9501,5.9809,6.0486,6.0794,6.0794,6.0794,6.1163,6.184,6.2517,6.3195,6.3872,6.4611,6.4888,6.4888,6.4888,6.4888,6.5072,6.6427,6.6919,6.7104,4.3036,4.309,4.3362,4.3981,4.4501,4.5044,4.5641,4.6157,4.6482,4.6482,4.7387,4.8021,4.8021,4.8944,4.9504,4.9386,5.1233,5.2048,5.1156,5.2094,5.2698,5.2698,5.2267,5.1959,5.1867,5.1282,5.0944,5.0851,5.0944,5.1005,5.1005,5.1005,5.1313,5.1867,5.1867,5.2175,5.2698,5.2698,5.2698,5.2698,5.2698,5.2698,5.2698,5.2698,5.2359,5.1836,5.1744,5.0882,4.9835,4.9712,4.922,4.8604,4.8604,4.8604,4.8604,4.8604,4.9035,4.9404,4.8789,4.8758,4.9251,5.0513,5.1775,5.2698,5.2698,5.2883,5.3345,5.4437,5.3899,5.3683,5.5376,5.476,5.4545,5.6207,5.6023,5.6115,5.7395,5.7641,5.7734,5.7949,5.8073,5.8134,5.8134,5.7703,5.7364,5.7272,5.8362,5.8824,5.827,5.987,6.0794,6.0794,5.9686,5.907,5.907,5.8885,5.9162,5.9963,6.0517,6.0794,6.0794,6.0794,6.1225,6.1994,6.2579,6.3256,6.4026,6.4641,6.4888,6.4888,6.4888,6.4888,6.5072,6.6427,6.6919,6.7104,4.3682,4.4067,4.461,4.5207,4.5397,4.5641,4.6238,4.6428,4.6482,4.6482,4.7387,4.8021,4.8021,4.8944,4.9239,4.8324,5.0162,5.1249,5.1109,5.2094,5.2698,5.2698,5.316,5.3129,5.2575,5.2452,5.2113,5.1559,5.2113,5.239,5.239,5.239,5.2452,5.2544,5.2544,5.2606,5.2698,5.2698,5.2698,5.2698,5.2698,5.2698,5.2698,5.2698,5.2637,5.2483,5.1898,5.119,5.0451,4.9866,4.922,4.8604,4.8604,4.8604,4.8604,4.8604,4.8696,4.8758,4.8635,4.9466,5.0574,5.1344,5.2144,5.2698,5.2698,5.3591,5.4437,5.4652,5.5007,5.5315,5.5622,5.553,5.6392,5.9501,5.7562,5.6946,6.0517,5.867,5.7395,5.8485,5.9131,5.947,5.947,5.9901,5.9932,5.9378,6.0055,6.0424,6.0332,6.064,6.0794,6.0794,6.0609,6.0486,6.0486,5.9347,5.9408,6.064,6.0763,6.0794,6.0794,6.0794,6.1471,6.2671,6.2764,6.3533,6.4734,6.4857,6.4888,6.4888,6.4888,6.4888,6.5072,6.6427,6.6919,6.7104,4.3818,4.4284,4.4881,4.5478,4.5587,4.5777,4.6374,4.6482,4.6482,4.6482,4.6898,4.7208,4.7208,4.8122,4.8546,4.8021,4.9892,5.1259,5.1648,5.2307,5.2883,5.3252,5.3514,5.3591,5.3283,5.2883,5.2575,5.2236,5.2575,5.2698,5.2698,5.2698,5.2698,5.2698,5.2698,5.2698,5.2698,5.2698,5.2698,5.2698,5.2698,5.2698,5.2698,5.2698,5.2698,5.2637,5.1959,5.1498,5.1067,5.0051,4.9466,4.9127,4.8727,4.8604,4.8604,4.8604,4.8604,4.8696,4.9097,4.9928,5.0851,5.1528,5.2206,5.2698,5.2698,5.3191,5.3837,5.4529,5.4668,5.4976,5.6084,5.5961,5.633,5.83,5.7285,5.6915,5.8824,5.8104,5.758,5.8227,5.9162,5.9778,5.9778,6.0393,6.0671,6.0363,6.064,6.064,6.027,6.024,6.024,6.024,6.024,6.024,6.024,5.9624,5.9809,6.0794,6.0794,6.0794,6.0794,6.0794,6.1532,6.2825,6.2825,6.3595,6.4888,6.4888,6.4888,6.4888,6.4888,6.4888,6.5072,6.6427,6.6919,6.7104,4.4253,4.4691,4.5261,4.5723,4.5804,4.5967,4.6401,4.6482,4.6482,4.6482,4.6482,4.6482,4.6482,4.7208,4.7745,4.7971,4.9844,5.1226,5.1762,5.2392,5.3101,5.3883,5.3914,5.3914,5.3914,5.3283,5.2883,5.2698,5.2698,5.2698,5.2698,5.2698,5.2698,5.2698,5.2698,5.2698,5.2698,5.2698,5.2698,5.2698,5.2698,5.2698,5.2698,5.2698,5.2698,5.2637,5.2113,5.1836,5.1528,5.0328,4.9805,4.9558,4.885,4.8604,4.8604,4.8604,4.8727,4.9004,4.9743,5.042,5.1097,5.1775,5.2329,5.2698,5.2698,5.2944,5.3468,5.4468,5.4576,5.4914,5.6532,5.6347,5.6392,5.7765,5.7333,5.7087,5.7857,5.7888,5.7826,5.7826,5.8978,5.9778,5.9778,6.027,6.064,6.0794,6.064,6.0393,6.0055,6.0024,5.987,5.9562,5.987,5.9963,5.9778,5.9932,6.027,6.0794,6.0794,6.0794,6.0794,6.0794,6.1532,6.2825,6.2825,6.3595,6.4888,6.4888,6.498,6.5134,6.5134,6.5134,6.5319,6.6827,6.7165,6.7135,4.5451,4.594,4.6347,4.6401,4.6401,4.6428,4.6455,4.6482,4.6482,4.6482,4.6482,4.6482,4.6482,4.6587,4.7002,4.792,4.9609,5.063,5.0618,5.2072,5.3476,5.4544,5.4621,5.4621,5.4621,5.3945,5.3345,5.2698,5.2698,5.2698,5.2698,5.2698,5.2698,5.2698,5.2698,5.2698,5.2698,5.2698,5.2698,5.2698,5.2698,5.2698,5.2698,5.2698,5.2698,5.2698,5.2667,5.2236,5.159,5.0882,5.0205,4.9558,4.885,4.8604,4.8604,4.8604,4.9097,4.9743,5.0451,5.1128,5.1805,5.2483,5.2667,5.2698,5.2698,5.3683,5.456,5.4652,5.5684,5.6625,5.6779,5.6779,5.7715,6.0917,5.8824,5.7869,6.1009,5.9316,5.7826,5.7826,5.8978,5.9778,5.9778,5.9839,6.0116,6.0763,6.0209,6.0116,6.0701,6.0732,6.0147,5.8885,6.0086,6.0424,5.9809,6.0424,6.0763,6.0794,6.0794,6.0794,6.0794,6.0794,6.1532,6.2825,6.2825,6.3595,6.4888,6.4888,6.5257,6.5842,6.5842,6.5842,6.6057,6.8027,6.7966,6.7196,4.5587,4.6075,4.6482,4.6482,4.6482,4.6482,4.6482,4.6482,4.6482,4.6482,4.6482,4.6482,4.6482,4.7383,4.8148,4.8532,5.0118,5.1244,5.165,5.2267,5.3168,5.428,5.3857,5.3962,5.4683,5.3652,5.2975,5.2698,5.2698,5.2698,5.2698,5.2698,5.2698,5.2698,5.2698,5.2698,5.2698,5.2698,5.2698,5.2698,5.2698,5.2698,5.2698,5.2698,5.2698,5.2698,5.2698,5.2544,5.2236,5.1559,5.0882,5.0205,4.9497,4.8974,4.8604,4.8604,4.9435,5.0359,5.0636,5.119,5.1867,5.2544,5.2698,5.2821,5.3252,5.3745,5.433,5.5161,5.5745,5.6238,5.6717,5.681,5.7241,5.8454,5.7641,5.7272,5.8485,5.7857,5.7179,5.7179,5.8011,5.8547,5.8547,5.8916,5.9439,6.0116,5.9932,6.0086,6.0763,6.0393,5.9562,5.8208,5.987,6.027,5.9162,6.024,6.0794,6.0794,6.0794,6.0794,6.0794,6.0794,6.1532,6.2825,6.2825,6.3595,6.4888,6.4888,6.5288,6.5903,6.5903,6.5903,6.615,6.815,6.8058,6.7196,4.5858,4.6211,4.6482,4.6482,4.6482,4.6482,4.6482,4.6482,4.6482,4.6482,4.6671,4.6806,4.6806,4.7931,4.8841,4.9126,5.0417,5.1426,5.1856,5.2057,5.2762,5.4052,5.3766,5.3793,5.4375,5.3283,5.2698,5.2698,5.2698,5.2698,5.2698,5.2698,5.2698,5.2698,5.2698,5.2698,5.2698,5.2698,5.2698,5.2698,5.2698,5.2698,5.2653,5.2306,5.2427,5.2653,5.2306,5.2397,5.2606,5.1929,5.1405,5.0851,4.9959,4.9189,4.8666,4.8881,4.9774,5.0759,5.0944,5.1498,5.2144,5.2606,5.2883,5.316,5.3622,5.4052,5.4607,5.5499,5.5869,5.6176,5.6717,5.681,5.681,5.681,5.681,5.681,5.681,5.681,5.681,5.681,5.7395,5.7826,5.7826,5.8227,5.8824,5.9716,5.9593,5.987,6.0763,6.0147,5.9378,5.8423,5.9747,6.0024,5.9101,6.0424,6.1009,6.0794,6.0794,6.0794,6.0794,6.0794,6.1532,6.2825,6.2825,6.3595,6.4888,6.4888,6.5411,6.6211,6.6211,6.6211,6.6488,6.8705,6.8397,6.7227,4.6482,4.6482,4.6482,4.6482,4.6482,4.6482,4.6482,4.6482,4.6482,4.6482,4.7051,4.7431,4.7431,4.7893,4.8653,4.9718,5.0438,5.0775,5.0722,5.1337,5.2411,5.4032,5.447,5.4375,5.3745,5.3022,5.2698,5.2698,5.2698,5.2698,5.2698,5.2698,5.2698,5.2698,5.2698,5.2698,5.2698,5.2698,5.2698,5.2698,5.2698,5.2698,5.2563,5.1512,5.1773,5.2563,5.1466,5.1819,5.2606,5.1929,5.1713,5.1467,5.0112,4.9189,4.8758,4.9466,5.0174,5.0851,5.1528,5.2206,5.2729,5.2729,5.3221,5.3714,5.3745,5.476,5.5684,5.5715,5.6269,5.681,5.681,5.681,5.681,5.681,5.681,5.681,5.681,5.681,5.681,5.681,5.7395,5.7795,5.7795,5.7826,5.8331,5.9686,5.9162,5.9378,6.0732,6.0147,5.9778,5.9778,5.9778,5.9778,5.9778,6.1132,6.1471,6.0794,6.0794,6.0794,6.0794,6.0794,6.1532,6.2825,6.2825,6.3595,6.4888,6.4888,6.5688,6.6919,6.6919,6.6919,6.7258,6.9905,6.9228,6.7319,4.6482,4.6482,4.6482,4.6482,4.6482,4.6671,4.7078,4.7132,4.7242,4.7649,4.7866,4.7975,4.7975,4.8463,4.8953,4.9283,4.9858,5.0575,5.1367,5.2654,5.3069,5.2323,5.3058,5.358,5.3699,5.2321,5.1957,5.2698,5.1957,5.1957,5.2698,5.2698,5.2698,5.2698,5.2698,5.2698,5.2698,5.2698,5.2698,5.2608,5.1865,5.1558,5.1466,5.0449,5.0686,5.1512,5.1203,5.1819,5.2532,5.1577,5.0955,5.0351,4.9024,4.8913,4.9404,4.962,5.0174,5.0851,5.1528,5.2544,5.3406,5.3406,5.356,5.396,5.4884,5.5407,5.5838,5.6378,5.6656,5.681,5.681,5.681,5.681,5.681,5.681,5.681,5.681,5.681,5.681,5.681,5.6994,5.7118,5.7118,5.7549,5.8146,5.9008,5.9778,6.0363,6.0763,5.9716,5.9285,5.9778,5.9316,5.9316,5.9778,6.0671,6.1009,6.0794,6.0794,6.0794,6.0824,6.1286,6.1994,6.2856,6.3318,6.4057,6.4888,6.4888,6.5688,6.6919,6.6919,6.7196,6.7904,7.009,6.9813,6.8612,4.7161,4.7161,4.7161,4.7161,4.7161,4.7296,4.7649,4.7703,4.7839,4.8137,4.8408,4.8544,4.8544,4.9059,4.9494,4.9494,4.9793,5.0488,5.1648,5.2358,5.2421,5.1556,5.1836,5.2029,5.2098,5.1862,5.1865,5.2048,5.1865,5.2048,5.2698,5.2698,5.2698,5.2698,5.2698,5.2698,5.2698,5.2698,5.2698,5.2608,5.1512,5.1109,5.1016,4.9969,5.0228,5.1109,5.1109,5.1819,5.2563,5.1466,5.0661,4.9956,4.9149,4.9425,5.0143,5.0389,5.0974,5.1652,5.2329,5.3283,5.4176,5.4422,5.4483,5.4699,5.5499,5.5899,5.6238,5.6717,5.681,5.681,5.681,5.681,5.681,5.681,5.681,5.681,5.681,5.681,5.681,5.681,5.681,5.681,5.681,5.7426,5.8227,5.9101,6.0178,6.0671,6.0424,5.9378,5.9101,5.9778,5.9131,5.9224,6.0178,6.0609,6.0794,6.0794,6.0794,6.0794,6.0824,6.1502,6.2179,6.2856,6.3533,6.4241,6.4888,6.4888,6.5688,6.6919,6.6919,6.7319,6.815,7.0182,7.0059,6.9197,4.8192,4.8192,4.8192,4.8192,4.8192,4.8219,4.8246,4.8273,4.83,4.8327,4.8815,4.9196,4.9196,4.9684,5.001,5.001,5.0123,5.0573,5.1564,5.1135,5.099,5.1237,5.09,5.029,4.9571,5.1433,5.2033,5.1249,5.2124,5.2608,5.2698,5.2698,5.2698,5.2698,5.2698,5.2653,5.2563,5.2563,5.2518,5.2306,5.1373,5.0969,5.0875,4.994,5.0228,5.1109,5.1109,5.1819,5.2563,5.1466,5.072,5.0166,5.0106,5.0455,5.1005,5.1621,5.2267,5.2944,5.3622,5.4252,5.4976,5.553,5.5745,5.5776,5.5776,5.6347,5.681,5.681,5.681,5.681,5.681,5.681,5.681,5.681,5.681,5.681,5.681,5.681,5.681,5.681,5.681,5.681,5.681,5.7487,5.8423,5.9778,6.0455,6.0517,5.9901,5.9285,5.9255,5.987,5.9285,5.9562,6.0794,6.0794,6.0794,6.0794,6.0794,6.0794,6.0824,6.1563,6.224,6.2856,6.3595,6.4334,6.498,6.498,6.578,6.7012,6.7012,6.7412,6.8243,7.0182,7.012,6.9351,4.8192,4.8192,4.8192,4.8192,4.8192,4.8354,4.8815,4.8869,4.9032,4.9576,4.9739,4.982,4.982,4.9928,5.001,5.001,5.0795,5.1234,5.1,5.1223,5.0829,4.9558,5.0447,5.0417,4.9184,4.9892,5.0952,5.2352,5.1773,5.1865,5.2698,5.2698,5.2698,5.2698,5.2698,5.2215,5.1466,5.1466,5.0969,5.0258,5.0017,4.9921,4.9921,4.9679,5.0228,5.1109,5.1109,5.1819,5.2563,5.1466,5.102,5.081,5.0255,5.1092,5.2298,5.2452,5.2975,5.3652,5.4283,5.4976,5.553,5.5653,5.6115,5.6594,5.6594,5.6717,5.681,5.681,5.681,5.681,5.681,5.681,5.681,5.681,5.681,5.681,5.681,5.681,5.681,5.681,5.681,5.681,5.681,5.7869,5.9131,6.0486,6.0701,6.0732,6.0578,6.0455,6.0424,6.0578,6.0424,6.0517,6.0794,6.0794,6.0794,6.0794,6.0794,6.0794,6.0824,6.2056,6.2671,6.2887,6.4118,6.5042,6.5688,6.5688,6.6488,6.772,6.772,6.8089,6.8858,7.0367,7.0705,7.0675,4.9032,4.9032,4.9032,4.9032,4.9032,4.9196,4.9494,4.9549,4.9657,4.9983,5.001,5.001,5.001,5.001,5.001,5.001,5.027,5.0353,5.0021,4.9696,4.9158,4.8277,4.9423,4.9994,4.9788,5.0262,5.1149,5.2473,5.2397,5.2475,5.2698,5.2698,5.2698,5.2698,5.2698,5.2094,5.1109,5.1651,5.1279,5.0353,5.0353,5.0353,5.0353,5.0353,5.0639,5.1156,5.1651,5.1911,5.1865,5.1296,5.1319,5.1528,5.1199,5.2077,5.3252,5.3591,5.3883,5.4283,5.5007,5.5684,5.6207,5.6207,5.6532,5.681,5.681,5.681,5.681,5.681,5.681,5.681,5.681,5.681,5.681,5.681,5.681,5.681,5.681,5.681,5.681,5.681,5.681,5.7056,5.7703,5.867,5.9686,6.0732,6.0486,6.0178,5.9839,5.9839,5.9839,5.9839,6.0147,6.0486,6.0794,6.0794,6.0794,6.0794,6.0794,6.0794,6.0855,6.221,6.2825,6.2887,6.4303,6.5288,6.5903,6.5903,6.6704,6.7935,6.7935,6.8304,6.9043,7.0398,7.1321,7.1998,5.001,5.001,5.001,5.001,5.001,5.001,5.001,5.001,5.001,5.001,5.001,5.001,5.001,5.001,5.001,5.001,4.9467,4.9032,4.8923,4.7975,4.7403,4.7507,4.8634,4.9788,5.0836,5.1628,5.2103,5.2204,5.3036,5.3071,5.2427,5.2427,5.2518,5.2653,5.2337,5.1773,5.1156,5.1865,5.1681,5.0875,5.1016,5.1109,5.1109,5.1296,5.1373,5.1512,5.2352,5.2124,5.1373,5.1493,5.1961,5.2472,5.2592,5.328,5.4176,5.473,5.4976,5.5191,5.5745,5.6347,5.681,5.681,5.681,5.681,5.681,5.681,5.681,5.681,5.681,5.681,5.681,5.681,5.681,5.681,5.681,5.681,5.681,5.681,5.681,5.681,5.6902,5.7457,5.867,5.9408,6.0086,6.0763,6.027,5.9778,5.9316,5.9285,5.9285,5.9285,5.9839,6.0332,6.0794,6.0794,6.0794,6.0794,6.0794,6.0794,6.0855,6.221,6.2825,6.2887,6.4303,6.5349,6.6088,6.6088,6.6858,6.8089,6.8089,6.8427,6.9043,7.0398,7.1783,7.2983,5.001,5.001,5.001,5.001,5.001,5.001,5.001,5.001,5.001,5.001,5.001,5.001,5.001,5.001,5.001,5.001,4.9467,4.8869,4.8354,4.7731,4.7583,4.7884,4.9502,5.0886,5.1935,5.3486,5.3611,5.2204,5.2222,5.191,5.1326,5.1326,5.1819,5.2608,5.0857,5.0449,5.1063,5.0353,4.9969,4.9844,5.0733,5.1109,5.1203,5.2124,5.2473,5.2518,5.2653,5.2608,5.2565,5.3147,5.3392,5.3576,5.4159,5.4882,5.5438,5.553,5.5992,5.6563,5.6656,5.6717,5.681,5.681,5.681,5.681,5.681,5.681,5.681,5.681,5.681,5.681,5.681,5.681,5.681,5.681,5.681,5.681,5.681,5.681,5.681,5.681,5.7333,5.798,5.8701,5.9408,6.0086,6.0763,6.0701,6.0886,6.1379,6.1409,6.1409,6.1409,6.1502,6.1286,6.0794,6.0794,6.0794,6.0794,6.0794,6.0794,6.0855,6.221,6.2825,6.2887,6.4303,6.5626,6.6765,6.6765,6.7566,6.8766,6.8766,6.8797,6.9043,7.0398,7.1783,7.2983,5.001,5.001,5.001,5.001,5.001,5.001,5.001,5.001,5.001,5.001,5.001,5.001,5.001,4.9711,4.9521,4.9521,4.868,4.8029,4.7758,4.7188,4.7252,4.7999,4.9695,5.1082,5.2204,5.2998,5.2882,5.1788,5.2018,5.1482,5.0258,5.0258,5.0496,5.0952,5.0591,5.0371,5.0305,5.1046,5.0999,5.0544,5.1558,5.2002,5.2079,5.2518,5.2698,5.276,5.3129,5.3283,5.3375,5.4006,5.4514,5.4884,5.5191,5.5468,5.5776,5.6176,5.6238,5.6317,5.6717,5.681,5.681,5.681,5.681,5.681,5.681,5.681,5.681,5.681,5.681,5.681,5.681,5.681,5.681,5.681,5.681,5.681,5.681,5.681,5.6964,5.7333,5.798,5.8608,5.9285,5.9963,6.0486,6.0763,6.0455,6.0363,6.0671,6.0671,6.0671,6.0671,6.104,6.1101,6.0794,6.0794,6.0794,6.0794,6.0794,6.0794,6.0855,6.221,6.2825,6.2887,6.4303,6.5657,6.6919,6.6919,6.7689,6.8889,6.8889,6.9351,7.009,7.0675,7.1783,7.2983]}]]